<?xml version="1.0" encoding="UTF-8" standalone="no" ?>
<gpx xmlns="http://www.topografix.com/GPX/1/1" xmlns:xsi="http://www.w3.org/2001/XMLSchema-instance" xsi:schemaLocation="http://www.topografix.com/GPX/1/1 http://www.topografix.com/GPX/1/1/gpx.xsd" version="1.1" creator="VisuGPX - https://www.visugpx.com">
  <metadata>
    <name>BRAMA depuis Félines Minervois</name>
  </metadata>
  <trk>
    <name><![CDATA[2021-03-29 16:58:04]]></name>
    <trkseg>
      <trkpt lat="43.33718" lon="2.59441">
        <ele>174.62</ele>
        <time>2021-03-29T12:07:52Z</time>
      </trkpt>
      <trkpt lat="43.33718" lon="2.59441">
        <ele>174.62</ele>
        <time>2021-03-29T12:07:53Z</time>
      </trkpt>
      <trkpt lat="43.33718" lon="2.59442">
        <ele>175.1</ele>
        <time>2021-03-29T12:07:54Z</time>
      </trkpt>
      <trkpt lat="43.33734" lon="2.59437">
        <ele>175.58</ele>
        <time>2021-03-29T12:08:25Z</time>
      </trkpt>
      <trkpt lat="43.33734" lon="2.5944">
        <ele>175.58</ele>
        <time>2021-03-29T12:08:27Z</time>
      </trkpt>
      <trkpt lat="43.33733" lon="2.59452">
        <ele>175.58</ele>
        <time>2021-03-29T12:08:35Z</time>
      </trkpt>
      <trkpt lat="43.33734" lon="2.59458">
        <ele>175.58</ele>
        <time>2021-03-29T12:08:46Z</time>
      </trkpt>
      <trkpt lat="43.33735" lon="2.59454">
        <ele>175.58</ele>
        <time>2021-03-29T12:08:50Z</time>
      </trkpt>
      <trkpt lat="43.33735" lon="2.59444">
        <ele>176.06</ele>
        <time>2021-03-29T12:08:57Z</time>
      </trkpt>
      <trkpt lat="43.33732" lon="2.59436">
        <ele>177.02</ele>
        <time>2021-03-29T12:09:09Z</time>
      </trkpt>
      <trkpt lat="43.33734" lon="2.59442">
        <ele>175.1</ele>
        <time>2021-03-29T12:09:13Z</time>
      </trkpt>
      <trkpt lat="43.33733" lon="2.59457">
        <ele>175.1</ele>
        <time>2021-03-29T12:09:21Z</time>
      </trkpt>
      <trkpt lat="43.33724" lon="2.59483">
        <ele>173.66</ele>
        <time>2021-03-29T12:09:37Z</time>
      </trkpt>
      <trkpt lat="43.33723" lon="2.59487">
        <ele>173.17</ele>
        <time>2021-03-29T12:09:41Z</time>
      </trkpt>
      <trkpt lat="43.33728" lon="2.59484">
        <ele>172.69</ele>
        <time>2021-03-29T12:09:48Z</time>
      </trkpt>
      <trkpt lat="43.33747" lon="2.59454">
        <ele>174.14</ele>
        <time>2021-03-29T12:10:13Z</time>
      </trkpt>
      <trkpt lat="43.33751" lon="2.59447">
        <ele>174.14</ele>
        <time>2021-03-29T12:10:22Z</time>
      </trkpt>
      <trkpt lat="43.33759" lon="2.5944">
        <ele>174.14</ele>
        <time>2021-03-29T12:10:29Z</time>
      </trkpt>
      <trkpt lat="43.33766" lon="2.59426">
        <ele>175.1</ele>
        <time>2021-03-29T12:10:40Z</time>
      </trkpt>
      <trkpt lat="43.33771" lon="2.59417">
        <ele>175.1</ele>
        <time>2021-03-29T12:10:48Z</time>
      </trkpt>
      <trkpt lat="43.33776" lon="2.59399">
        <ele>175.58</ele>
        <time>2021-03-29T12:10:59Z</time>
      </trkpt>
      <trkpt lat="43.33777" lon="2.59389">
        <ele>176.06</ele>
        <time>2021-03-29T12:11:07Z</time>
      </trkpt>
      <trkpt lat="43.33777" lon="2.59374">
        <ele>176.54</ele>
        <time>2021-03-29T12:11:17Z</time>
      </trkpt>
      <trkpt lat="43.33771" lon="2.59365">
        <ele>177.5</ele>
        <time>2021-03-29T12:11:27Z</time>
      </trkpt>
      <trkpt lat="43.3377" lon="2.59362">
        <ele>178.94</ele>
        <time>2021-03-29T12:11:38Z</time>
      </trkpt>
      <trkpt lat="43.33769" lon="2.5936">
        <ele>178.94</ele>
        <time>2021-03-29T12:11:41Z</time>
      </trkpt>
      <trkpt lat="43.33764" lon="2.59358">
        <ele>179.42</ele>
        <time>2021-03-29T12:11:46Z</time>
      </trkpt>
      <trkpt lat="43.33758" lon="2.59353">
        <ele>180.38</ele>
        <time>2021-03-29T12:11:52Z</time>
      </trkpt>
      <trkpt lat="43.33755" lon="2.59351">
        <ele>181.35</ele>
        <time>2021-03-29T12:11:55Z</time>
      </trkpt>
      <trkpt lat="43.33741" lon="2.59339">
        <ele>183.75</ele>
        <time>2021-03-29T12:12:09Z</time>
      </trkpt>
      <trkpt lat="43.33738" lon="2.59335">
        <ele>184.23</ele>
        <time>2021-03-29T12:12:15Z</time>
      </trkpt>
      <trkpt lat="43.33733" lon="2.59329">
        <ele>185.19</ele>
        <time>2021-03-29T12:12:25Z</time>
      </trkpt>
      <trkpt lat="43.33732" lon="2.59314">
        <ele>186.63</ele>
        <time>2021-03-29T12:12:36Z</time>
      </trkpt>
      <trkpt lat="43.33733" lon="2.59312">
        <ele>186.63</ele>
        <time>2021-03-29T12:12:39Z</time>
      </trkpt>
      <trkpt lat="43.33737" lon="2.59297">
        <ele>188.08</ele>
        <time>2021-03-29T12:12:51Z</time>
      </trkpt>
      <trkpt lat="43.3374" lon="2.59286">
        <ele>189.04</ele>
        <time>2021-03-29T12:13:02Z</time>
      </trkpt>
      <trkpt lat="43.33743" lon="2.59281">
        <ele>190.48</ele>
        <time>2021-03-29T12:13:08Z</time>
      </trkpt>
      <trkpt lat="43.33744" lon="2.59279">
        <ele>190.48</ele>
        <time>2021-03-29T12:13:11Z</time>
      </trkpt>
      <trkpt lat="43.33748" lon="2.59273">
        <ele>191.44</ele>
        <time>2021-03-29T12:13:17Z</time>
      </trkpt>
      <trkpt lat="43.33752" lon="2.59266">
        <ele>193.36</ele>
        <time>2021-03-29T12:13:26Z</time>
      </trkpt>
      <trkpt lat="43.33755" lon="2.59262">
        <ele>193.84</ele>
        <time>2021-03-29T12:13:31Z</time>
      </trkpt>
      <trkpt lat="43.33765" lon="2.59251">
        <ele>196.25</ele>
        <time>2021-03-29T12:13:43Z</time>
      </trkpt>
      <trkpt lat="43.33773" lon="2.5924">
        <ele>197.21</ele>
        <time>2021-03-29T12:13:54Z</time>
      </trkpt>
      <trkpt lat="43.33774" lon="2.59233">
        <ele>198.17</ele>
        <time>2021-03-29T12:13:59Z</time>
      </trkpt>
      <trkpt lat="43.33777" lon="2.59217">
        <ele>199.61</ele>
        <time>2021-03-29T12:14:11Z</time>
      </trkpt>
      <trkpt lat="43.33777" lon="2.59215">
        <ele>200.09</ele>
        <time>2021-03-29T12:14:20Z</time>
      </trkpt>
      <trkpt lat="43.33783" lon="2.59203">
        <ele>201.05</ele>
        <time>2021-03-29T12:14:31Z</time>
      </trkpt>
      <trkpt lat="43.33789" lon="2.59195">
        <ele>202.49</ele>
        <time>2021-03-29T12:14:41Z</time>
      </trkpt>
      <trkpt lat="43.33793" lon="2.59186">
        <ele>204.42</ele>
        <time>2021-03-29T12:14:49Z</time>
      </trkpt>
      <trkpt lat="43.33795" lon="2.59172">
        <ele>205.38</ele>
        <time>2021-03-29T12:15:00Z</time>
      </trkpt>
      <trkpt lat="43.33799" lon="2.59165">
        <ele>206.82</ele>
        <time>2021-03-29T12:15:05Z</time>
      </trkpt>
      <trkpt lat="43.33804" lon="2.59158">
        <ele>207.78</ele>
        <time>2021-03-29T12:15:12Z</time>
      </trkpt>
      <trkpt lat="43.3381" lon="2.59156">
        <ele>208.26</ele>
        <time>2021-03-29T12:15:18Z</time>
      </trkpt>
      <trkpt lat="43.33812" lon="2.59153">
        <ele>208.74</ele>
        <time>2021-03-29T12:15:22Z</time>
      </trkpt>
      <trkpt lat="43.33817" lon="2.59138">
        <ele>210.67</ele>
        <time>2021-03-29T12:15:34Z</time>
      </trkpt>
      <trkpt lat="43.33817" lon="2.59136">
        <ele>211.63</ele>
        <time>2021-03-29T12:15:36Z</time>
      </trkpt>
      <trkpt lat="43.33816" lon="2.59135">
        <ele>211.63</ele>
        <time>2021-03-29T12:15:45Z</time>
      </trkpt>
      <trkpt lat="43.33818" lon="2.59122">
        <ele>213.07</ele>
        <time>2021-03-29T12:15:56Z</time>
      </trkpt>
      <trkpt lat="43.33821" lon="2.59112">
        <ele>215.47</ele>
        <time>2021-03-29T12:16:05Z</time>
      </trkpt>
      <trkpt lat="43.33821" lon="2.59111">
        <ele>215.47</ele>
        <time>2021-03-29T12:16:07Z</time>
      </trkpt>
      <trkpt lat="43.33824" lon="2.59103">
        <ele>216.91</ele>
        <time>2021-03-29T12:16:13Z</time>
      </trkpt>
      <trkpt lat="43.33826" lon="2.59099">
        <ele>217.4</ele>
        <time>2021-03-29T12:16:15Z</time>
      </trkpt>
      <trkpt lat="43.33827" lon="2.59098">
        <ele>217.4</ele>
        <time>2021-03-29T12:16:16Z</time>
      </trkpt>
      <trkpt lat="43.33829" lon="2.59087">
        <ele>218.84</ele>
        <time>2021-03-29T12:16:25Z</time>
      </trkpt>
      <trkpt lat="43.33829" lon="2.59084">
        <ele>219.32</ele>
        <time>2021-03-29T12:16:30Z</time>
      </trkpt>
      <trkpt lat="43.33829" lon="2.59082">
        <ele>219.32</ele>
        <time>2021-03-29T12:16:31Z</time>
      </trkpt>
      <trkpt lat="43.3383" lon="2.59073">
        <ele>219.8</ele>
        <time>2021-03-29T12:16:40Z</time>
      </trkpt>
      <trkpt lat="43.3383" lon="2.59075">
        <ele>220.28</ele>
        <time>2021-03-29T12:16:59Z</time>
      </trkpt>
      <trkpt lat="43.33831" lon="2.59075">
        <ele>220.76</ele>
        <time>2021-03-29T12:17:12Z</time>
      </trkpt>
      <trkpt lat="43.33832" lon="2.5907">
        <ele>221.24</ele>
        <time>2021-03-29T12:17:32Z</time>
      </trkpt>
      <trkpt lat="43.33832" lon="2.59065">
        <ele>221.24</ele>
        <time>2021-03-29T12:17:35Z</time>
      </trkpt>
      <trkpt lat="43.33833" lon="2.59062">
        <ele>221.72</ele>
        <time>2021-03-29T12:17:38Z</time>
      </trkpt>
      <trkpt lat="43.33837" lon="2.59046">
        <ele>223.64</ele>
        <time>2021-03-29T12:17:49Z</time>
      </trkpt>
      <trkpt lat="43.33838" lon="2.59043">
        <ele>223.64</ele>
        <time>2021-03-29T12:17:50Z</time>
      </trkpt>
      <trkpt lat="43.33841" lon="2.59036">
        <ele>224.12</ele>
        <time>2021-03-29T12:17:56Z</time>
      </trkpt>
      <trkpt lat="43.33841" lon="2.59034">
        <ele>224.12</ele>
        <time>2021-03-29T12:17:57Z</time>
      </trkpt>
      <trkpt lat="43.33842" lon="2.59032">
        <ele>224.12</ele>
        <time>2021-03-29T12:17:58Z</time>
      </trkpt>
      <trkpt lat="43.33843" lon="2.5903">
        <ele>225.09</ele>
        <time>2021-03-29T12:18:01Z</time>
      </trkpt>
      <trkpt lat="43.33844" lon="2.59028">
        <ele>225.57</ele>
        <time>2021-03-29T12:18:02Z</time>
      </trkpt>
      <trkpt lat="43.33845" lon="2.59027">
        <ele>226.05</ele>
        <time>2021-03-29T12:18:03Z</time>
      </trkpt>
      <trkpt lat="43.33846" lon="2.59025">
        <ele>226.05</ele>
        <time>2021-03-29T12:18:04Z</time>
      </trkpt>
      <trkpt lat="43.33847" lon="2.5902">
        <ele>226.53</ele>
        <time>2021-03-29T12:18:10Z</time>
      </trkpt>
      <trkpt lat="43.33847" lon="2.59019">
        <ele>226.53</ele>
        <time>2021-03-29T12:18:11Z</time>
      </trkpt>
      <trkpt lat="43.33849" lon="2.59012">
        <ele>227.97</ele>
        <time>2021-03-29T12:18:20Z</time>
      </trkpt>
      <trkpt lat="43.33849" lon="2.59005">
        <ele>227.97</ele>
        <time>2021-03-29T12:18:28Z</time>
      </trkpt>
      <trkpt lat="43.33847" lon="2.58997">
        <ele>228.45</ele>
        <time>2021-03-29T12:18:34Z</time>
      </trkpt>
      <trkpt lat="43.33846" lon="2.58994">
        <ele>228.45</ele>
        <time>2021-03-29T12:18:36Z</time>
      </trkpt>
      <trkpt lat="43.33846" lon="2.58992">
        <ele>228.45</ele>
        <time>2021-03-29T12:18:37Z</time>
      </trkpt>
      <trkpt lat="43.33845" lon="2.58981">
        <ele>228.93</ele>
        <time>2021-03-29T12:18:45Z</time>
      </trkpt>
      <trkpt lat="43.33845" lon="2.58979">
        <ele>228.93</ele>
        <time>2021-03-29T12:18:46Z</time>
      </trkpt>
      <trkpt lat="43.33844" lon="2.58976">
        <ele>229.41</ele>
        <time>2021-03-29T12:18:50Z</time>
      </trkpt>
      <trkpt lat="43.33847" lon="2.58964">
        <ele>230.85</ele>
        <time>2021-03-29T12:19:02Z</time>
      </trkpt>
      <trkpt lat="43.33848" lon="2.58961">
        <ele>231.33</ele>
        <time>2021-03-29T12:19:04Z</time>
      </trkpt>
      <trkpt lat="43.3385" lon="2.58951">
        <ele>232.78</ele>
        <time>2021-03-29T12:19:13Z</time>
      </trkpt>
      <trkpt lat="43.3385" lon="2.58949">
        <ele>233.26</ele>
        <time>2021-03-29T12:19:14Z</time>
      </trkpt>
      <trkpt lat="43.33851" lon="2.58945">
        <ele>233.74</ele>
        <time>2021-03-29T12:19:19Z</time>
      </trkpt>
      <trkpt lat="43.33852" lon="2.58938">
        <ele>234.22</ele>
        <time>2021-03-29T12:19:24Z</time>
      </trkpt>
      <trkpt lat="43.33853" lon="2.58933">
        <ele>235.18</ele>
        <time>2021-03-29T12:19:28Z</time>
      </trkpt>
      <trkpt lat="43.33852" lon="2.58926">
        <ele>236.14</ele>
        <time>2021-03-29T12:19:33Z</time>
      </trkpt>
      <trkpt lat="43.33852" lon="2.5892">
        <ele>237.58</ele>
        <time>2021-03-29T12:19:37Z</time>
      </trkpt>
      <trkpt lat="43.33852" lon="2.58918">
        <ele>238.54</ele>
        <time>2021-03-29T12:19:38Z</time>
      </trkpt>
      <trkpt lat="43.33855" lon="2.5891">
        <ele>238.54</ele>
        <time>2021-03-29T12:19:45Z</time>
      </trkpt>
      <trkpt lat="43.33856" lon="2.58906">
        <ele>238.54</ele>
        <time>2021-03-29T12:19:49Z</time>
      </trkpt>
      <trkpt lat="43.33856" lon="2.58904">
        <ele>238.54</ele>
        <time>2021-03-29T12:19:50Z</time>
      </trkpt>
      <trkpt lat="43.33857" lon="2.58897">
        <ele>239.51</ele>
        <time>2021-03-29T12:19:55Z</time>
      </trkpt>
      <trkpt lat="43.33858" lon="2.58895">
        <ele>239.99</ele>
        <time>2021-03-29T12:19:56Z</time>
      </trkpt>
      <trkpt lat="43.33858" lon="2.58889">
        <ele>240.47</ele>
        <time>2021-03-29T12:20:00Z</time>
      </trkpt>
      <trkpt lat="43.33859" lon="2.58887">
        <ele>240.47</ele>
        <time>2021-03-29T12:20:01Z</time>
      </trkpt>
      <trkpt lat="43.3386" lon="2.58878">
        <ele>241.43</ele>
        <time>2021-03-29T12:20:09Z</time>
      </trkpt>
      <trkpt lat="43.3386" lon="2.58877">
        <ele>241.43</ele>
        <time>2021-03-29T12:20:10Z</time>
      </trkpt>
      <trkpt lat="43.33863" lon="2.5886">
        <ele>241.91</ele>
        <time>2021-03-29T12:20:25Z</time>
      </trkpt>
      <trkpt lat="43.33867" lon="2.5885">
        <ele>241.91</ele>
        <time>2021-03-29T12:20:32Z</time>
      </trkpt>
      <trkpt lat="43.33866" lon="2.58843">
        <ele>241.43</ele>
        <time>2021-03-29T12:20:42Z</time>
      </trkpt>
      <trkpt lat="43.33869" lon="2.58829">
        <ele>241.43</ele>
        <time>2021-03-29T12:20:56Z</time>
      </trkpt>
      <trkpt lat="43.33869" lon="2.58802">
        <ele>239.99</ele>
        <time>2021-03-29T12:21:13Z</time>
      </trkpt>
      <trkpt lat="43.33867" lon="2.58792">
        <ele>239.99</ele>
        <time>2021-03-29T12:21:20Z</time>
      </trkpt>
      <trkpt lat="43.33865" lon="2.5878">
        <ele>240.95</ele>
        <time>2021-03-29T12:21:27Z</time>
      </trkpt>
      <trkpt lat="43.33862" lon="2.58765">
        <ele>240.95</ele>
        <time>2021-03-29T12:21:39Z</time>
      </trkpt>
      <trkpt lat="43.33864" lon="2.58746">
        <ele>240.95</ele>
        <time>2021-03-29T12:21:54Z</time>
      </trkpt>
      <trkpt lat="43.33865" lon="2.58734">
        <ele>240.95</ele>
        <time>2021-03-29T12:22:03Z</time>
      </trkpt>
      <trkpt lat="43.33866" lon="2.58731">
        <ele>240.95</ele>
        <time>2021-03-29T12:22:06Z</time>
      </trkpt>
      <trkpt lat="43.33866" lon="2.58729">
        <ele>240.95</ele>
        <time>2021-03-29T12:22:07Z</time>
      </trkpt>
      <trkpt lat="43.33874" lon="2.58707">
        <ele>240.95</ele>
        <time>2021-03-29T12:22:21Z</time>
      </trkpt>
      <trkpt lat="43.33875" lon="2.58706">
        <ele>240.95</ele>
        <time>2021-03-29T12:22:22Z</time>
      </trkpt>
      <trkpt lat="43.33875" lon="2.58701">
        <ele>240.47</ele>
        <time>2021-03-29T12:22:28Z</time>
      </trkpt>
      <trkpt lat="43.33876" lon="2.58699">
        <ele>240.47</ele>
        <time>2021-03-29T12:22:29Z</time>
      </trkpt>
      <trkpt lat="43.33874" lon="2.58687">
        <ele>240.47</ele>
        <time>2021-03-29T12:22:38Z</time>
      </trkpt>
      <trkpt lat="43.33872" lon="2.58685">
        <ele>240.47</ele>
        <time>2021-03-29T12:22:39Z</time>
      </trkpt>
      <trkpt lat="43.33866" lon="2.58673">
        <ele>241.43</ele>
        <time>2021-03-29T12:22:49Z</time>
      </trkpt>
      <trkpt lat="43.33864" lon="2.58672">
        <ele>241.43</ele>
        <time>2021-03-29T12:22:51Z</time>
      </trkpt>
      <trkpt lat="43.33862" lon="2.58671">
        <ele>241.43</ele>
        <time>2021-03-29T12:22:52Z</time>
      </trkpt>
      <trkpt lat="43.3386" lon="2.58667">
        <ele>241.43</ele>
        <time>2021-03-29T12:22:57Z</time>
      </trkpt>
      <trkpt lat="43.33858" lon="2.58666">
        <ele>241.43</ele>
        <time>2021-03-29T12:22:58Z</time>
      </trkpt>
      <trkpt lat="43.33845" lon="2.58657">
        <ele>241.91</ele>
        <time>2021-03-29T12:23:14Z</time>
      </trkpt>
      <trkpt lat="43.33827" lon="2.58641">
        <ele>242.39</ele>
        <time>2021-03-29T12:23:32Z</time>
      </trkpt>
      <trkpt lat="43.33817" lon="2.58628">
        <ele>242.87</ele>
        <time>2021-03-29T12:23:39Z</time>
      </trkpt>
      <trkpt lat="43.33806" lon="2.58613">
        <ele>243.35</ele>
        <time>2021-03-29T12:23:53Z</time>
      </trkpt>
      <trkpt lat="43.338" lon="2.58609">
        <ele>243.35</ele>
        <time>2021-03-29T12:24:02Z</time>
      </trkpt>
      <trkpt lat="43.33799" lon="2.58608">
        <ele>243.35</ele>
        <time>2021-03-29T12:24:03Z</time>
      </trkpt>
      <trkpt lat="43.33789" lon="2.58589">
        <ele>243.35</ele>
        <time>2021-03-29T12:24:15Z</time>
      </trkpt>
      <trkpt lat="43.33787" lon="2.58587">
        <ele>243.35</ele>
        <time>2021-03-29T12:24:18Z</time>
      </trkpt>
      <trkpt lat="43.33786" lon="2.58585">
        <ele>243.35</ele>
        <time>2021-03-29T12:24:19Z</time>
      </trkpt>
      <trkpt lat="43.33785" lon="2.58583">
        <ele>243.35</ele>
        <time>2021-03-29T12:24:20Z</time>
      </trkpt>
      <trkpt lat="43.33784" lon="2.58581">
        <ele>243.83</ele>
        <time>2021-03-29T12:24:21Z</time>
      </trkpt>
      <trkpt lat="43.33781" lon="2.58569">
        <ele>243.83</ele>
        <time>2021-03-29T12:24:30Z</time>
      </trkpt>
      <trkpt lat="43.33779" lon="2.58555">
        <ele>243.83</ele>
        <time>2021-03-29T12:24:39Z</time>
      </trkpt>
      <trkpt lat="43.33779" lon="2.58553">
        <ele>243.83</ele>
        <time>2021-03-29T12:24:40Z</time>
      </trkpt>
      <trkpt lat="43.33779" lon="2.58551">
        <ele>243.83</ele>
        <time>2021-03-29T12:24:41Z</time>
      </trkpt>
      <trkpt lat="43.33779" lon="2.58549">
        <ele>243.83</ele>
        <time>2021-03-29T12:24:42Z</time>
      </trkpt>
      <trkpt lat="43.33779" lon="2.58547">
        <ele>243.83</ele>
        <time>2021-03-29T12:24:43Z</time>
      </trkpt>
      <trkpt lat="43.33779" lon="2.58546">
        <ele>243.83</ele>
        <time>2021-03-29T12:24:44Z</time>
      </trkpt>
      <trkpt lat="43.33782" lon="2.5853">
        <ele>244.31</ele>
        <time>2021-03-29T12:24:55Z</time>
      </trkpt>
      <trkpt lat="43.33784" lon="2.58525">
        <ele>244.31</ele>
        <time>2021-03-29T12:25:00Z</time>
      </trkpt>
      <trkpt lat="43.33785" lon="2.58523">
        <ele>244.31</ele>
        <time>2021-03-29T12:25:01Z</time>
      </trkpt>
      <trkpt lat="43.33791" lon="2.58517">
        <ele>244.31</ele>
        <time>2021-03-29T12:25:13Z</time>
      </trkpt>
      <trkpt lat="43.33793" lon="2.58517">
        <ele>244.31</ele>
        <time>2021-03-29T12:25:15Z</time>
      </trkpt>
      <trkpt lat="43.33795" lon="2.58518">
        <ele>244.31</ele>
        <time>2021-03-29T12:25:16Z</time>
      </trkpt>
      <trkpt lat="43.33797" lon="2.58518">
        <ele>244.31</ele>
        <time>2021-03-29T12:25:17Z</time>
      </trkpt>
      <trkpt lat="43.33813" lon="2.5852">
        <ele>244.31</ele>
        <time>2021-03-29T12:25:29Z</time>
      </trkpt>
      <trkpt lat="43.33822" lon="2.58519">
        <ele>244.31</ele>
        <time>2021-03-29T12:25:39Z</time>
      </trkpt>
      <trkpt lat="43.33833" lon="2.58511">
        <ele>242.87</ele>
        <time>2021-03-29T12:25:50Z</time>
      </trkpt>
      <trkpt lat="43.33834" lon="2.5851">
        <ele>242.87</ele>
        <time>2021-03-29T12:25:51Z</time>
      </trkpt>
      <trkpt lat="43.33835" lon="2.58509">
        <ele>242.87</ele>
        <time>2021-03-29T12:25:52Z</time>
      </trkpt>
      <trkpt lat="43.33837" lon="2.58508">
        <ele>242.87</ele>
        <time>2021-03-29T12:25:53Z</time>
      </trkpt>
      <trkpt lat="43.33839" lon="2.58508">
        <ele>242.87</ele>
        <time>2021-03-29T12:25:54Z</time>
      </trkpt>
      <trkpt lat="43.33841" lon="2.58505">
        <ele>242.87</ele>
        <time>2021-03-29T12:25:59Z</time>
      </trkpt>
      <trkpt lat="43.33842" lon="2.58504">
        <ele>242.87</ele>
        <time>2021-03-29T12:26:00Z</time>
      </trkpt>
      <trkpt lat="43.33844" lon="2.58501">
        <ele>244.31</ele>
        <time>2021-03-29T12:26:09Z</time>
      </trkpt>
      <trkpt lat="43.33846" lon="2.58494">
        <ele>244.79</ele>
        <time>2021-03-29T12:26:26Z</time>
      </trkpt>
      <trkpt lat="43.33847" lon="2.58489">
        <ele>244.79</ele>
        <time>2021-03-29T12:26:36Z</time>
      </trkpt>
      <trkpt lat="43.33848" lon="2.58488">
        <ele>244.79</ele>
        <time>2021-03-29T12:26:37Z</time>
      </trkpt>
      <trkpt lat="43.33849" lon="2.58483">
        <ele>244.79</ele>
        <time>2021-03-29T12:26:41Z</time>
      </trkpt>
      <trkpt lat="43.33849" lon="2.58481">
        <ele>244.79</ele>
        <time>2021-03-29T12:26:42Z</time>
      </trkpt>
      <trkpt lat="43.33849" lon="2.58473">
        <ele>244.79</ele>
        <time>2021-03-29T12:26:50Z</time>
      </trkpt>
      <trkpt lat="43.33846" lon="2.58461">
        <ele>246.23</ele>
        <time>2021-03-29T12:26:59Z</time>
      </trkpt>
      <trkpt lat="43.33841" lon="2.58445">
        <ele>246.23</ele>
        <time>2021-03-29T12:27:11Z</time>
      </trkpt>
      <trkpt lat="43.3384" lon="2.5844">
        <ele>246.72</ele>
        <time>2021-03-29T12:27:16Z</time>
      </trkpt>
      <trkpt lat="43.33839" lon="2.58438">
        <ele>246.72</ele>
        <time>2021-03-29T12:27:17Z</time>
      </trkpt>
      <trkpt lat="43.33834" lon="2.58426">
        <ele>247.68</ele>
        <time>2021-03-29T12:27:27Z</time>
      </trkpt>
      <trkpt lat="43.33831" lon="2.58417">
        <ele>248.16</ele>
        <time>2021-03-29T12:27:34Z</time>
      </trkpt>
      <trkpt lat="43.3383" lon="2.58415">
        <ele>248.16</ele>
        <time>2021-03-29T12:27:35Z</time>
      </trkpt>
      <trkpt lat="43.33829" lon="2.58414">
        <ele>248.16</ele>
        <time>2021-03-29T12:27:36Z</time>
      </trkpt>
      <trkpt lat="43.33828" lon="2.5841">
        <ele>248.16</ele>
        <time>2021-03-29T12:27:40Z</time>
      </trkpt>
      <trkpt lat="43.33827" lon="2.58408">
        <ele>248.16</ele>
        <time>2021-03-29T12:27:41Z</time>
      </trkpt>
      <trkpt lat="43.33826" lon="2.58406">
        <ele>248.16</ele>
        <time>2021-03-29T12:27:42Z</time>
      </trkpt>
      <trkpt lat="43.33822" lon="2.58395">
        <ele>248.64</ele>
        <time>2021-03-29T12:27:52Z</time>
      </trkpt>
      <trkpt lat="43.33821" lon="2.58392">
        <ele>249.12</ele>
        <time>2021-03-29T12:27:54Z</time>
      </trkpt>
      <trkpt lat="43.3382" lon="2.5839">
        <ele>249.12</ele>
        <time>2021-03-29T12:27:55Z</time>
      </trkpt>
      <trkpt lat="43.33819" lon="2.58388">
        <ele>249.12</ele>
        <time>2021-03-29T12:27:56Z</time>
      </trkpt>
      <trkpt lat="43.33818" lon="2.58382">
        <ele>249.12</ele>
        <time>2021-03-29T12:28:01Z</time>
      </trkpt>
      <trkpt lat="43.33815" lon="2.58375">
        <ele>249.6</ele>
        <time>2021-03-29T12:28:06Z</time>
      </trkpt>
      <trkpt lat="43.33814" lon="2.58373">
        <ele>249.6</ele>
        <time>2021-03-29T12:28:07Z</time>
      </trkpt>
      <trkpt lat="43.3381" lon="2.58367">
        <ele>249.6</ele>
        <time>2021-03-29T12:28:11Z</time>
      </trkpt>
      <trkpt lat="43.33806" lon="2.58354">
        <ele>250.08</ele>
        <time>2021-03-29T12:28:22Z</time>
      </trkpt>
      <trkpt lat="43.33807" lon="2.58347">
        <ele>250.08</ele>
        <time>2021-03-29T12:28:27Z</time>
      </trkpt>
      <trkpt lat="43.33814" lon="2.58339">
        <ele>250.08</ele>
        <time>2021-03-29T12:28:37Z</time>
      </trkpt>
      <trkpt lat="43.33815" lon="2.58338">
        <ele>250.08</ele>
        <time>2021-03-29T12:28:38Z</time>
      </trkpt>
      <trkpt lat="43.33817" lon="2.58339">
        <ele>250.08</ele>
        <time>2021-03-29T12:28:39Z</time>
      </trkpt>
      <trkpt lat="43.33818" lon="2.58339">
        <ele>250.08</ele>
        <time>2021-03-29T12:28:40Z</time>
      </trkpt>
      <trkpt lat="43.3382" lon="2.58339">
        <ele>250.08</ele>
        <time>2021-03-29T12:28:41Z</time>
      </trkpt>
      <trkpt lat="43.33825" lon="2.5834">
        <ele>249.12</ele>
        <time>2021-03-29T12:28:47Z</time>
      </trkpt>
      <trkpt lat="43.3384" lon="2.58343">
        <ele>249.12</ele>
        <time>2021-03-29T12:29:00Z</time>
      </trkpt>
      <trkpt lat="43.3385" lon="2.58347">
        <ele>249.12</ele>
        <time>2021-03-29T12:29:09Z</time>
      </trkpt>
      <trkpt lat="43.33856" lon="2.5835">
        <ele>249.12</ele>
        <time>2021-03-29T12:29:20Z</time>
      </trkpt>
      <trkpt lat="43.33861" lon="2.58351">
        <ele>249.12</ele>
        <time>2021-03-29T12:29:27Z</time>
      </trkpt>
      <trkpt lat="43.33863" lon="2.58353">
        <ele>249.12</ele>
        <time>2021-03-29T12:29:28Z</time>
      </trkpt>
      <trkpt lat="43.33864" lon="2.58354">
        <ele>249.12</ele>
        <time>2021-03-29T12:29:29Z</time>
      </trkpt>
      <trkpt lat="43.33866" lon="2.58355">
        <ele>249.12</ele>
        <time>2021-03-29T12:29:30Z</time>
      </trkpt>
      <trkpt lat="43.33868" lon="2.58356">
        <ele>249.12</ele>
        <time>2021-03-29T12:29:31Z</time>
      </trkpt>
      <trkpt lat="43.33869" lon="2.58357">
        <ele>249.12</ele>
        <time>2021-03-29T12:29:32Z</time>
      </trkpt>
      <trkpt lat="43.33881" lon="2.58363">
        <ele>248.64</ele>
        <time>2021-03-29T12:29:44Z</time>
      </trkpt>
      <trkpt lat="43.33893" lon="2.58369">
        <ele>248.64</ele>
        <time>2021-03-29T12:29:55Z</time>
      </trkpt>
      <trkpt lat="43.33909" lon="2.58377">
        <ele>248.16</ele>
        <time>2021-03-29T12:30:08Z</time>
      </trkpt>
      <trkpt lat="43.33923" lon="2.58385">
        <ele>248.16</ele>
        <time>2021-03-29T12:30:20Z</time>
      </trkpt>
      <trkpt lat="43.33938" lon="2.58397">
        <ele>247.68</ele>
        <time>2021-03-29T12:30:33Z</time>
      </trkpt>
      <trkpt lat="43.33945" lon="2.58403">
        <ele>247.68</ele>
        <time>2021-03-29T12:30:40Z</time>
      </trkpt>
      <trkpt lat="43.33948" lon="2.58404">
        <ele>247.2</ele>
        <time>2021-03-29T12:30:43Z</time>
      </trkpt>
      <trkpt lat="43.3395" lon="2.58405">
        <ele>247.2</ele>
        <time>2021-03-29T12:30:44Z</time>
      </trkpt>
      <trkpt lat="43.33965" lon="2.58406">
        <ele>246.72</ele>
        <time>2021-03-29T12:30:58Z</time>
      </trkpt>
      <trkpt lat="43.33969" lon="2.58404">
        <ele>248.16</ele>
        <time>2021-03-29T12:31:03Z</time>
      </trkpt>
      <trkpt lat="43.33971" lon="2.58403">
        <ele>248.16</ele>
        <time>2021-03-29T12:31:04Z</time>
      </trkpt>
      <trkpt lat="43.33973" lon="2.58403">
        <ele>248.16</ele>
        <time>2021-03-29T12:31:05Z</time>
      </trkpt>
      <trkpt lat="43.33978" lon="2.58399">
        <ele>248.64</ele>
        <time>2021-03-29T12:31:12Z</time>
      </trkpt>
      <trkpt lat="43.3398" lon="2.58398">
        <ele>248.64</ele>
        <time>2021-03-29T12:31:13Z</time>
      </trkpt>
      <trkpt lat="43.33986" lon="2.58392">
        <ele>248.64</ele>
        <time>2021-03-29T12:31:20Z</time>
      </trkpt>
      <trkpt lat="43.33987" lon="2.5839">
        <ele>248.64</ele>
        <time>2021-03-29T12:31:21Z</time>
      </trkpt>
      <trkpt lat="43.33988" lon="2.58388">
        <ele>248.64</ele>
        <time>2021-03-29T12:31:22Z</time>
      </trkpt>
      <trkpt lat="43.33988" lon="2.58387">
        <ele>248.64</ele>
        <time>2021-03-29T12:31:23Z</time>
      </trkpt>
      <trkpt lat="43.3399" lon="2.58384">
        <ele>249.12</ele>
        <time>2021-03-29T12:31:27Z</time>
      </trkpt>
      <trkpt lat="43.3399" lon="2.58382">
        <ele>249.12</ele>
        <time>2021-03-29T12:31:28Z</time>
      </trkpt>
      <trkpt lat="43.33989" lon="2.58377">
        <ele>249.6</ele>
        <time>2021-03-29T12:31:35Z</time>
      </trkpt>
      <trkpt lat="43.33988" lon="2.58376">
        <ele>249.6</ele>
        <time>2021-03-29T12:31:36Z</time>
      </trkpt>
      <trkpt lat="43.33987" lon="2.58374">
        <ele>250.08</ele>
        <time>2021-03-29T12:31:40Z</time>
      </trkpt>
      <trkpt lat="43.33985" lon="2.58373">
        <ele>250.08</ele>
        <time>2021-03-29T12:31:41Z</time>
      </trkpt>
      <trkpt lat="43.33975" lon="2.58366">
        <ele>251.52</ele>
        <time>2021-03-29T12:31:52Z</time>
      </trkpt>
      <trkpt lat="43.3397" lon="2.58364">
        <ele>252</ele>
        <time>2021-03-29T12:31:58Z</time>
      </trkpt>
      <trkpt lat="43.33969" lon="2.58363">
        <ele>252.48</ele>
        <time>2021-03-29T12:31:59Z</time>
      </trkpt>
      <trkpt lat="43.33956" lon="2.58359">
        <ele>254.89</ele>
        <time>2021-03-29T12:32:13Z</time>
      </trkpt>
      <trkpt lat="43.33948" lon="2.58356">
        <ele>255.85</ele>
        <time>2021-03-29T12:32:20Z</time>
      </trkpt>
      <trkpt lat="43.33941" lon="2.58351">
        <ele>256.33</ele>
        <time>2021-03-29T12:32:26Z</time>
      </trkpt>
      <trkpt lat="43.33929" lon="2.58348">
        <ele>256.81</ele>
        <time>2021-03-29T12:32:37Z</time>
      </trkpt>
      <trkpt lat="43.33921" lon="2.58343">
        <ele>256.81</ele>
        <time>2021-03-29T12:32:45Z</time>
      </trkpt>
      <trkpt lat="43.3392" lon="2.58342">
        <ele>257.29</ele>
        <time>2021-03-29T12:32:46Z</time>
      </trkpt>
      <trkpt lat="43.33911" lon="2.58336">
        <ele>257.29</ele>
        <time>2021-03-29T12:32:57Z</time>
      </trkpt>
      <trkpt lat="43.33904" lon="2.58331">
        <ele>257.29</ele>
        <time>2021-03-29T12:33:06Z</time>
      </trkpt>
      <trkpt lat="43.33901" lon="2.5833">
        <ele>257.29</ele>
        <time>2021-03-29T12:33:08Z</time>
      </trkpt>
      <trkpt lat="43.339" lon="2.58328">
        <ele>257.29</ele>
        <time>2021-03-29T12:33:09Z</time>
      </trkpt>
      <trkpt lat="43.33898" lon="2.58326">
        <ele>257.29</ele>
        <time>2021-03-29T12:33:10Z</time>
      </trkpt>
      <trkpt lat="43.33892" lon="2.58324">
        <ele>258.25</ele>
        <time>2021-03-29T12:33:19Z</time>
      </trkpt>
      <trkpt lat="43.3389" lon="2.58323">
        <ele>258.25</ele>
        <time>2021-03-29T12:33:21Z</time>
      </trkpt>
      <trkpt lat="43.33888" lon="2.58322">
        <ele>258.25</ele>
        <time>2021-03-29T12:33:22Z</time>
      </trkpt>
      <trkpt lat="43.33884" lon="2.5832">
        <ele>259.21</ele>
        <time>2021-03-29T12:33:27Z</time>
      </trkpt>
      <trkpt lat="43.33883" lon="2.5832">
        <ele>259.21</ele>
        <time>2021-03-29T12:33:28Z</time>
      </trkpt>
      <trkpt lat="43.33881" lon="2.58319">
        <ele>259.21</ele>
        <time>2021-03-29T12:33:29Z</time>
      </trkpt>
      <trkpt lat="43.33879" lon="2.58318">
        <ele>259.21</ele>
        <time>2021-03-29T12:33:30Z</time>
      </trkpt>
      <trkpt lat="43.33878" lon="2.58318">
        <ele>259.69</ele>
        <time>2021-03-29T12:33:31Z</time>
      </trkpt>
      <trkpt lat="43.33873" lon="2.58315">
        <ele>259.69</ele>
        <time>2021-03-29T12:33:37Z</time>
      </trkpt>
      <trkpt lat="43.33869" lon="2.58312">
        <ele>259.69</ele>
        <time>2021-03-29T12:33:41Z</time>
      </trkpt>
      <trkpt lat="43.33867" lon="2.5831">
        <ele>259.69</ele>
        <time>2021-03-29T12:33:42Z</time>
      </trkpt>
      <trkpt lat="43.33865" lon="2.58309">
        <ele>259.69</ele>
        <time>2021-03-29T12:33:43Z</time>
      </trkpt>
      <trkpt lat="43.33862" lon="2.58308">
        <ele>260.17</ele>
        <time>2021-03-29T12:33:48Z</time>
      </trkpt>
      <trkpt lat="43.33861" lon="2.58307">
        <ele>260.17</ele>
        <time>2021-03-29T12:33:49Z</time>
      </trkpt>
      <trkpt lat="43.33859" lon="2.58307">
        <ele>260.17</ele>
        <time>2021-03-29T12:33:50Z</time>
      </trkpt>
      <trkpt lat="43.33858" lon="2.58307">
        <ele>260.17</ele>
        <time>2021-03-29T12:33:51Z</time>
      </trkpt>
      <trkpt lat="43.33857" lon="2.58305">
        <ele>260.17</ele>
        <time>2021-03-29T12:33:54Z</time>
      </trkpt>
      <trkpt lat="43.33856" lon="2.58304">
        <ele>260.17</ele>
        <time>2021-03-29T12:33:55Z</time>
      </trkpt>
      <trkpt lat="43.33854" lon="2.58303">
        <ele>260.65</ele>
        <time>2021-03-29T12:33:56Z</time>
      </trkpt>
      <trkpt lat="43.33848" lon="2.58301">
        <ele>261.62</ele>
        <time>2021-03-29T12:34:03Z</time>
      </trkpt>
      <trkpt lat="43.33841" lon="2.58297">
        <ele>261.62</ele>
        <time>2021-03-29T12:34:09Z</time>
      </trkpt>
      <trkpt lat="43.33839" lon="2.58297">
        <ele>261.62</ele>
        <time>2021-03-29T12:34:10Z</time>
      </trkpt>
      <trkpt lat="43.33834" lon="2.58295">
        <ele>262.1</ele>
        <time>2021-03-29T12:34:20Z</time>
      </trkpt>
      <trkpt lat="43.3382" lon="2.58288">
        <ele>265.46</ele>
        <time>2021-03-29T12:34:32Z</time>
      </trkpt>
      <trkpt lat="43.33811" lon="2.58284">
        <ele>265.94</ele>
        <time>2021-03-29T12:34:42Z</time>
      </trkpt>
      <trkpt lat="43.33803" lon="2.58274">
        <ele>267.38</ele>
        <time>2021-03-29T12:34:52Z</time>
      </trkpt>
      <trkpt lat="43.33794" lon="2.58263">
        <ele>267.38</ele>
        <time>2021-03-29T12:35:01Z</time>
      </trkpt>
      <trkpt lat="43.3379" lon="2.58261">
        <ele>267.38</ele>
        <time>2021-03-29T12:35:07Z</time>
      </trkpt>
      <trkpt lat="43.33789" lon="2.58259">
        <ele>267.38</ele>
        <time>2021-03-29T12:35:08Z</time>
      </trkpt>
      <trkpt lat="43.33781" lon="2.58244">
        <ele>267.38</ele>
        <time>2021-03-29T12:35:18Z</time>
      </trkpt>
      <trkpt lat="43.33772" lon="2.58227">
        <ele>267.38</ele>
        <time>2021-03-29T12:35:28Z</time>
      </trkpt>
      <trkpt lat="43.33769" lon="2.58224">
        <ele>265.46</ele>
        <time>2021-03-29T12:35:39Z</time>
      </trkpt>
      <trkpt lat="43.33766" lon="2.58221">
        <ele>264.98</ele>
        <time>2021-03-29T12:35:45Z</time>
      </trkpt>
      <trkpt lat="43.33765" lon="2.5822">
        <ele>264.98</ele>
        <time>2021-03-29T12:35:46Z</time>
      </trkpt>
      <trkpt lat="43.33763" lon="2.58219">
        <ele>264.5</ele>
        <time>2021-03-29T12:35:47Z</time>
      </trkpt>
      <trkpt lat="43.33762" lon="2.58217">
        <ele>264.5</ele>
        <time>2021-03-29T12:35:48Z</time>
      </trkpt>
      <trkpt lat="43.33759" lon="2.58215">
        <ele>264.02</ele>
        <time>2021-03-29T12:35:50Z</time>
      </trkpt>
      <trkpt lat="43.33758" lon="2.58213">
        <ele>264.02</ele>
        <time>2021-03-29T12:35:51Z</time>
      </trkpt>
      <trkpt lat="43.33756" lon="2.5821">
        <ele>264.02</ele>
        <time>2021-03-29T12:35:52Z</time>
      </trkpt>
      <trkpt lat="43.33755" lon="2.58207">
        <ele>264.02</ele>
        <time>2021-03-29T12:35:53Z</time>
      </trkpt>
      <trkpt lat="43.33753" lon="2.58205">
        <ele>264.02</ele>
        <time>2021-03-29T12:35:54Z</time>
      </trkpt>
      <trkpt lat="43.33753" lon="2.58202">
        <ele>264.02</ele>
        <time>2021-03-29T12:35:55Z</time>
      </trkpt>
      <trkpt lat="43.33752" lon="2.582">
        <ele>264.02</ele>
        <time>2021-03-29T12:35:56Z</time>
      </trkpt>
      <trkpt lat="43.33751" lon="2.58192">
        <ele>263.54</ele>
        <time>2021-03-29T12:36:03Z</time>
      </trkpt>
      <trkpt lat="43.33751" lon="2.58191">
        <ele>263.54</ele>
        <time>2021-03-29T12:36:04Z</time>
      </trkpt>
      <trkpt lat="43.33751" lon="2.58189">
        <ele>263.54</ele>
        <time>2021-03-29T12:36:05Z</time>
      </trkpt>
      <trkpt lat="43.33754" lon="2.58177">
        <ele>263.06</ele>
        <time>2021-03-29T12:36:16Z</time>
      </trkpt>
      <trkpt lat="43.33757" lon="2.58168">
        <ele>263.06</ele>
        <time>2021-03-29T12:36:26Z</time>
      </trkpt>
      <trkpt lat="43.33758" lon="2.58164">
        <ele>263.06</ele>
        <time>2021-03-29T12:36:29Z</time>
      </trkpt>
      <trkpt lat="43.3376" lon="2.58157">
        <ele>263.54</ele>
        <time>2021-03-29T12:36:35Z</time>
      </trkpt>
      <trkpt lat="43.33765" lon="2.58153">
        <ele>263.54</ele>
        <time>2021-03-29T12:36:41Z</time>
      </trkpt>
      <trkpt lat="43.33766" lon="2.58152">
        <ele>263.54</ele>
        <time>2021-03-29T12:36:43Z</time>
      </trkpt>
      <trkpt lat="43.33768" lon="2.58151">
        <ele>263.54</ele>
        <time>2021-03-29T12:36:47Z</time>
      </trkpt>
      <trkpt lat="43.3377" lon="2.58151">
        <ele>263.54</ele>
        <time>2021-03-29T12:36:48Z</time>
      </trkpt>
      <trkpt lat="43.33773" lon="2.58149">
        <ele>263.54</ele>
        <time>2021-03-29T12:36:59Z</time>
      </trkpt>
      <trkpt lat="43.33774" lon="2.5815">
        <ele>263.54</ele>
        <time>2021-03-29T12:37:00Z</time>
      </trkpt>
      <trkpt lat="43.33777" lon="2.58152">
        <ele>263.54</ele>
        <time>2021-03-29T12:37:05Z</time>
      </trkpt>
      <trkpt lat="43.3378" lon="2.58152">
        <ele>263.54</ele>
        <time>2021-03-29T12:37:10Z</time>
      </trkpt>
      <trkpt lat="43.33782" lon="2.58152">
        <ele>263.54</ele>
        <time>2021-03-29T12:37:11Z</time>
      </trkpt>
      <trkpt lat="43.33792" lon="2.58151">
        <ele>263.54</ele>
        <time>2021-03-29T12:37:22Z</time>
      </trkpt>
      <trkpt lat="43.33798" lon="2.58153">
        <ele>264.5</ele>
        <time>2021-03-29T12:37:30Z</time>
      </trkpt>
      <trkpt lat="43.33811" lon="2.58153">
        <ele>264.5</ele>
        <time>2021-03-29T12:37:41Z</time>
      </trkpt>
      <trkpt lat="43.33812" lon="2.58153">
        <ele>263.54</ele>
        <time>2021-03-29T12:37:44Z</time>
      </trkpt>
      <trkpt lat="43.33825" lon="2.58143">
        <ele>262.1</ele>
        <time>2021-03-29T12:37:56Z</time>
      </trkpt>
      <trkpt lat="43.33837" lon="2.58131">
        <ele>261.62</ele>
        <time>2021-03-29T12:38:08Z</time>
      </trkpt>
      <trkpt lat="43.33838" lon="2.58128">
        <ele>261.62</ele>
        <time>2021-03-29T12:38:12Z</time>
      </trkpt>
      <trkpt lat="43.33839" lon="2.58126">
        <ele>261.62</ele>
        <time>2021-03-29T12:38:13Z</time>
      </trkpt>
      <trkpt lat="43.33841" lon="2.58124">
        <ele>261.62</ele>
        <time>2021-03-29T12:38:14Z</time>
      </trkpt>
      <trkpt lat="43.33848" lon="2.58115">
        <ele>260.65</ele>
        <time>2021-03-29T12:38:24Z</time>
      </trkpt>
      <trkpt lat="43.33848" lon="2.58113">
        <ele>260.65</ele>
        <time>2021-03-29T12:38:25Z</time>
      </trkpt>
      <trkpt lat="43.33849" lon="2.58111">
        <ele>260.65</ele>
        <time>2021-03-29T12:38:26Z</time>
      </trkpt>
      <trkpt lat="43.33849" lon="2.58109">
        <ele>260.17</ele>
        <time>2021-03-29T12:38:27Z</time>
      </trkpt>
      <trkpt lat="43.3385" lon="2.58107">
        <ele>260.17</ele>
        <time>2021-03-29T12:38:29Z</time>
      </trkpt>
      <trkpt lat="43.33853" lon="2.58094">
        <ele>259.21</ele>
        <time>2021-03-29T12:38:40Z</time>
      </trkpt>
      <trkpt lat="43.33853" lon="2.58088">
        <ele>259.21</ele>
        <time>2021-03-29T12:38:44Z</time>
      </trkpt>
      <trkpt lat="43.33854" lon="2.58086">
        <ele>259.21</ele>
        <time>2021-03-29T12:38:45Z</time>
      </trkpt>
      <trkpt lat="43.33854" lon="2.5808">
        <ele>258.25</ele>
        <time>2021-03-29T12:38:53Z</time>
      </trkpt>
      <trkpt lat="43.33853" lon="2.58079">
        <ele>258.25</ele>
        <time>2021-03-29T12:38:54Z</time>
      </trkpt>
      <trkpt lat="43.33851" lon="2.58071">
        <ele>258.25</ele>
        <time>2021-03-29T12:38:57Z</time>
      </trkpt>
      <trkpt lat="43.33853" lon="2.58065">
        <ele>258.25</ele>
        <time>2021-03-29T12:38:59Z</time>
      </trkpt>
      <trkpt lat="43.33854" lon="2.58063">
        <ele>258.25</ele>
        <time>2021-03-29T12:39:00Z</time>
      </trkpt>
      <trkpt lat="43.33856" lon="2.58058">
        <ele>258.25</ele>
        <time>2021-03-29T12:39:02Z</time>
      </trkpt>
      <trkpt lat="43.33859" lon="2.58051">
        <ele>258.25</ele>
        <time>2021-03-29T12:39:10Z</time>
      </trkpt>
      <trkpt lat="43.33861" lon="2.58051">
        <ele>258.25</ele>
        <time>2021-03-29T12:39:12Z</time>
      </trkpt>
      <trkpt lat="43.33863" lon="2.58052">
        <ele>258.25</ele>
        <time>2021-03-29T12:39:14Z</time>
      </trkpt>
      <trkpt lat="43.33864" lon="2.58052">
        <ele>258.25</ele>
        <time>2021-03-29T12:39:15Z</time>
      </trkpt>
      <trkpt lat="43.33869" lon="2.58052">
        <ele>257.77</ele>
        <time>2021-03-29T12:39:21Z</time>
      </trkpt>
      <trkpt lat="43.33871" lon="2.58053">
        <ele>257.77</ele>
        <time>2021-03-29T12:39:22Z</time>
      </trkpt>
      <trkpt lat="43.33873" lon="2.58055">
        <ele>257.77</ele>
        <time>2021-03-29T12:39:23Z</time>
      </trkpt>
      <trkpt lat="43.33874" lon="2.58056">
        <ele>257.77</ele>
        <time>2021-03-29T12:39:24Z</time>
      </trkpt>
      <trkpt lat="43.33885" lon="2.58062">
        <ele>257.29</ele>
        <time>2021-03-29T12:39:34Z</time>
      </trkpt>
      <trkpt lat="43.33887" lon="2.58065">
        <ele>257.29</ele>
        <time>2021-03-29T12:39:38Z</time>
      </trkpt>
      <trkpt lat="43.33889" lon="2.58068">
        <ele>257.29</ele>
        <time>2021-03-29T12:39:40Z</time>
      </trkpt>
      <trkpt lat="43.3389" lon="2.58069">
        <ele>257.29</ele>
        <time>2021-03-29T12:39:41Z</time>
      </trkpt>
      <trkpt lat="43.33891" lon="2.5807">
        <ele>257.29</ele>
        <time>2021-03-29T12:39:42Z</time>
      </trkpt>
      <trkpt lat="43.33893" lon="2.58072">
        <ele>257.29</ele>
        <time>2021-03-29T12:39:43Z</time>
      </trkpt>
      <trkpt lat="43.33894" lon="2.58073">
        <ele>257.29</ele>
        <time>2021-03-29T12:39:44Z</time>
      </trkpt>
      <trkpt lat="43.33898" lon="2.58077">
        <ele>258.73</ele>
        <time>2021-03-29T12:39:50Z</time>
      </trkpt>
      <trkpt lat="43.33898" lon="2.58079">
        <ele>258.73</ele>
        <time>2021-03-29T12:39:51Z</time>
      </trkpt>
      <trkpt lat="43.33909" lon="2.58093">
        <ele>259.21</ele>
        <time>2021-03-29T12:40:03Z</time>
      </trkpt>
      <trkpt lat="43.3391" lon="2.58095">
        <ele>259.21</ele>
        <time>2021-03-29T12:40:05Z</time>
      </trkpt>
      <trkpt lat="43.33911" lon="2.58096">
        <ele>259.69</ele>
        <time>2021-03-29T12:40:06Z</time>
      </trkpt>
      <trkpt lat="43.33913" lon="2.58097">
        <ele>259.69</ele>
        <time>2021-03-29T12:40:07Z</time>
      </trkpt>
      <trkpt lat="43.33924" lon="2.581">
        <ele>260.17</ele>
        <time>2021-03-29T12:40:19Z</time>
      </trkpt>
      <trkpt lat="43.3394" lon="2.58092">
        <ele>259.69</ele>
        <time>2021-03-29T12:40:31Z</time>
      </trkpt>
      <trkpt lat="43.33941" lon="2.58091">
        <ele>259.69</ele>
        <time>2021-03-29T12:40:32Z</time>
      </trkpt>
      <trkpt lat="43.33943" lon="2.58096">
        <ele>259.69</ele>
        <time>2021-03-29T12:40:50Z</time>
      </trkpt>
      <trkpt lat="43.33942" lon="2.58095">
        <ele>260.17</ele>
        <time>2021-03-29T12:41:13Z</time>
      </trkpt>
      <trkpt lat="43.33942" lon="2.58095">
        <ele>260.17</ele>
        <time>2021-03-29T12:41:36Z</time>
      </trkpt>
      <trkpt lat="43.33943" lon="2.58096">
        <ele>259.69</ele>
        <time>2021-03-29T12:41:56Z</time>
      </trkpt>
      <trkpt lat="43.33944" lon="2.58095">
        <ele>260.65</ele>
        <time>2021-03-29T12:42:15Z</time>
      </trkpt>
      <trkpt lat="43.3395" lon="2.5809">
        <ele>261.62</ele>
        <time>2021-03-29T12:42:44Z</time>
      </trkpt>
      <trkpt lat="43.33959" lon="2.58089">
        <ele>261.62</ele>
        <time>2021-03-29T12:43:05Z</time>
      </trkpt>
      <trkpt lat="43.33975" lon="2.58086">
        <ele>262.1</ele>
        <time>2021-03-29T12:43:20Z</time>
      </trkpt>
      <trkpt lat="43.33994" lon="2.58072">
        <ele>263.06</ele>
        <time>2021-03-29T12:43:40Z</time>
      </trkpt>
      <trkpt lat="43.34012" lon="2.58058">
        <ele>263.54</ele>
        <time>2021-03-29T12:43:59Z</time>
      </trkpt>
      <trkpt lat="43.34034" lon="2.58041">
        <ele>264.02</ele>
        <time>2021-03-29T12:44:20Z</time>
      </trkpt>
      <trkpt lat="43.34049" lon="2.5803">
        <ele>266.42</ele>
        <time>2021-03-29T12:44:38Z</time>
      </trkpt>
      <trkpt lat="43.34065" lon="2.58021">
        <ele>268.35</ele>
        <time>2021-03-29T12:44:55Z</time>
      </trkpt>
      <trkpt lat="43.34066" lon="2.58019">
        <ele>268.35</ele>
        <time>2021-03-29T12:44:56Z</time>
      </trkpt>
      <trkpt lat="43.34072" lon="2.58011">
        <ele>268.35</ele>
        <time>2021-03-29T12:45:05Z</time>
      </trkpt>
      <trkpt lat="43.34073" lon="2.58006">
        <ele>268.35</ele>
        <time>2021-03-29T12:45:14Z</time>
      </trkpt>
      <trkpt lat="43.34074" lon="2.58002">
        <ele>268.35</ele>
        <time>2021-03-29T12:45:17Z</time>
      </trkpt>
      <trkpt lat="43.34074" lon="2.57999">
        <ele>268.35</ele>
        <time>2021-03-29T12:45:18Z</time>
      </trkpt>
      <trkpt lat="43.34075" lon="2.57997">
        <ele>268.35</ele>
        <time>2021-03-29T12:45:19Z</time>
      </trkpt>
      <trkpt lat="43.34075" lon="2.57995">
        <ele>268.35</ele>
        <time>2021-03-29T12:45:20Z</time>
      </trkpt>
      <trkpt lat="43.34075" lon="2.57993">
        <ele>268.35</ele>
        <time>2021-03-29T12:45:21Z</time>
      </trkpt>
      <trkpt lat="43.34074" lon="2.57988">
        <ele>268.35</ele>
        <time>2021-03-29T12:45:26Z</time>
      </trkpt>
      <trkpt lat="43.34074" lon="2.57986">
        <ele>268.35</ele>
        <time>2021-03-29T12:45:27Z</time>
      </trkpt>
      <trkpt lat="43.34073" lon="2.57984">
        <ele>268.35</ele>
        <time>2021-03-29T12:45:28Z</time>
      </trkpt>
      <trkpt lat="43.34072" lon="2.57982">
        <ele>268.35</ele>
        <time>2021-03-29T12:45:29Z</time>
      </trkpt>
      <trkpt lat="43.3407" lon="2.5798">
        <ele>268.35</ele>
        <time>2021-03-29T12:45:30Z</time>
      </trkpt>
      <trkpt lat="43.34069" lon="2.57978">
        <ele>268.35</ele>
        <time>2021-03-29T12:45:31Z</time>
      </trkpt>
      <trkpt lat="43.34068" lon="2.57976">
        <ele>268.35</ele>
        <time>2021-03-29T12:45:32Z</time>
      </trkpt>
      <trkpt lat="43.34068" lon="2.57975">
        <ele>268.35</ele>
        <time>2021-03-29T12:45:33Z</time>
      </trkpt>
      <trkpt lat="43.34064" lon="2.57973">
        <ele>268.35</ele>
        <time>2021-03-29T12:45:38Z</time>
      </trkpt>
      <trkpt lat="43.34063" lon="2.57972">
        <ele>268.35</ele>
        <time>2021-03-29T12:45:39Z</time>
      </trkpt>
      <trkpt lat="43.3405" lon="2.57965">
        <ele>268.35</ele>
        <time>2021-03-29T12:45:51Z</time>
      </trkpt>
      <trkpt lat="43.34049" lon="2.57965">
        <ele>268.35</ele>
        <time>2021-03-29T12:45:52Z</time>
      </trkpt>
      <trkpt lat="43.34047" lon="2.57965">
        <ele>268.35</ele>
        <time>2021-03-29T12:45:53Z</time>
      </trkpt>
      <trkpt lat="43.34046" lon="2.57965">
        <ele>268.35</ele>
        <time>2021-03-29T12:45:54Z</time>
      </trkpt>
      <trkpt lat="43.34044" lon="2.57965">
        <ele>268.35</ele>
        <time>2021-03-29T12:45:55Z</time>
      </trkpt>
      <trkpt lat="43.34043" lon="2.57965">
        <ele>268.35</ele>
        <time>2021-03-29T12:45:56Z</time>
      </trkpt>
      <trkpt lat="43.3404" lon="2.57966">
        <ele>268.35</ele>
        <time>2021-03-29T12:46:01Z</time>
      </trkpt>
      <trkpt lat="43.34038" lon="2.57967">
        <ele>268.35</ele>
        <time>2021-03-29T12:46:02Z</time>
      </trkpt>
      <trkpt lat="43.34029" lon="2.57969">
        <ele>268.83</ele>
        <time>2021-03-29T12:46:11Z</time>
      </trkpt>
      <trkpt lat="43.34027" lon="2.57971">
        <ele>268.83</ele>
        <time>2021-03-29T12:46:13Z</time>
      </trkpt>
      <trkpt lat="43.34025" lon="2.57972">
        <ele>268.83</ele>
        <time>2021-03-29T12:46:14Z</time>
      </trkpt>
      <trkpt lat="43.34024" lon="2.57973">
        <ele>268.83</ele>
        <time>2021-03-29T12:46:15Z</time>
      </trkpt>
      <trkpt lat="43.34022" lon="2.57974">
        <ele>268.83</ele>
        <time>2021-03-29T12:46:16Z</time>
      </trkpt>
      <trkpt lat="43.34021" lon="2.57974">
        <ele>268.83</ele>
        <time>2021-03-29T12:46:17Z</time>
      </trkpt>
      <trkpt lat="43.34014" lon="2.57976">
        <ele>268.83</ele>
        <time>2021-03-29T12:46:25Z</time>
      </trkpt>
      <trkpt lat="43.34012" lon="2.57977">
        <ele>268.83</ele>
        <time>2021-03-29T12:46:26Z</time>
      </trkpt>
      <trkpt lat="43.34011" lon="2.57978">
        <ele>268.83</ele>
        <time>2021-03-29T12:46:27Z</time>
      </trkpt>
      <trkpt lat="43.34009" lon="2.57979">
        <ele>269.31</ele>
        <time>2021-03-29T12:46:28Z</time>
      </trkpt>
      <trkpt lat="43.34007" lon="2.57979">
        <ele>268.83</ele>
        <time>2021-03-29T12:46:29Z</time>
      </trkpt>
      <trkpt lat="43.33996" lon="2.57983">
        <ele>269.31</ele>
        <time>2021-03-29T12:46:40Z</time>
      </trkpt>
      <trkpt lat="43.33983" lon="2.57989">
        <ele>269.31</ele>
        <time>2021-03-29T12:46:51Z</time>
      </trkpt>
      <trkpt lat="43.33972" lon="2.57993">
        <ele>269.31</ele>
        <time>2021-03-29T12:47:01Z</time>
      </trkpt>
      <trkpt lat="43.33959" lon="2.57998">
        <ele>269.79</ele>
        <time>2021-03-29T12:47:13Z</time>
      </trkpt>
      <trkpt lat="43.33954" lon="2.58">
        <ele>269.79</ele>
        <time>2021-03-29T12:47:19Z</time>
      </trkpt>
      <trkpt lat="43.33952" lon="2.57999">
        <ele>269.79</ele>
        <time>2021-03-29T12:47:20Z</time>
      </trkpt>
      <trkpt lat="43.33949" lon="2.57998">
        <ele>269.79</ele>
        <time>2021-03-29T12:47:21Z</time>
      </trkpt>
      <trkpt lat="43.33947" lon="2.57998">
        <ele>269.79</ele>
        <time>2021-03-29T12:47:22Z</time>
      </trkpt>
      <trkpt lat="43.33945" lon="2.57998">
        <ele>269.79</ele>
        <time>2021-03-29T12:47:23Z</time>
      </trkpt>
      <trkpt lat="43.33943" lon="2.57998">
        <ele>269.79</ele>
        <time>2021-03-29T12:47:24Z</time>
      </trkpt>
      <trkpt lat="43.33941" lon="2.57998">
        <ele>269.79</ele>
        <time>2021-03-29T12:47:25Z</time>
      </trkpt>
      <trkpt lat="43.33938" lon="2.58001">
        <ele>269.79</ele>
        <time>2021-03-29T12:47:30Z</time>
      </trkpt>
      <trkpt lat="43.33937" lon="2.58001">
        <ele>269.79</ele>
        <time>2021-03-29T12:47:31Z</time>
      </trkpt>
      <trkpt lat="43.33935" lon="2.58001">
        <ele>269.79</ele>
        <time>2021-03-29T12:47:32Z</time>
      </trkpt>
      <trkpt lat="43.33923" lon="2.58002">
        <ele>269.79</ele>
        <time>2021-03-29T12:47:42Z</time>
      </trkpt>
      <trkpt lat="43.33921" lon="2.58002">
        <ele>269.79</ele>
        <time>2021-03-29T12:47:43Z</time>
      </trkpt>
      <trkpt lat="43.33919" lon="2.58001">
        <ele>269.79</ele>
        <time>2021-03-29T12:47:44Z</time>
      </trkpt>
      <trkpt lat="43.33917" lon="2.58001">
        <ele>269.79</ele>
        <time>2021-03-29T12:47:45Z</time>
      </trkpt>
      <trkpt lat="43.33915" lon="2.58001">
        <ele>269.79</ele>
        <time>2021-03-29T12:47:46Z</time>
      </trkpt>
      <trkpt lat="43.33902" lon="2.57994">
        <ele>270.27</ele>
        <time>2021-03-29T12:47:58Z</time>
      </trkpt>
      <trkpt lat="43.33898" lon="2.57991">
        <ele>271.23</ele>
        <time>2021-03-29T12:48:04Z</time>
      </trkpt>
      <trkpt lat="43.33891" lon="2.57988">
        <ele>271.23</ele>
        <time>2021-03-29T12:48:08Z</time>
      </trkpt>
      <trkpt lat="43.33878" lon="2.57986">
        <ele>271.23</ele>
        <time>2021-03-29T12:48:17Z</time>
      </trkpt>
      <trkpt lat="43.33875" lon="2.57985">
        <ele>271.23</ele>
        <time>2021-03-29T12:48:21Z</time>
      </trkpt>
      <trkpt lat="43.33863" lon="2.57976">
        <ele>271.71</ele>
        <time>2021-03-29T12:48:31Z</time>
      </trkpt>
      <trkpt lat="43.33862" lon="2.57974">
        <ele>272.19</ele>
        <time>2021-03-29T12:48:34Z</time>
      </trkpt>
      <trkpt lat="43.3386" lon="2.57973">
        <ele>272.19</ele>
        <time>2021-03-29T12:48:35Z</time>
      </trkpt>
      <trkpt lat="43.33859" lon="2.57971">
        <ele>272.19</ele>
        <time>2021-03-29T12:48:36Z</time>
      </trkpt>
      <trkpt lat="43.33858" lon="2.5797">
        <ele>272.19</ele>
        <time>2021-03-29T12:48:37Z</time>
      </trkpt>
      <trkpt lat="43.33856" lon="2.57968">
        <ele>272.67</ele>
        <time>2021-03-29T12:48:41Z</time>
      </trkpt>
      <trkpt lat="43.33848" lon="2.57956">
        <ele>273.15</ele>
        <time>2021-03-29T12:48:52Z</time>
      </trkpt>
      <trkpt lat="43.33847" lon="2.57953">
        <ele>273.15</ele>
        <time>2021-03-29T12:48:57Z</time>
      </trkpt>
      <trkpt lat="43.33846" lon="2.57952">
        <ele>273.15</ele>
        <time>2021-03-29T12:48:58Z</time>
      </trkpt>
      <trkpt lat="43.33845" lon="2.57951">
        <ele>273.15</ele>
        <time>2021-03-29T12:48:59Z</time>
      </trkpt>
      <trkpt lat="43.33839" lon="2.57937">
        <ele>274.11</ele>
        <time>2021-03-29T12:49:09Z</time>
      </trkpt>
      <trkpt lat="43.33837" lon="2.57933">
        <ele>274.59</ele>
        <time>2021-03-29T12:49:14Z</time>
      </trkpt>
      <trkpt lat="43.33837" lon="2.57931">
        <ele>274.59</ele>
        <time>2021-03-29T12:49:15Z</time>
      </trkpt>
      <trkpt lat="43.33835" lon="2.57924">
        <ele>275.07</ele>
        <time>2021-03-29T12:49:21Z</time>
      </trkpt>
      <trkpt lat="43.33834" lon="2.57922">
        <ele>275.07</ele>
        <time>2021-03-29T12:49:22Z</time>
      </trkpt>
      <trkpt lat="43.33833" lon="2.5792">
        <ele>275.07</ele>
        <time>2021-03-29T12:49:23Z</time>
      </trkpt>
      <trkpt lat="43.33828" lon="2.57901">
        <ele>276.04</ele>
        <time>2021-03-29T12:49:35Z</time>
      </trkpt>
      <trkpt lat="43.33826" lon="2.57892">
        <ele>276.52</ele>
        <time>2021-03-29T12:49:40Z</time>
      </trkpt>
      <trkpt lat="43.33826" lon="2.57887">
        <ele>277</ele>
        <time>2021-03-29T12:49:45Z</time>
      </trkpt>
      <trkpt lat="43.33827" lon="2.57884">
        <ele>277</ele>
        <time>2021-03-29T12:49:46Z</time>
      </trkpt>
      <trkpt lat="43.33828" lon="2.57882">
        <ele>277</ele>
        <time>2021-03-29T12:49:47Z</time>
      </trkpt>
      <trkpt lat="43.33828" lon="2.5788">
        <ele>277</ele>
        <time>2021-03-29T12:49:48Z</time>
      </trkpt>
      <trkpt lat="43.3383" lon="2.57878">
        <ele>277</ele>
        <time>2021-03-29T12:49:49Z</time>
      </trkpt>
      <trkpt lat="43.33833" lon="2.57874">
        <ele>277</ele>
        <time>2021-03-29T12:49:54Z</time>
      </trkpt>
      <trkpt lat="43.33834" lon="2.57872">
        <ele>277.48</ele>
        <time>2021-03-29T12:49:55Z</time>
      </trkpt>
      <trkpt lat="43.33834" lon="2.57865">
        <ele>278.92</ele>
        <time>2021-03-29T12:50:00Z</time>
      </trkpt>
      <trkpt lat="43.33834" lon="2.57863">
        <ele>278.92</ele>
        <time>2021-03-29T12:50:01Z</time>
      </trkpt>
      <trkpt lat="43.33833" lon="2.57856">
        <ele>279.4</ele>
        <time>2021-03-29T12:50:08Z</time>
      </trkpt>
      <trkpt lat="43.33831" lon="2.57853">
        <ele>279.4</ele>
        <time>2021-03-29T12:50:09Z</time>
      </trkpt>
      <trkpt lat="43.33821" lon="2.57845">
        <ele>279.4</ele>
        <time>2021-03-29T12:50:21Z</time>
      </trkpt>
      <trkpt lat="43.3382" lon="2.57846">
        <ele>279.4</ele>
        <time>2021-03-29T12:50:23Z</time>
      </trkpt>
      <trkpt lat="43.33818" lon="2.57846">
        <ele>279.4</ele>
        <time>2021-03-29T12:50:24Z</time>
      </trkpt>
      <trkpt lat="43.33817" lon="2.57846">
        <ele>279.4</ele>
        <time>2021-03-29T12:50:25Z</time>
      </trkpt>
      <trkpt lat="43.33815" lon="2.57845">
        <ele>279.4</ele>
        <time>2021-03-29T12:50:26Z</time>
      </trkpt>
      <trkpt lat="43.33813" lon="2.57845">
        <ele>279.4</ele>
        <time>2021-03-29T12:50:27Z</time>
      </trkpt>
      <trkpt lat="43.33811" lon="2.57845">
        <ele>279.4</ele>
        <time>2021-03-29T12:50:28Z</time>
      </trkpt>
      <trkpt lat="43.338" lon="2.57844">
        <ele>279.4</ele>
        <time>2021-03-29T12:50:37Z</time>
      </trkpt>
      <trkpt lat="43.33784" lon="2.57845">
        <ele>277.96</ele>
        <time>2021-03-29T12:50:50Z</time>
      </trkpt>
      <trkpt lat="43.33778" lon="2.57846">
        <ele>277.48</ele>
        <time>2021-03-29T12:51:01Z</time>
      </trkpt>
      <trkpt lat="43.33776" lon="2.57847">
        <ele>277.48</ele>
        <time>2021-03-29T12:51:04Z</time>
      </trkpt>
      <trkpt lat="43.33775" lon="2.57849">
        <ele>277.48</ele>
        <time>2021-03-29T12:51:05Z</time>
      </trkpt>
      <trkpt lat="43.33766" lon="2.57858">
        <ele>277</ele>
        <time>2021-03-29T12:51:14Z</time>
      </trkpt>
      <trkpt lat="43.33763" lon="2.57865">
        <ele>277</ele>
        <time>2021-03-29T12:51:20Z</time>
      </trkpt>
      <trkpt lat="43.33762" lon="2.57867">
        <ele>277</ele>
        <time>2021-03-29T12:51:21Z</time>
      </trkpt>
      <trkpt lat="43.33761" lon="2.5787">
        <ele>277</ele>
        <time>2021-03-29T12:51:22Z</time>
      </trkpt>
      <trkpt lat="43.33759" lon="2.57871">
        <ele>277</ele>
        <time>2021-03-29T12:51:23Z</time>
      </trkpt>
      <trkpt lat="43.33758" lon="2.57876">
        <ele>277</ele>
        <time>2021-03-29T12:51:30Z</time>
      </trkpt>
      <trkpt lat="43.33756" lon="2.57878">
        <ele>277</ele>
        <time>2021-03-29T12:51:31Z</time>
      </trkpt>
      <trkpt lat="43.33754" lon="2.57879">
        <ele>277</ele>
        <time>2021-03-29T12:51:32Z</time>
      </trkpt>
      <trkpt lat="43.33751" lon="2.57883">
        <ele>275.56</ele>
        <time>2021-03-29T12:51:38Z</time>
      </trkpt>
      <trkpt lat="43.33738" lon="2.57883">
        <ele>275.56</ele>
        <time>2021-03-29T12:51:47Z</time>
      </trkpt>
      <trkpt lat="43.33732" lon="2.57878">
        <ele>275.56</ele>
        <time>2021-03-29T12:51:54Z</time>
      </trkpt>
      <trkpt lat="43.3373" lon="2.57875">
        <ele>275.56</ele>
        <time>2021-03-29T12:51:58Z</time>
      </trkpt>
      <trkpt lat="43.33729" lon="2.57872">
        <ele>275.07</ele>
        <time>2021-03-29T12:52:00Z</time>
      </trkpt>
      <trkpt lat="43.33724" lon="2.57854">
        <ele>275.07</ele>
        <time>2021-03-29T12:52:10Z</time>
      </trkpt>
      <trkpt lat="43.33723" lon="2.57852">
        <ele>275.07</ele>
        <time>2021-03-29T12:52:14Z</time>
      </trkpt>
      <trkpt lat="43.33722" lon="2.5785">
        <ele>275.07</ele>
        <time>2021-03-29T12:52:15Z</time>
      </trkpt>
      <trkpt lat="43.33722" lon="2.57848">
        <ele>275.07</ele>
        <time>2021-03-29T12:52:16Z</time>
      </trkpt>
      <trkpt lat="43.33722" lon="2.57845">
        <ele>275.07</ele>
        <time>2021-03-29T12:52:17Z</time>
      </trkpt>
      <trkpt lat="43.33721" lon="2.57843">
        <ele>275.07</ele>
        <time>2021-03-29T12:52:18Z</time>
      </trkpt>
      <trkpt lat="43.3372" lon="2.57837">
        <ele>274.59</ele>
        <time>2021-03-29T12:52:21Z</time>
      </trkpt>
      <trkpt lat="43.33718" lon="2.57835">
        <ele>274.11</ele>
        <time>2021-03-29T12:52:25Z</time>
      </trkpt>
      <trkpt lat="43.33717" lon="2.57832">
        <ele>274.11</ele>
        <time>2021-03-29T12:52:27Z</time>
      </trkpt>
      <trkpt lat="43.33717" lon="2.5783">
        <ele>274.11</ele>
        <time>2021-03-29T12:52:28Z</time>
      </trkpt>
      <trkpt lat="43.33716" lon="2.57829">
        <ele>274.11</ele>
        <time>2021-03-29T12:52:29Z</time>
      </trkpt>
      <trkpt lat="43.33712" lon="2.57816">
        <ele>274.11</ele>
        <time>2021-03-29T12:52:40Z</time>
      </trkpt>
      <trkpt lat="43.33712" lon="2.57809">
        <ele>274.11</ele>
        <time>2021-03-29T12:52:46Z</time>
      </trkpt>
      <trkpt lat="43.33712" lon="2.57807">
        <ele>274.11</ele>
        <time>2021-03-29T12:52:47Z</time>
      </trkpt>
      <trkpt lat="43.33713" lon="2.57804">
        <ele>273.63</ele>
        <time>2021-03-29T12:52:48Z</time>
      </trkpt>
      <trkpt lat="43.33716" lon="2.57791">
        <ele>273.63</ele>
        <time>2021-03-29T12:52:58Z</time>
      </trkpt>
      <trkpt lat="43.33716" lon="2.5779">
        <ele>273.63</ele>
        <time>2021-03-29T12:52:59Z</time>
      </trkpt>
      <trkpt lat="43.33718" lon="2.57786">
        <ele>273.63</ele>
        <time>2021-03-29T12:53:03Z</time>
      </trkpt>
      <trkpt lat="43.33721" lon="2.57783">
        <ele>273.63</ele>
        <time>2021-03-29T12:53:08Z</time>
      </trkpt>
      <trkpt lat="43.33723" lon="2.57781">
        <ele>273.63</ele>
        <time>2021-03-29T12:53:10Z</time>
      </trkpt>
      <trkpt lat="43.33724" lon="2.57779">
        <ele>273.63</ele>
        <time>2021-03-29T12:53:11Z</time>
      </trkpt>
      <trkpt lat="43.33727" lon="2.57776">
        <ele>275.07</ele>
        <time>2021-03-29T12:53:15Z</time>
      </trkpt>
      <trkpt lat="43.33728" lon="2.57774">
        <ele>275.07</ele>
        <time>2021-03-29T12:53:16Z</time>
      </trkpt>
      <trkpt lat="43.33734" lon="2.57759">
        <ele>275.56</ele>
        <time>2021-03-29T12:53:28Z</time>
      </trkpt>
      <trkpt lat="43.33735" lon="2.57757">
        <ele>275.56</ele>
        <time>2021-03-29T12:53:31Z</time>
      </trkpt>
      <trkpt lat="43.33736" lon="2.57756">
        <ele>275.56</ele>
        <time>2021-03-29T12:53:32Z</time>
      </trkpt>
      <trkpt lat="43.33738" lon="2.57751">
        <ele>276.04</ele>
        <time>2021-03-29T12:53:37Z</time>
      </trkpt>
      <trkpt lat="43.33738" lon="2.57749">
        <ele>276.04</ele>
        <time>2021-03-29T12:53:38Z</time>
      </trkpt>
      <trkpt lat="43.33739" lon="2.57748">
        <ele>276.04</ele>
        <time>2021-03-29T12:53:39Z</time>
      </trkpt>
      <trkpt lat="43.3374" lon="2.57745">
        <ele>276.04</ele>
        <time>2021-03-29T12:53:42Z</time>
      </trkpt>
      <trkpt lat="43.33741" lon="2.57744">
        <ele>276.04</ele>
        <time>2021-03-29T12:53:43Z</time>
      </trkpt>
      <trkpt lat="43.33743" lon="2.57742">
        <ele>276.04</ele>
        <time>2021-03-29T12:53:44Z</time>
      </trkpt>
      <trkpt lat="43.33744" lon="2.5774">
        <ele>276.04</ele>
        <time>2021-03-29T12:53:45Z</time>
      </trkpt>
      <trkpt lat="43.33746" lon="2.57736">
        <ele>276.04</ele>
        <time>2021-03-29T12:53:49Z</time>
      </trkpt>
      <trkpt lat="43.33746" lon="2.57734">
        <ele>276.04</ele>
        <time>2021-03-29T12:53:50Z</time>
      </trkpt>
      <trkpt lat="43.33748" lon="2.57732">
        <ele>276.04</ele>
        <time>2021-03-29T12:53:51Z</time>
      </trkpt>
      <trkpt lat="43.3375" lon="2.57731">
        <ele>276.52</ele>
        <time>2021-03-29T12:53:54Z</time>
      </trkpt>
      <trkpt lat="43.33751" lon="2.57729">
        <ele>276.52</ele>
        <time>2021-03-29T12:53:56Z</time>
      </trkpt>
      <trkpt lat="43.33752" lon="2.57728">
        <ele>276.52</ele>
        <time>2021-03-29T12:53:57Z</time>
      </trkpt>
      <trkpt lat="43.33753" lon="2.57726">
        <ele>276.52</ele>
        <time>2021-03-29T12:53:58Z</time>
      </trkpt>
      <trkpt lat="43.33756" lon="2.57721">
        <ele>276.52</ele>
        <time>2021-03-29T12:54:04Z</time>
      </trkpt>
      <trkpt lat="43.33758" lon="2.57716">
        <ele>277</ele>
        <time>2021-03-29T12:54:07Z</time>
      </trkpt>
      <trkpt lat="43.3376" lon="2.57711">
        <ele>277.48</ele>
        <time>2021-03-29T12:54:11Z</time>
      </trkpt>
      <trkpt lat="43.3376" lon="2.57709">
        <ele>277.48</ele>
        <time>2021-03-29T12:54:12Z</time>
      </trkpt>
      <trkpt lat="43.33763" lon="2.577">
        <ele>277.96</ele>
        <time>2021-03-29T12:54:19Z</time>
      </trkpt>
      <trkpt lat="43.33763" lon="2.57698">
        <ele>277.96</ele>
        <time>2021-03-29T12:54:20Z</time>
      </trkpt>
      <trkpt lat="43.33764" lon="2.57695">
        <ele>277.96</ele>
        <time>2021-03-29T12:54:21Z</time>
      </trkpt>
      <trkpt lat="43.33763" lon="2.57687">
        <ele>278.44</ele>
        <time>2021-03-29T12:54:27Z</time>
      </trkpt>
      <trkpt lat="43.3376" lon="2.57676">
        <ele>277.96</ele>
        <time>2021-03-29T12:54:34Z</time>
      </trkpt>
      <trkpt lat="43.33758" lon="2.57674">
        <ele>278.44</ele>
        <time>2021-03-29T12:54:36Z</time>
      </trkpt>
      <trkpt lat="43.33755" lon="2.57667">
        <ele>278.44</ele>
        <time>2021-03-29T12:54:42Z</time>
      </trkpt>
      <trkpt lat="43.33753" lon="2.57665">
        <ele>278.44</ele>
        <time>2021-03-29T12:54:43Z</time>
      </trkpt>
      <trkpt lat="43.33751" lon="2.57662">
        <ele>278.44</ele>
        <time>2021-03-29T12:54:46Z</time>
      </trkpt>
      <trkpt lat="43.3375" lon="2.57661">
        <ele>278.44</ele>
        <time>2021-03-29T12:54:47Z</time>
      </trkpt>
      <trkpt lat="43.33736" lon="2.57648">
        <ele>278.92</ele>
        <time>2021-03-29T12:55:03Z</time>
      </trkpt>
      <trkpt lat="43.33734" lon="2.57646">
        <ele>279.4</ele>
        <time>2021-03-29T12:55:14Z</time>
      </trkpt>
      <trkpt lat="43.3373" lon="2.57642">
        <ele>279.4</ele>
        <time>2021-03-29T12:55:27Z</time>
      </trkpt>
      <trkpt lat="43.33728" lon="2.57643">
        <ele>277.96</ele>
        <time>2021-03-29T12:55:48Z</time>
      </trkpt>
      <trkpt lat="43.33725" lon="2.57642">
        <ele>279.4</ele>
        <time>2021-03-29T12:55:55Z</time>
      </trkpt>
      <trkpt lat="43.33725" lon="2.57644">
        <ele>277.96</ele>
        <time>2021-03-29T12:56:02Z</time>
      </trkpt>
      <trkpt lat="43.33718" lon="2.57635">
        <ele>277.96</ele>
        <time>2021-03-29T12:56:14Z</time>
      </trkpt>
      <trkpt lat="43.33719" lon="2.57618">
        <ele>277.96</ele>
        <time>2021-03-29T12:56:24Z</time>
      </trkpt>
      <trkpt lat="43.33726" lon="2.57592">
        <ele>277.96</ele>
        <time>2021-03-29T12:56:39Z</time>
      </trkpt>
      <trkpt lat="43.33729" lon="2.57587">
        <ele>278.92</ele>
        <time>2021-03-29T12:56:49Z</time>
      </trkpt>
      <trkpt lat="43.33726" lon="2.5759">
        <ele>277.48</ele>
        <time>2021-03-29T12:56:58Z</time>
      </trkpt>
      <trkpt lat="43.33725" lon="2.57593">
        <ele>278.92</ele>
        <time>2021-03-29T12:57:08Z</time>
      </trkpt>
      <trkpt lat="43.33721" lon="2.57597">
        <ele>278.92</ele>
        <time>2021-03-29T12:57:23Z</time>
      </trkpt>
      <trkpt lat="43.3372" lon="2.57597">
        <ele>278.92</ele>
        <time>2021-03-29T12:57:40Z</time>
      </trkpt>
      <trkpt lat="43.33718" lon="2.57602">
        <ele>278.92</ele>
        <time>2021-03-29T12:57:56Z</time>
      </trkpt>
      <trkpt lat="43.33714" lon="2.57606">
        <ele>279.4</ele>
        <time>2021-03-29T12:58:20Z</time>
      </trkpt>
      <trkpt lat="43.33719" lon="2.576">
        <ele>277.96</ele>
        <time>2021-03-29T12:58:22Z</time>
      </trkpt>
      <trkpt lat="43.33733" lon="2.57583">
        <ele>278.92</ele>
        <time>2021-03-29T12:58:35Z</time>
      </trkpt>
      <trkpt lat="43.33735" lon="2.5758">
        <ele>279.88</ele>
        <time>2021-03-29T12:58:41Z</time>
      </trkpt>
      <trkpt lat="43.33736" lon="2.57579">
        <ele>279.88</ele>
        <time>2021-03-29T12:58:50Z</time>
      </trkpt>
      <trkpt lat="43.33737" lon="2.57579">
        <ele>278.44</ele>
        <time>2021-03-29T12:58:51Z</time>
      </trkpt>
      <trkpt lat="43.33738" lon="2.57579">
        <ele>278.44</ele>
        <time>2021-03-29T12:58:52Z</time>
      </trkpt>
      <trkpt lat="43.33742" lon="2.57577">
        <ele>278.44</ele>
        <time>2021-03-29T12:58:56Z</time>
      </trkpt>
      <trkpt lat="43.33744" lon="2.57576">
        <ele>278.44</ele>
        <time>2021-03-29T12:58:57Z</time>
      </trkpt>
      <trkpt lat="43.33745" lon="2.57576">
        <ele>278.44</ele>
        <time>2021-03-29T12:58:58Z</time>
      </trkpt>
      <trkpt lat="43.33748" lon="2.57574">
        <ele>278.44</ele>
        <time>2021-03-29T12:59:01Z</time>
      </trkpt>
      <trkpt lat="43.33749" lon="2.57574">
        <ele>279.88</ele>
        <time>2021-03-29T12:59:02Z</time>
      </trkpt>
      <trkpt lat="43.33751" lon="2.57573">
        <ele>279.88</ele>
        <time>2021-03-29T12:59:03Z</time>
      </trkpt>
      <trkpt lat="43.33753" lon="2.57573">
        <ele>280.36</ele>
        <time>2021-03-29T12:59:04Z</time>
      </trkpt>
      <trkpt lat="43.33755" lon="2.57573">
        <ele>280.36</ele>
        <time>2021-03-29T12:59:05Z</time>
      </trkpt>
      <trkpt lat="43.33762" lon="2.57573">
        <ele>280.84</ele>
        <time>2021-03-29T12:59:16Z</time>
      </trkpt>
      <trkpt lat="43.33764" lon="2.57573">
        <ele>280.84</ele>
        <time>2021-03-29T12:59:18Z</time>
      </trkpt>
      <trkpt lat="43.33767" lon="2.57572">
        <ele>280.36</ele>
        <time>2021-03-29T12:59:25Z</time>
      </trkpt>
      <trkpt lat="43.33768" lon="2.57572">
        <ele>280.36</ele>
        <time>2021-03-29T12:59:27Z</time>
      </trkpt>
      <trkpt lat="43.3377" lon="2.57572">
        <ele>278.92</ele>
        <time>2021-03-29T12:59:28Z</time>
      </trkpt>
      <trkpt lat="43.33771" lon="2.57572">
        <ele>278.92</ele>
        <time>2021-03-29T12:59:29Z</time>
      </trkpt>
      <trkpt lat="43.33775" lon="2.57572">
        <ele>278.92</ele>
        <time>2021-03-29T12:59:34Z</time>
      </trkpt>
      <trkpt lat="43.33776" lon="2.57572">
        <ele>278.92</ele>
        <time>2021-03-29T12:59:35Z</time>
      </trkpt>
      <trkpt lat="43.3378" lon="2.57572">
        <ele>278.92</ele>
        <time>2021-03-29T12:59:39Z</time>
      </trkpt>
      <trkpt lat="43.33781" lon="2.57572">
        <ele>278.44</ele>
        <time>2021-03-29T12:59:40Z</time>
      </trkpt>
      <trkpt lat="43.33784" lon="2.5757">
        <ele>278.92</ele>
        <time>2021-03-29T12:59:44Z</time>
      </trkpt>
      <trkpt lat="43.33786" lon="2.57569">
        <ele>278.92</ele>
        <time>2021-03-29T12:59:45Z</time>
      </trkpt>
      <trkpt lat="43.33787" lon="2.57568">
        <ele>278.92</ele>
        <time>2021-03-29T12:59:46Z</time>
      </trkpt>
      <trkpt lat="43.33789" lon="2.57568">
        <ele>278.92</ele>
        <time>2021-03-29T12:59:47Z</time>
      </trkpt>
      <trkpt lat="43.3379" lon="2.57568">
        <ele>278.92</ele>
        <time>2021-03-29T12:59:48Z</time>
      </trkpt>
      <trkpt lat="43.33794" lon="2.57565">
        <ele>279.88</ele>
        <time>2021-03-29T12:59:54Z</time>
      </trkpt>
      <trkpt lat="43.33795" lon="2.57565">
        <ele>280.36</ele>
        <time>2021-03-29T12:59:55Z</time>
      </trkpt>
      <trkpt lat="43.33808" lon="2.57561">
        <ele>281.32</ele>
        <time>2021-03-29T13:00:07Z</time>
      </trkpt>
      <trkpt lat="43.33809" lon="2.57561">
        <ele>281.32</ele>
        <time>2021-03-29T13:00:08Z</time>
      </trkpt>
      <trkpt lat="43.33811" lon="2.5756">
        <ele>281.32</ele>
        <time>2021-03-29T13:00:09Z</time>
      </trkpt>
      <trkpt lat="43.33824" lon="2.57549">
        <ele>282.77</ele>
        <time>2021-03-29T13:00:21Z</time>
      </trkpt>
      <trkpt lat="43.3383" lon="2.57537">
        <ele>282.77</ele>
        <time>2021-03-29T13:00:31Z</time>
      </trkpt>
      <trkpt lat="43.33838" lon="2.57524">
        <ele>283.25</ele>
        <time>2021-03-29T13:00:45Z</time>
      </trkpt>
      <trkpt lat="43.33846" lon="2.57515">
        <ele>284.69</ele>
        <time>2021-03-29T13:00:55Z</time>
      </trkpt>
      <trkpt lat="43.33845" lon="2.57513">
        <ele>284.21</ele>
        <time>2021-03-29T13:00:59Z</time>
      </trkpt>
      <trkpt lat="43.33846" lon="2.57512">
        <ele>284.21</ele>
        <time>2021-03-29T13:01:02Z</time>
      </trkpt>
      <trkpt lat="43.33847" lon="2.5751">
        <ele>285.65</ele>
        <time>2021-03-29T13:01:03Z</time>
      </trkpt>
      <trkpt lat="43.33848" lon="2.57509">
        <ele>285.65</ele>
        <time>2021-03-29T13:01:04Z</time>
      </trkpt>
      <trkpt lat="43.33851" lon="2.57506">
        <ele>286.13</ele>
        <time>2021-03-29T13:01:08Z</time>
      </trkpt>
      <trkpt lat="43.33855" lon="2.57502">
        <ele>286.13</ele>
        <time>2021-03-29T13:01:17Z</time>
      </trkpt>
      <trkpt lat="43.33861" lon="2.57498">
        <ele>286.61</ele>
        <time>2021-03-29T13:01:25Z</time>
      </trkpt>
      <trkpt lat="43.33862" lon="2.57497">
        <ele>286.61</ele>
        <time>2021-03-29T13:01:26Z</time>
      </trkpt>
      <trkpt lat="43.33864" lon="2.57496">
        <ele>286.61</ele>
        <time>2021-03-29T13:01:27Z</time>
      </trkpt>
      <trkpt lat="43.33865" lon="2.57495">
        <ele>286.61</ele>
        <time>2021-03-29T13:01:28Z</time>
      </trkpt>
      <trkpt lat="43.33867" lon="2.57492">
        <ele>287.57</ele>
        <time>2021-03-29T13:01:31Z</time>
      </trkpt>
      <trkpt lat="43.33868" lon="2.57491">
        <ele>288.05</ele>
        <time>2021-03-29T13:01:32Z</time>
      </trkpt>
      <trkpt lat="43.33881" lon="2.57484">
        <ele>289.97</ele>
        <time>2021-03-29T13:01:45Z</time>
      </trkpt>
      <trkpt lat="43.33885" lon="2.57481">
        <ele>289.97</ele>
        <time>2021-03-29T13:01:49Z</time>
      </trkpt>
      <trkpt lat="43.33886" lon="2.57479">
        <ele>289.97</ele>
        <time>2021-03-29T13:01:50Z</time>
      </trkpt>
      <trkpt lat="43.33887" lon="2.57475">
        <ele>289.97</ele>
        <time>2021-03-29T13:01:52Z</time>
      </trkpt>
      <trkpt lat="43.33886" lon="2.57471">
        <ele>290.46</ele>
        <time>2021-03-29T13:01:56Z</time>
      </trkpt>
      <trkpt lat="43.33885" lon="2.57467">
        <ele>290.94</ele>
        <time>2021-03-29T13:02:04Z</time>
      </trkpt>
      <trkpt lat="43.33885" lon="2.5747">
        <ele>290.94</ele>
        <time>2021-03-29T13:02:18Z</time>
      </trkpt>
      <trkpt lat="43.33884" lon="2.57468">
        <ele>290.94</ele>
        <time>2021-03-29T13:02:31Z</time>
      </trkpt>
      <trkpt lat="43.33886" lon="2.57463">
        <ele>290.94</ele>
        <time>2021-03-29T13:02:37Z</time>
      </trkpt>
      <trkpt lat="43.33887" lon="2.57462">
        <ele>290.94</ele>
        <time>2021-03-29T13:02:38Z</time>
      </trkpt>
      <trkpt lat="43.33889" lon="2.57447">
        <ele>291.9</ele>
        <time>2021-03-29T13:02:48Z</time>
      </trkpt>
      <trkpt lat="43.33888" lon="2.57445">
        <ele>291.9</ele>
        <time>2021-03-29T13:02:49Z</time>
      </trkpt>
      <trkpt lat="43.33888" lon="2.57433">
        <ele>292.86</ele>
        <time>2021-03-29T13:02:57Z</time>
      </trkpt>
      <trkpt lat="43.33887" lon="2.5743">
        <ele>291.42</ele>
        <time>2021-03-29T13:03:01Z</time>
      </trkpt>
      <trkpt lat="43.33886" lon="2.57431">
        <ele>291.42</ele>
        <time>2021-03-29T13:03:19Z</time>
      </trkpt>
      <trkpt lat="43.33885" lon="2.57432">
        <ele>290.94</ele>
        <time>2021-03-29T13:03:32Z</time>
      </trkpt>
      <trkpt lat="43.33883" lon="2.57431">
        <ele>290.94</ele>
        <time>2021-03-29T13:03:36Z</time>
      </trkpt>
      <trkpt lat="43.33875" lon="2.57424">
        <ele>290.46</ele>
        <time>2021-03-29T13:03:45Z</time>
      </trkpt>
      <trkpt lat="43.33873" lon="2.57423">
        <ele>290.46</ele>
        <time>2021-03-29T13:03:46Z</time>
      </trkpt>
      <trkpt lat="43.33872" lon="2.57422">
        <ele>290.46</ele>
        <time>2021-03-29T13:03:47Z</time>
      </trkpt>
      <trkpt lat="43.3387" lon="2.57421">
        <ele>290.46</ele>
        <time>2021-03-29T13:03:48Z</time>
      </trkpt>
      <trkpt lat="43.33868" lon="2.57421">
        <ele>290.46</ele>
        <time>2021-03-29T13:03:49Z</time>
      </trkpt>
      <trkpt lat="43.33865" lon="2.57419">
        <ele>290.46</ele>
        <time>2021-03-29T13:03:54Z</time>
      </trkpt>
      <trkpt lat="43.33863" lon="2.57418">
        <ele>290.46</ele>
        <time>2021-03-29T13:03:56Z</time>
      </trkpt>
      <trkpt lat="43.33855" lon="2.57416">
        <ele>290.46</ele>
        <time>2021-03-29T13:04:07Z</time>
      </trkpt>
      <trkpt lat="43.33853" lon="2.57417">
        <ele>291.42</ele>
        <time>2021-03-29T13:04:12Z</time>
      </trkpt>
      <trkpt lat="43.3385" lon="2.57416">
        <ele>291.42</ele>
        <time>2021-03-29T13:04:23Z</time>
      </trkpt>
      <trkpt lat="43.33844" lon="2.57414">
        <ele>291.42</ele>
        <time>2021-03-29T13:04:35Z</time>
      </trkpt>
      <trkpt lat="43.33839" lon="2.57415">
        <ele>291.42</ele>
        <time>2021-03-29T13:04:46Z</time>
      </trkpt>
      <trkpt lat="43.3383" lon="2.5741">
        <ele>292.38</ele>
        <time>2021-03-29T13:04:55Z</time>
      </trkpt>
      <trkpt lat="43.33823" lon="2.57404">
        <ele>292.86</ele>
        <time>2021-03-29T13:05:03Z</time>
      </trkpt>
      <trkpt lat="43.33823" lon="2.57403">
        <ele>292.86</ele>
        <time>2021-03-29T13:05:04Z</time>
      </trkpt>
      <trkpt lat="43.3382" lon="2.57398">
        <ele>293.34</ele>
        <time>2021-03-29T13:05:08Z</time>
      </trkpt>
      <trkpt lat="43.33812" lon="2.57388">
        <ele>294.3</ele>
        <time>2021-03-29T13:05:18Z</time>
      </trkpt>
      <trkpt lat="43.3381" lon="2.57387">
        <ele>294.78</ele>
        <time>2021-03-29T13:05:20Z</time>
      </trkpt>
      <trkpt lat="43.33809" lon="2.57386">
        <ele>294.78</ele>
        <time>2021-03-29T13:05:21Z</time>
      </trkpt>
      <trkpt lat="43.33795" lon="2.57377">
        <ele>295.26</ele>
        <time>2021-03-29T13:05:35Z</time>
      </trkpt>
      <trkpt lat="43.33786" lon="2.57373">
        <ele>295.26</ele>
        <time>2021-03-29T13:05:45Z</time>
      </trkpt>
      <trkpt lat="43.33783" lon="2.57373">
        <ele>295.26</ele>
        <time>2021-03-29T13:05:47Z</time>
      </trkpt>
      <trkpt lat="43.3378" lon="2.57373">
        <ele>295.26</ele>
        <time>2021-03-29T13:05:52Z</time>
      </trkpt>
      <trkpt lat="43.33778" lon="2.57372">
        <ele>295.26</ele>
        <time>2021-03-29T13:05:53Z</time>
      </trkpt>
      <trkpt lat="43.33768" lon="2.57368">
        <ele>295.26</ele>
        <time>2021-03-29T13:06:01Z</time>
      </trkpt>
      <trkpt lat="43.33767" lon="2.57368">
        <ele>295.26</ele>
        <time>2021-03-29T13:06:02Z</time>
      </trkpt>
      <trkpt lat="43.33764" lon="2.57368">
        <ele>295.26</ele>
        <time>2021-03-29T13:06:04Z</time>
      </trkpt>
      <trkpt lat="43.33763" lon="2.57368">
        <ele>293.82</ele>
        <time>2021-03-29T13:06:05Z</time>
      </trkpt>
      <trkpt lat="43.33754" lon="2.57366">
        <ele>293.34</ele>
        <time>2021-03-29T13:06:16Z</time>
      </trkpt>
      <trkpt lat="43.33751" lon="2.57365">
        <ele>292.86</ele>
        <time>2021-03-29T13:06:20Z</time>
      </trkpt>
      <trkpt lat="43.33749" lon="2.57366">
        <ele>292.38</ele>
        <time>2021-03-29T13:06:25Z</time>
      </trkpt>
      <trkpt lat="43.33748" lon="2.57366">
        <ele>292.38</ele>
        <time>2021-03-29T13:06:26Z</time>
      </trkpt>
      <trkpt lat="43.33746" lon="2.57368">
        <ele>292.38</ele>
        <time>2021-03-29T13:06:28Z</time>
      </trkpt>
      <trkpt lat="43.33743" lon="2.57371">
        <ele>291.42</ele>
        <time>2021-03-29T13:06:35Z</time>
      </trkpt>
      <trkpt lat="43.33741" lon="2.57372">
        <ele>291.42</ele>
        <time>2021-03-29T13:06:36Z</time>
      </trkpt>
      <trkpt lat="43.3374" lon="2.57373">
        <ele>291.42</ele>
        <time>2021-03-29T13:06:37Z</time>
      </trkpt>
      <trkpt lat="43.33739" lon="2.57373">
        <ele>291.42</ele>
        <time>2021-03-29T13:06:38Z</time>
      </trkpt>
      <trkpt lat="43.33736" lon="2.57377">
        <ele>290.94</ele>
        <time>2021-03-29T13:06:48Z</time>
      </trkpt>
      <trkpt lat="43.33735" lon="2.57377">
        <ele>290.94</ele>
        <time>2021-03-29T13:06:56Z</time>
      </trkpt>
      <trkpt lat="43.33734" lon="2.57378">
        <ele>290.94</ele>
        <time>2021-03-29T13:06:57Z</time>
      </trkpt>
      <trkpt lat="43.33731" lon="2.57383">
        <ele>289.49</ele>
        <time>2021-03-29T13:07:04Z</time>
      </trkpt>
      <trkpt lat="43.3373" lon="2.57385">
        <ele>289.49</ele>
        <time>2021-03-29T13:07:05Z</time>
      </trkpt>
      <trkpt lat="43.33729" lon="2.57396">
        <ele>289.49</ele>
        <time>2021-03-29T13:07:14Z</time>
      </trkpt>
      <trkpt lat="43.33729" lon="2.57397">
        <ele>289.01</ele>
        <time>2021-03-29T13:07:15Z</time>
      </trkpt>
      <trkpt lat="43.33728" lon="2.57399">
        <ele>289.01</ele>
        <time>2021-03-29T13:07:16Z</time>
      </trkpt>
      <trkpt lat="43.33727" lon="2.57401">
        <ele>289.01</ele>
        <time>2021-03-29T13:07:17Z</time>
      </trkpt>
      <trkpt lat="43.33725" lon="2.57403">
        <ele>288.53</ele>
        <time>2021-03-29T13:07:18Z</time>
      </trkpt>
      <trkpt lat="43.33718" lon="2.57411">
        <ele>288.05</ele>
        <time>2021-03-29T13:07:27Z</time>
      </trkpt>
      <trkpt lat="43.33718" lon="2.57413">
        <ele>288.05</ele>
        <time>2021-03-29T13:07:28Z</time>
      </trkpt>
      <trkpt lat="43.33714" lon="2.57423">
        <ele>287.57</ele>
        <time>2021-03-29T13:07:38Z</time>
      </trkpt>
      <trkpt lat="43.3371" lon="2.57432">
        <ele>286.61</ele>
        <time>2021-03-29T13:07:47Z</time>
      </trkpt>
      <trkpt lat="43.33699" lon="2.57437">
        <ele>286.13</ele>
        <time>2021-03-29T13:07:59Z</time>
      </trkpt>
      <trkpt lat="43.33697" lon="2.57437">
        <ele>286.13</ele>
        <time>2021-03-29T13:08:01Z</time>
      </trkpt>
      <trkpt lat="43.33691" lon="2.57435">
        <ele>284.69</ele>
        <time>2021-03-29T13:08:07Z</time>
      </trkpt>
      <trkpt lat="43.3369" lon="2.57435">
        <ele>284.69</ele>
        <time>2021-03-29T13:08:08Z</time>
      </trkpt>
      <trkpt lat="43.33688" lon="2.57435">
        <ele>284.69</ele>
        <time>2021-03-29T13:08:09Z</time>
      </trkpt>
      <trkpt lat="43.33683" lon="2.5743">
        <ele>282.28</ele>
        <time>2021-03-29T13:08:18Z</time>
      </trkpt>
      <trkpt lat="43.3367" lon="2.57425">
        <ele>281.8</ele>
        <time>2021-03-29T13:08:31Z</time>
      </trkpt>
      <trkpt lat="43.33669" lon="2.57424">
        <ele>283.25</ele>
        <time>2021-03-29T13:08:38Z</time>
      </trkpt>
      <trkpt lat="43.33664" lon="2.57426">
        <ele>281.8</ele>
        <time>2021-03-29T13:08:52Z</time>
      </trkpt>
      <trkpt lat="43.33666" lon="2.5742">
        <ele>281.8</ele>
        <time>2021-03-29T13:08:58Z</time>
      </trkpt>
      <trkpt lat="43.33666" lon="2.57416">
        <ele>281.32</ele>
        <time>2021-03-29T13:09:01Z</time>
      </trkpt>
      <trkpt lat="43.33666" lon="2.57415">
        <ele>281.32</ele>
        <time>2021-03-29T13:09:02Z</time>
      </trkpt>
      <trkpt lat="43.33665" lon="2.57416">
        <ele>280.84</ele>
        <time>2021-03-29T13:09:12Z</time>
      </trkpt>
      <trkpt lat="43.33664" lon="2.57417">
        <ele>280.84</ele>
        <time>2021-03-29T13:09:13Z</time>
      </trkpt>
      <trkpt lat="43.33663" lon="2.57423">
        <ele>280.84</ele>
        <time>2021-03-29T13:09:18Z</time>
      </trkpt>
      <trkpt lat="43.33662" lon="2.57424">
        <ele>281.8</ele>
        <time>2021-03-29T13:09:20Z</time>
      </trkpt>
      <trkpt lat="43.3366" lon="2.5743">
        <ele>281.8</ele>
        <time>2021-03-29T13:09:32Z</time>
      </trkpt>
      <trkpt lat="43.33662" lon="2.57434">
        <ele>281.8</ele>
        <time>2021-03-29T13:09:57Z</time>
      </trkpt>
      <trkpt lat="43.3366" lon="2.57433">
        <ele>280.84</ele>
        <time>2021-03-29T13:10:25Z</time>
      </trkpt>
      <trkpt lat="43.33657" lon="2.57431">
        <ele>282.77</ele>
        <time>2021-03-29T13:10:28Z</time>
      </trkpt>
      <trkpt lat="43.33653" lon="2.57428">
        <ele>282.77</ele>
        <time>2021-03-29T13:10:31Z</time>
      </trkpt>
      <trkpt lat="43.33633" lon="2.57421">
        <ele>284.21</ele>
        <time>2021-03-29T13:10:48Z</time>
      </trkpt>
      <trkpt lat="43.3363" lon="2.57413">
        <ele>284.21</ele>
        <time>2021-03-29T13:11:14Z</time>
      </trkpt>
      <trkpt lat="43.3363" lon="2.57419">
        <ele>283.73</ele>
        <time>2021-03-29T13:11:33Z</time>
      </trkpt>
      <trkpt lat="43.3363" lon="2.57422">
        <ele>283.73</ele>
        <time>2021-03-29T13:11:58Z</time>
      </trkpt>
      <trkpt lat="43.3363" lon="2.57422">
        <ele>283.25</ele>
        <time>2021-03-29T13:12:31Z</time>
      </trkpt>
      <trkpt lat="43.3363" lon="2.57422">
        <ele>284.21</ele>
        <time>2021-03-29T13:12:41Z</time>
      </trkpt>
      <trkpt lat="43.33632" lon="2.57422">
        <ele>283.25</ele>
        <time>2021-03-29T13:13:10Z</time>
      </trkpt>
      <trkpt lat="43.33644" lon="2.57422">
        <ele>281.32</ele>
        <time>2021-03-29T13:13:31Z</time>
      </trkpt>
      <trkpt lat="43.33659" lon="2.57426">
        <ele>280.36</ele>
        <time>2021-03-29T13:13:44Z</time>
      </trkpt>
      <trkpt lat="43.33661" lon="2.57425">
        <ele>280.36</ele>
        <time>2021-03-29T13:13:45Z</time>
      </trkpt>
      <trkpt lat="43.33665" lon="2.57409">
        <ele>279.88</ele>
        <time>2021-03-29T13:13:57Z</time>
      </trkpt>
      <trkpt lat="43.33663" lon="2.57406">
        <ele>279.4</ele>
        <time>2021-03-29T13:14:00Z</time>
      </trkpt>
      <trkpt lat="43.3366" lon="2.574">
        <ele>278.44</ele>
        <time>2021-03-29T13:14:07Z</time>
      </trkpt>
      <trkpt lat="43.33658" lon="2.57398">
        <ele>278.44</ele>
        <time>2021-03-29T13:14:09Z</time>
      </trkpt>
      <trkpt lat="43.33653" lon="2.57389">
        <ele>277</ele>
        <time>2021-03-29T13:14:17Z</time>
      </trkpt>
      <trkpt lat="43.33652" lon="2.57388">
        <ele>276.52</ele>
        <time>2021-03-29T13:14:18Z</time>
      </trkpt>
      <trkpt lat="43.3365" lon="2.57386">
        <ele>276.52</ele>
        <time>2021-03-29T13:14:19Z</time>
      </trkpt>
      <trkpt lat="43.33646" lon="2.57375">
        <ele>275.56</ele>
        <time>2021-03-29T13:14:29Z</time>
      </trkpt>
      <trkpt lat="43.33637" lon="2.57364">
        <ele>274.59</ele>
        <time>2021-03-29T13:14:39Z</time>
      </trkpt>
      <trkpt lat="43.33626" lon="2.57348">
        <ele>274.59</ele>
        <time>2021-03-29T13:14:49Z</time>
      </trkpt>
      <trkpt lat="43.33617" lon="2.57341">
        <ele>273.63</ele>
        <time>2021-03-29T13:14:59Z</time>
      </trkpt>
      <trkpt lat="43.33612" lon="2.57335">
        <ele>272.67</ele>
        <time>2021-03-29T13:15:08Z</time>
      </trkpt>
      <trkpt lat="43.3361" lon="2.57334">
        <ele>272.19</ele>
        <time>2021-03-29T13:15:09Z</time>
      </trkpt>
      <trkpt lat="43.33609" lon="2.57332">
        <ele>272.19</ele>
        <time>2021-03-29T13:15:10Z</time>
      </trkpt>
      <trkpt lat="43.33606" lon="2.5733">
        <ele>272.19</ele>
        <time>2021-03-29T13:15:13Z</time>
      </trkpt>
      <trkpt lat="43.33606" lon="2.57328">
        <ele>271.71</ele>
        <time>2021-03-29T13:15:14Z</time>
      </trkpt>
      <trkpt lat="43.33604" lon="2.57325">
        <ele>271.71</ele>
        <time>2021-03-29T13:15:15Z</time>
      </trkpt>
      <trkpt lat="43.33603" lon="2.57323">
        <ele>271.71</ele>
        <time>2021-03-29T13:15:16Z</time>
      </trkpt>
      <trkpt lat="43.33602" lon="2.5732">
        <ele>271.71</ele>
        <time>2021-03-29T13:15:17Z</time>
      </trkpt>
      <trkpt lat="43.33595" lon="2.57304">
        <ele>270.27</ele>
        <time>2021-03-29T13:15:30Z</time>
      </trkpt>
      <trkpt lat="43.3359" lon="2.57284">
        <ele>270.27</ele>
        <time>2021-03-29T13:15:43Z</time>
      </trkpt>
      <trkpt lat="43.33587" lon="2.57276">
        <ele>269.31</ele>
        <time>2021-03-29T13:15:51Z</time>
      </trkpt>
      <trkpt lat="43.33586" lon="2.57274">
        <ele>268.83</ele>
        <time>2021-03-29T13:15:52Z</time>
      </trkpt>
      <trkpt lat="43.33586" lon="2.57272">
        <ele>268.83</ele>
        <time>2021-03-29T13:15:53Z</time>
      </trkpt>
      <trkpt lat="43.33585" lon="2.5727">
        <ele>268.83</ele>
        <time>2021-03-29T13:15:54Z</time>
      </trkpt>
      <trkpt lat="43.33584" lon="2.57268">
        <ele>268.83</ele>
        <time>2021-03-29T13:15:55Z</time>
      </trkpt>
      <trkpt lat="43.33581" lon="2.57261">
        <ele>268.35</ele>
        <time>2021-03-29T13:16:02Z</time>
      </trkpt>
      <trkpt lat="43.3358" lon="2.57257">
        <ele>267.86</ele>
        <time>2021-03-29T13:16:04Z</time>
      </trkpt>
      <trkpt lat="43.33575" lon="2.57244">
        <ele>267.38</ele>
        <time>2021-03-29T13:16:10Z</time>
      </trkpt>
      <trkpt lat="43.33575" lon="2.57238">
        <ele>266.9</ele>
        <time>2021-03-29T13:16:17Z</time>
      </trkpt>
      <trkpt lat="43.33575" lon="2.57236">
        <ele>266.9</ele>
        <time>2021-03-29T13:16:18Z</time>
      </trkpt>
      <trkpt lat="43.33575" lon="2.57233">
        <ele>266.9</ele>
        <time>2021-03-29T13:16:19Z</time>
      </trkpt>
      <trkpt lat="43.33573" lon="2.57223">
        <ele>266.42</ele>
        <time>2021-03-29T13:16:26Z</time>
      </trkpt>
      <trkpt lat="43.33573" lon="2.57221">
        <ele>266.42</ele>
        <time>2021-03-29T13:16:27Z</time>
      </trkpt>
      <trkpt lat="43.33576" lon="2.57202">
        <ele>265.94</ele>
        <time>2021-03-29T13:16:39Z</time>
      </trkpt>
      <trkpt lat="43.33577" lon="2.57199">
        <ele>265.94</ele>
        <time>2021-03-29T13:16:41Z</time>
      </trkpt>
      <trkpt lat="43.3358" lon="2.57199">
        <ele>265.46</ele>
        <time>2021-03-29T13:16:49Z</time>
      </trkpt>
      <trkpt lat="43.33579" lon="2.57198">
        <ele>265.46</ele>
        <time>2021-03-29T13:16:50Z</time>
      </trkpt>
      <trkpt lat="43.33579" lon="2.57191">
        <ele>265.46</ele>
        <time>2021-03-29T13:16:53Z</time>
      </trkpt>
      <trkpt lat="43.33582" lon="2.57166">
        <ele>264.5</ele>
        <time>2021-03-29T13:17:03Z</time>
      </trkpt>
      <trkpt lat="43.33579" lon="2.57156">
        <ele>262.1</ele>
        <time>2021-03-29T13:17:15Z</time>
      </trkpt>
      <trkpt lat="43.33577" lon="2.57148">
        <ele>261.62</ele>
        <time>2021-03-29T13:17:19Z</time>
      </trkpt>
      <trkpt lat="43.33574" lon="2.57133">
        <ele>261.14</ele>
        <time>2021-03-29T13:17:29Z</time>
      </trkpt>
      <trkpt lat="43.33574" lon="2.57129">
        <ele>261.14</ele>
        <time>2021-03-29T13:17:32Z</time>
      </trkpt>
      <trkpt lat="43.33574" lon="2.57126">
        <ele>260.65</ele>
        <time>2021-03-29T13:17:33Z</time>
      </trkpt>
      <trkpt lat="43.33574" lon="2.57124">
        <ele>260.65</ele>
        <time>2021-03-29T13:17:34Z</time>
      </trkpt>
      <trkpt lat="43.33573" lon="2.57122">
        <ele>260.65</ele>
        <time>2021-03-29T13:17:35Z</time>
      </trkpt>
      <trkpt lat="43.33572" lon="2.57119">
        <ele>260.65</ele>
        <time>2021-03-29T13:17:36Z</time>
      </trkpt>
      <trkpt lat="43.33572" lon="2.57116">
        <ele>260.17</ele>
        <time>2021-03-29T13:17:37Z</time>
      </trkpt>
      <trkpt lat="43.33571" lon="2.57112">
        <ele>260.17</ele>
        <time>2021-03-29T13:17:39Z</time>
      </trkpt>
      <trkpt lat="43.33572" lon="2.5711">
        <ele>260.17</ele>
        <time>2021-03-29T13:17:40Z</time>
      </trkpt>
      <trkpt lat="43.33571" lon="2.57104">
        <ele>259.21</ele>
        <time>2021-03-29T13:17:46Z</time>
      </trkpt>
      <trkpt lat="43.33571" lon="2.57102">
        <ele>259.21</ele>
        <time>2021-03-29T13:17:47Z</time>
      </trkpt>
      <trkpt lat="43.3357" lon="2.57099">
        <ele>259.21</ele>
        <time>2021-03-29T13:17:48Z</time>
      </trkpt>
      <trkpt lat="43.3357" lon="2.57077">
        <ele>257.77</ele>
        <time>2021-03-29T13:18:01Z</time>
      </trkpt>
      <trkpt lat="43.33572" lon="2.57057">
        <ele>257.29</ele>
        <time>2021-03-29T13:18:12Z</time>
      </trkpt>
      <trkpt lat="43.33572" lon="2.57054">
        <ele>257.29</ele>
        <time>2021-03-29T13:18:15Z</time>
      </trkpt>
      <trkpt lat="43.33572" lon="2.57052">
        <ele>257.29</ele>
        <time>2021-03-29T13:18:16Z</time>
      </trkpt>
      <trkpt lat="43.33573" lon="2.5705">
        <ele>257.29</ele>
        <time>2021-03-29T13:18:17Z</time>
      </trkpt>
      <trkpt lat="43.33573" lon="2.57049">
        <ele>257.29</ele>
        <time>2021-03-29T13:18:18Z</time>
      </trkpt>
      <trkpt lat="43.33572" lon="2.57047">
        <ele>257.29</ele>
        <time>2021-03-29T13:18:19Z</time>
      </trkpt>
      <trkpt lat="43.33566" lon="2.57026">
        <ele>255.85</ele>
        <time>2021-03-29T13:18:35Z</time>
      </trkpt>
      <trkpt lat="43.33566" lon="2.57026">
        <ele>252</ele>
        <time>2021-03-29T13:18:42Z</time>
      </trkpt>
      <trkpt lat="43.33566" lon="2.57026">
        <ele>252</ele>
        <time>2021-03-29T13:18:43Z</time>
      </trkpt>
      <trkpt lat="43.33566" lon="2.57027">
        <ele>256.33</ele>
        <time>2021-03-29T13:18:44Z</time>
      </trkpt>
      <trkpt lat="43.33566" lon="2.57027">
        <ele>254.41</ele>
        <time>2021-03-29T13:18:45Z</time>
      </trkpt>
      <trkpt lat="43.33566" lon="2.57029">
        <ele>262.58</ele>
        <time>2021-03-29T13:18:53Z</time>
      </trkpt>
      <trkpt lat="43.33565" lon="2.57027">
        <ele>256.81</ele>
        <time>2021-03-29T13:18:54Z</time>
      </trkpt>
      <trkpt lat="43.33565" lon="2.57026">
        <ele>255.85</ele>
        <time>2021-03-29T13:18:55Z</time>
      </trkpt>
      <trkpt lat="43.33564" lon="2.57025">
        <ele>255.37</ele>
        <time>2021-03-29T13:18:56Z</time>
      </trkpt>
      <trkpt lat="43.33563" lon="2.57024">
        <ele>255.37</ele>
        <time>2021-03-29T13:18:57Z</time>
      </trkpt>
      <trkpt lat="43.33561" lon="2.57024">
        <ele>255.37</ele>
        <time>2021-03-29T13:18:58Z</time>
      </trkpt>
      <trkpt lat="43.3356" lon="2.57023">
        <ele>255.37</ele>
        <time>2021-03-29T13:18:59Z</time>
      </trkpt>
      <trkpt lat="43.33544" lon="2.5703">
        <ele>254.89</ele>
        <time>2021-03-29T13:19:12Z</time>
      </trkpt>
      <trkpt lat="43.33542" lon="2.57034">
        <ele>253.93</ele>
        <time>2021-03-29T13:19:17Z</time>
      </trkpt>
      <trkpt lat="43.33541" lon="2.57035">
        <ele>253.93</ele>
        <time>2021-03-29T13:19:18Z</time>
      </trkpt>
      <trkpt lat="43.33532" lon="2.57035">
        <ele>252.96</ele>
        <time>2021-03-29T13:19:29Z</time>
      </trkpt>
      <trkpt lat="43.33532" lon="2.57029">
        <ele>252.48</ele>
        <time>2021-03-29T13:19:35Z</time>
      </trkpt>
      <trkpt lat="43.3354" lon="2.5702">
        <ele>251.04</ele>
        <time>2021-03-29T13:19:47Z</time>
      </trkpt>
      <trkpt lat="43.33542" lon="2.57018">
        <ele>250.56</ele>
        <time>2021-03-29T13:19:50Z</time>
      </trkpt>
      <trkpt lat="43.33543" lon="2.57016">
        <ele>250.56</ele>
        <time>2021-03-29T13:19:51Z</time>
      </trkpt>
      <trkpt lat="43.33544" lon="2.57014">
        <ele>250.08</ele>
        <time>2021-03-29T13:19:52Z</time>
      </trkpt>
      <trkpt lat="43.33555" lon="2.56998">
        <ele>249.12</ele>
        <time>2021-03-29T13:20:03Z</time>
      </trkpt>
      <trkpt lat="43.33556" lon="2.56994">
        <ele>249.12</ele>
        <time>2021-03-29T13:20:07Z</time>
      </trkpt>
      <trkpt lat="43.33557" lon="2.56993">
        <ele>248.64</ele>
        <time>2021-03-29T13:20:08Z</time>
      </trkpt>
      <trkpt lat="43.33563" lon="2.56984">
        <ele>248.16</ele>
        <time>2021-03-29T13:20:18Z</time>
      </trkpt>
      <trkpt lat="43.33564" lon="2.56973">
        <ele>247.2</ele>
        <time>2021-03-29T13:20:28Z</time>
      </trkpt>
      <trkpt lat="43.33568" lon="2.56955">
        <ele>245.75</ele>
        <time>2021-03-29T13:20:38Z</time>
      </trkpt>
      <trkpt lat="43.33567" lon="2.56953">
        <ele>245.75</ele>
        <time>2021-03-29T13:20:44Z</time>
      </trkpt>
      <trkpt lat="43.33566" lon="2.5695">
        <ele>245.75</ele>
        <time>2021-03-29T13:20:45Z</time>
      </trkpt>
      <trkpt lat="43.33567" lon="2.56948">
        <ele>245.27</ele>
        <time>2021-03-29T13:20:46Z</time>
      </trkpt>
      <trkpt lat="43.33566" lon="2.56945">
        <ele>245.27</ele>
        <time>2021-03-29T13:20:47Z</time>
      </trkpt>
      <trkpt lat="43.33566" lon="2.56942">
        <ele>245.27</ele>
        <time>2021-03-29T13:20:48Z</time>
      </trkpt>
      <trkpt lat="43.33566" lon="2.5694">
        <ele>245.27</ele>
        <time>2021-03-29T13:20:49Z</time>
      </trkpt>
      <trkpt lat="43.3356" lon="2.56934">
        <ele>243.35</ele>
        <time>2021-03-29T13:21:00Z</time>
      </trkpt>
      <trkpt lat="43.3356" lon="2.56928">
        <ele>242.87</ele>
        <time>2021-03-29T13:21:04Z</time>
      </trkpt>
      <trkpt lat="43.3356" lon="2.56926">
        <ele>242.87</ele>
        <time>2021-03-29T13:21:05Z</time>
      </trkpt>
      <trkpt lat="43.33559" lon="2.56923">
        <ele>242.87</ele>
        <time>2021-03-29T13:21:07Z</time>
      </trkpt>
      <trkpt lat="43.33553" lon="2.56902">
        <ele>240.95</ele>
        <time>2021-03-29T13:21:22Z</time>
      </trkpt>
      <trkpt lat="43.33551" lon="2.56893">
        <ele>240.95</ele>
        <time>2021-03-29T13:21:28Z</time>
      </trkpt>
      <trkpt lat="43.3355" lon="2.56891">
        <ele>240.95</ele>
        <time>2021-03-29T13:21:29Z</time>
      </trkpt>
      <trkpt lat="43.33548" lon="2.56889">
        <ele>240.47</ele>
        <time>2021-03-29T13:21:30Z</time>
      </trkpt>
      <trkpt lat="43.33547" lon="2.56887">
        <ele>240.47</ele>
        <time>2021-03-29T13:21:31Z</time>
      </trkpt>
      <trkpt lat="43.33546" lon="2.56884">
        <ele>240.47</ele>
        <time>2021-03-29T13:21:32Z</time>
      </trkpt>
      <trkpt lat="43.33535" lon="2.56858">
        <ele>237.58</ele>
        <time>2021-03-29T13:21:45Z</time>
      </trkpt>
      <trkpt lat="43.3353" lon="2.56846">
        <ele>238.06</ele>
        <time>2021-03-29T13:21:58Z</time>
      </trkpt>
      <trkpt lat="43.33532" lon="2.56833">
        <ele>237.1</ele>
        <time>2021-03-29T13:22:07Z</time>
      </trkpt>
      <trkpt lat="43.33534" lon="2.56832">
        <ele>237.1</ele>
        <time>2021-03-29T13:22:09Z</time>
      </trkpt>
      <trkpt lat="43.33535" lon="2.56831">
        <ele>237.1</ele>
        <time>2021-03-29T13:22:10Z</time>
      </trkpt>
      <trkpt lat="43.33536" lon="2.5683">
        <ele>237.1</ele>
        <time>2021-03-29T13:22:11Z</time>
      </trkpt>
      <trkpt lat="43.33538" lon="2.56829">
        <ele>237.1</ele>
        <time>2021-03-29T13:22:12Z</time>
      </trkpt>
      <trkpt lat="43.33539" lon="2.56829">
        <ele>237.1</ele>
        <time>2021-03-29T13:22:13Z</time>
      </trkpt>
      <trkpt lat="43.33543" lon="2.56828">
        <ele>236.62</ele>
        <time>2021-03-29T13:22:20Z</time>
      </trkpt>
      <trkpt lat="43.33545" lon="2.56829">
        <ele>236.62</ele>
        <time>2021-03-29T13:22:21Z</time>
      </trkpt>
      <trkpt lat="43.33547" lon="2.56829">
        <ele>236.14</ele>
        <time>2021-03-29T13:22:22Z</time>
      </trkpt>
      <trkpt lat="43.33549" lon="2.56829">
        <ele>235.66</ele>
        <time>2021-03-29T13:22:23Z</time>
      </trkpt>
      <trkpt lat="43.33552" lon="2.5683">
        <ele>235.66</ele>
        <time>2021-03-29T13:22:24Z</time>
      </trkpt>
      <trkpt lat="43.3356" lon="2.5683">
        <ele>235.66</ele>
        <time>2021-03-29T13:22:35Z</time>
      </trkpt>
      <trkpt lat="43.33569" lon="2.56833">
        <ele>234.7</ele>
        <time>2021-03-29T13:22:45Z</time>
      </trkpt>
      <trkpt lat="43.3357" lon="2.56834">
        <ele>234.7</ele>
        <time>2021-03-29T13:22:46Z</time>
      </trkpt>
      <trkpt lat="43.33572" lon="2.56834">
        <ele>234.7</ele>
        <time>2021-03-29T13:22:47Z</time>
      </trkpt>
      <trkpt lat="43.33573" lon="2.56835">
        <ele>234.22</ele>
        <time>2021-03-29T13:22:48Z</time>
      </trkpt>
      <trkpt lat="43.33574" lon="2.56835">
        <ele>234.22</ele>
        <time>2021-03-29T13:22:49Z</time>
      </trkpt>
      <trkpt lat="43.33576" lon="2.56837">
        <ele>234.22</ele>
        <time>2021-03-29T13:22:51Z</time>
      </trkpt>
      <trkpt lat="43.33577" lon="2.56839">
        <ele>234.22</ele>
        <time>2021-03-29T13:22:52Z</time>
      </trkpt>
      <trkpt lat="43.33579" lon="2.56841">
        <ele>233.74</ele>
        <time>2021-03-29T13:22:53Z</time>
      </trkpt>
      <trkpt lat="43.3358" lon="2.56842">
        <ele>233.74</ele>
        <time>2021-03-29T13:22:54Z</time>
      </trkpt>
      <trkpt lat="43.33582" lon="2.56842">
        <ele>233.74</ele>
        <time>2021-03-29T13:22:55Z</time>
      </trkpt>
      <trkpt lat="43.33584" lon="2.56843">
        <ele>233.74</ele>
        <time>2021-03-29T13:22:56Z</time>
      </trkpt>
      <trkpt lat="43.33585" lon="2.56844">
        <ele>233.74</ele>
        <time>2021-03-29T13:22:57Z</time>
      </trkpt>
      <trkpt lat="43.33599" lon="2.56852">
        <ele>232.3</ele>
        <time>2021-03-29T13:23:09Z</time>
      </trkpt>
      <trkpt lat="43.33608" lon="2.5685">
        <ele>232.78</ele>
        <time>2021-03-29T13:23:18Z</time>
      </trkpt>
      <trkpt lat="43.33617" lon="2.56844">
        <ele>231.81</ele>
        <time>2021-03-29T13:23:31Z</time>
      </trkpt>
      <trkpt lat="43.33618" lon="2.56843">
        <ele>231.81</ele>
        <time>2021-03-29T13:23:32Z</time>
      </trkpt>
      <trkpt lat="43.33619" lon="2.56841">
        <ele>231.81</ele>
        <time>2021-03-29T13:23:33Z</time>
      </trkpt>
      <trkpt lat="43.33621" lon="2.56833">
        <ele>230.37</ele>
        <time>2021-03-29T13:23:41Z</time>
      </trkpt>
      <trkpt lat="43.33621" lon="2.56832">
        <ele>230.37</ele>
        <time>2021-03-29T13:23:42Z</time>
      </trkpt>
      <trkpt lat="43.33619" lon="2.56831">
        <ele>229.89</ele>
        <time>2021-03-29T13:23:43Z</time>
      </trkpt>
      <trkpt lat="43.33617" lon="2.5683">
        <ele>229.89</ele>
        <time>2021-03-29T13:23:44Z</time>
      </trkpt>
      <trkpt lat="43.33616" lon="2.56829">
        <ele>229.89</ele>
        <time>2021-03-29T13:23:45Z</time>
      </trkpt>
      <trkpt lat="43.33614" lon="2.56827">
        <ele>229.89</ele>
        <time>2021-03-29T13:23:46Z</time>
      </trkpt>
      <trkpt lat="43.33613" lon="2.56826">
        <ele>229.89</ele>
        <time>2021-03-29T13:23:47Z</time>
      </trkpt>
      <trkpt lat="43.33604" lon="2.56821">
        <ele>228.45</ele>
        <time>2021-03-29T13:23:58Z</time>
      </trkpt>
      <trkpt lat="43.33603" lon="2.56818">
        <ele>228.45</ele>
        <time>2021-03-29T13:24:03Z</time>
      </trkpt>
      <trkpt lat="43.33601" lon="2.56817">
        <ele>228.45</ele>
        <time>2021-03-29T13:24:04Z</time>
      </trkpt>
      <trkpt lat="43.33591" lon="2.56808">
        <ele>227.01</ele>
        <time>2021-03-29T13:24:12Z</time>
      </trkpt>
      <trkpt lat="43.33591" lon="2.56807">
        <ele>227.01</ele>
        <time>2021-03-29T13:24:13Z</time>
      </trkpt>
      <trkpt lat="43.33587" lon="2.56802">
        <ele>227.01</ele>
        <time>2021-03-29T13:24:21Z</time>
      </trkpt>
      <trkpt lat="43.33586" lon="2.56801">
        <ele>226.53</ele>
        <time>2021-03-29T13:24:22Z</time>
      </trkpt>
      <trkpt lat="43.33585" lon="2.568">
        <ele>226.53</ele>
        <time>2021-03-29T13:24:23Z</time>
      </trkpt>
      <trkpt lat="43.33584" lon="2.56799">
        <ele>226.53</ele>
        <time>2021-03-29T13:24:24Z</time>
      </trkpt>
      <trkpt lat="43.33582" lon="2.56798">
        <ele>226.53</ele>
        <time>2021-03-29T13:24:25Z</time>
      </trkpt>
      <trkpt lat="43.33581" lon="2.56797">
        <ele>226.53</ele>
        <time>2021-03-29T13:24:26Z</time>
      </trkpt>
      <trkpt lat="43.3358" lon="2.56796">
        <ele>226.53</ele>
        <time>2021-03-29T13:24:27Z</time>
      </trkpt>
      <trkpt lat="43.33571" lon="2.56782">
        <ele>224.61</ele>
        <time>2021-03-29T13:24:40Z</time>
      </trkpt>
      <trkpt lat="43.33571" lon="2.5678">
        <ele>224.61</ele>
        <time>2021-03-29T13:24:41Z</time>
      </trkpt>
      <trkpt lat="43.3357" lon="2.5677">
        <ele>224.12</ele>
        <time>2021-03-29T13:24:45Z</time>
      </trkpt>
      <trkpt lat="43.3357" lon="2.56767">
        <ele>223.64</ele>
        <time>2021-03-29T13:24:46Z</time>
      </trkpt>
      <trkpt lat="43.3357" lon="2.56761">
        <ele>223.64</ele>
        <time>2021-03-29T13:24:56Z</time>
      </trkpt>
      <trkpt lat="43.3357" lon="2.56759">
        <ele>223.64</ele>
        <time>2021-03-29T13:24:57Z</time>
      </trkpt>
      <trkpt lat="43.3357" lon="2.56758">
        <ele>223.64</ele>
        <time>2021-03-29T13:24:58Z</time>
      </trkpt>
      <trkpt lat="43.33566" lon="2.56754">
        <ele>223.64</ele>
        <time>2021-03-29T13:25:00Z</time>
      </trkpt>
      <trkpt lat="43.33561" lon="2.56757">
        <ele>223.64</ele>
        <time>2021-03-29T13:25:10Z</time>
      </trkpt>
      <trkpt lat="43.33558" lon="2.56755">
        <ele>223.64</ele>
        <time>2021-03-29T13:25:22Z</time>
      </trkpt>
      <trkpt lat="43.33546" lon="2.56761">
        <ele>223.64</ele>
        <time>2021-03-29T13:25:33Z</time>
      </trkpt>
      <trkpt lat="43.33542" lon="2.56764">
        <ele>223.64</ele>
        <time>2021-03-29T13:25:36Z</time>
      </trkpt>
      <trkpt lat="43.33535" lon="2.56765">
        <ele>225.09</ele>
        <time>2021-03-29T13:25:44Z</time>
      </trkpt>
      <trkpt lat="43.33517" lon="2.56766">
        <ele>225.09</ele>
        <time>2021-03-29T13:25:56Z</time>
      </trkpt>
      <trkpt lat="43.33506" lon="2.56763">
        <ele>226.05</ele>
        <time>2021-03-29T13:26:07Z</time>
      </trkpt>
      <trkpt lat="43.33504" lon="2.56761">
        <ele>226.53</ele>
        <time>2021-03-29T13:26:09Z</time>
      </trkpt>
      <trkpt lat="43.33503" lon="2.5676">
        <ele>226.53</ele>
        <time>2021-03-29T13:26:10Z</time>
      </trkpt>
      <trkpt lat="43.33502" lon="2.56752">
        <ele>227.01</ele>
        <time>2021-03-29T13:26:16Z</time>
      </trkpt>
      <trkpt lat="43.33504" lon="2.56751">
        <ele>227.01</ele>
        <time>2021-03-29T13:26:17Z</time>
      </trkpt>
      <trkpt lat="43.33511" lon="2.56744">
        <ele>228.45</ele>
        <time>2021-03-29T13:26:27Z</time>
      </trkpt>
      <trkpt lat="43.33512" lon="2.56744">
        <ele>228.45</ele>
        <time>2021-03-29T13:26:29Z</time>
      </trkpt>
      <trkpt lat="43.33514" lon="2.56743">
        <ele>228.45</ele>
        <time>2021-03-29T13:26:30Z</time>
      </trkpt>
      <trkpt lat="43.33516" lon="2.56743">
        <ele>228.45</ele>
        <time>2021-03-29T13:26:31Z</time>
      </trkpt>
      <trkpt lat="43.33517" lon="2.56744">
        <ele>228.45</ele>
        <time>2021-03-29T13:26:32Z</time>
      </trkpt>
      <trkpt lat="43.33521" lon="2.56744">
        <ele>228.93</ele>
        <time>2021-03-29T13:26:38Z</time>
      </trkpt>
      <trkpt lat="43.33523" lon="2.56743">
        <ele>228.93</ele>
        <time>2021-03-29T13:26:39Z</time>
      </trkpt>
      <trkpt lat="43.33524" lon="2.56743">
        <ele>228.93</ele>
        <time>2021-03-29T13:26:40Z</time>
      </trkpt>
      <trkpt lat="43.33528" lon="2.56741">
        <ele>229.89</ele>
        <time>2021-03-29T13:26:45Z</time>
      </trkpt>
      <trkpt lat="43.33532" lon="2.5674">
        <ele>229.89</ele>
        <time>2021-03-29T13:26:48Z</time>
      </trkpt>
      <trkpt lat="43.33533" lon="2.5674">
        <ele>229.89</ele>
        <time>2021-03-29T13:26:49Z</time>
      </trkpt>
      <trkpt lat="43.33535" lon="2.5674">
        <ele>229.89</ele>
        <time>2021-03-29T13:26:50Z</time>
      </trkpt>
      <trkpt lat="43.33547" lon="2.56735">
        <ele>231.33</ele>
        <time>2021-03-29T13:27:01Z</time>
      </trkpt>
      <trkpt lat="43.33548" lon="2.56734">
        <ele>231.33</ele>
        <time>2021-03-29T13:27:02Z</time>
      </trkpt>
      <trkpt lat="43.33549" lon="2.56734">
        <ele>231.33</ele>
        <time>2021-03-29T13:27:03Z</time>
      </trkpt>
      <trkpt lat="43.33551" lon="2.56731">
        <ele>231.81</ele>
        <time>2021-03-29T13:27:07Z</time>
      </trkpt>
      <trkpt lat="43.33552" lon="2.5673">
        <ele>231.81</ele>
        <time>2021-03-29T13:27:08Z</time>
      </trkpt>
      <trkpt lat="43.33555" lon="2.56724">
        <ele>232.78</ele>
        <time>2021-03-29T13:27:14Z</time>
      </trkpt>
      <trkpt lat="43.3355" lon="2.56717">
        <ele>233.26</ele>
        <time>2021-03-29T13:27:23Z</time>
      </trkpt>
      <trkpt lat="43.33549" lon="2.56717">
        <ele>233.74</ele>
        <time>2021-03-29T13:27:24Z</time>
      </trkpt>
      <trkpt lat="43.33548" lon="2.56717">
        <ele>233.74</ele>
        <time>2021-03-29T13:27:25Z</time>
      </trkpt>
      <trkpt lat="43.33536" lon="2.56717">
        <ele>235.66</ele>
        <time>2021-03-29T13:27:37Z</time>
      </trkpt>
      <trkpt lat="43.33535" lon="2.56717">
        <ele>235.66</ele>
        <time>2021-03-29T13:27:38Z</time>
      </trkpt>
      <trkpt lat="43.33531" lon="2.56717">
        <ele>234.22</ele>
        <time>2021-03-29T13:27:42Z</time>
      </trkpt>
      <trkpt lat="43.3353" lon="2.56717">
        <ele>234.22</ele>
        <time>2021-03-29T13:27:44Z</time>
      </trkpt>
      <trkpt lat="43.33528" lon="2.56717">
        <ele>234.22</ele>
        <time>2021-03-29T13:27:45Z</time>
      </trkpt>
      <trkpt lat="43.33524" lon="2.56717">
        <ele>235.66</ele>
        <time>2021-03-29T13:27:50Z</time>
      </trkpt>
      <trkpt lat="43.33522" lon="2.56716">
        <ele>236.14</ele>
        <time>2021-03-29T13:27:51Z</time>
      </trkpt>
      <trkpt lat="43.33509" lon="2.56713">
        <ele>237.58</ele>
        <time>2021-03-29T13:28:01Z</time>
      </trkpt>
      <trkpt lat="43.33501" lon="2.56711">
        <ele>238.06</ele>
        <time>2021-03-29T13:28:09Z</time>
      </trkpt>
      <trkpt lat="43.33498" lon="2.56705">
        <ele>238.54</ele>
        <time>2021-03-29T13:28:15Z</time>
      </trkpt>
      <trkpt lat="43.33497" lon="2.56703">
        <ele>238.54</ele>
        <time>2021-03-29T13:28:16Z</time>
      </trkpt>
      <trkpt lat="43.33496" lon="2.56699">
        <ele>240.47</ele>
        <time>2021-03-29T13:28:18Z</time>
      </trkpt>
      <trkpt lat="43.33496" lon="2.56697">
        <ele>241.91</ele>
        <time>2021-03-29T13:28:20Z</time>
      </trkpt>
      <trkpt lat="43.33497" lon="2.56695">
        <ele>241.91</ele>
        <time>2021-03-29T13:28:22Z</time>
      </trkpt>
      <trkpt lat="43.33498" lon="2.56694">
        <ele>240.47</ele>
        <time>2021-03-29T13:28:23Z</time>
      </trkpt>
      <trkpt lat="43.33499" lon="2.56693">
        <ele>240.47</ele>
        <time>2021-03-29T13:28:24Z</time>
      </trkpt>
      <trkpt lat="43.335" lon="2.56693">
        <ele>240.47</ele>
        <time>2021-03-29T13:28:25Z</time>
      </trkpt>
      <trkpt lat="43.33505" lon="2.5669">
        <ele>240.47</ele>
        <time>2021-03-29T13:28:33Z</time>
      </trkpt>
      <trkpt lat="43.33507" lon="2.56691">
        <ele>240.47</ele>
        <time>2021-03-29T13:28:34Z</time>
      </trkpt>
      <trkpt lat="43.33517" lon="2.56689">
        <ele>240.47</ele>
        <time>2021-03-29T13:28:44Z</time>
      </trkpt>
      <trkpt lat="43.33525" lon="2.56686">
        <ele>242.39</ele>
        <time>2021-03-29T13:28:52Z</time>
      </trkpt>
      <trkpt lat="43.33527" lon="2.56685">
        <ele>240.95</ele>
        <time>2021-03-29T13:28:54Z</time>
      </trkpt>
      <trkpt lat="43.33528" lon="2.56684">
        <ele>241.43</ele>
        <time>2021-03-29T13:28:55Z</time>
      </trkpt>
      <trkpt lat="43.33538" lon="2.56677">
        <ele>242.87</ele>
        <time>2021-03-29T13:29:06Z</time>
      </trkpt>
      <trkpt lat="43.33547" lon="2.56668">
        <ele>243.35</ele>
        <time>2021-03-29T13:29:16Z</time>
      </trkpt>
      <trkpt lat="43.33555" lon="2.56662">
        <ele>244.31</ele>
        <time>2021-03-29T13:29:25Z</time>
      </trkpt>
      <trkpt lat="43.33564" lon="2.56654">
        <ele>245.27</ele>
        <time>2021-03-29T13:29:36Z</time>
      </trkpt>
      <trkpt lat="43.33566" lon="2.56653">
        <ele>245.27</ele>
        <time>2021-03-29T13:29:37Z</time>
      </trkpt>
      <trkpt lat="43.33567" lon="2.56652">
        <ele>245.27</ele>
        <time>2021-03-29T13:29:38Z</time>
      </trkpt>
      <trkpt lat="43.33568" lon="2.56651">
        <ele>245.27</ele>
        <time>2021-03-29T13:29:39Z</time>
      </trkpt>
      <trkpt lat="43.33582" lon="2.56643">
        <ele>246.72</ele>
        <time>2021-03-29T13:29:51Z</time>
      </trkpt>
      <trkpt lat="43.33583" lon="2.56642">
        <ele>246.72</ele>
        <time>2021-03-29T13:29:52Z</time>
      </trkpt>
      <trkpt lat="43.33585" lon="2.5664">
        <ele>246.72</ele>
        <time>2021-03-29T13:29:53Z</time>
      </trkpt>
      <trkpt lat="43.33586" lon="2.56639">
        <ele>246.72</ele>
        <time>2021-03-29T13:29:54Z</time>
      </trkpt>
      <trkpt lat="43.33589" lon="2.56637">
        <ele>247.2</ele>
        <time>2021-03-29T13:29:59Z</time>
      </trkpt>
      <trkpt lat="43.3359" lon="2.56635">
        <ele>247.2</ele>
        <time>2021-03-29T13:30:00Z</time>
      </trkpt>
      <trkpt lat="43.33591" lon="2.56634">
        <ele>247.68</ele>
        <time>2021-03-29T13:30:01Z</time>
      </trkpt>
      <trkpt lat="43.33594" lon="2.56629">
        <ele>247.68</ele>
        <time>2021-03-29T13:30:06Z</time>
      </trkpt>
      <trkpt lat="43.33595" lon="2.56628">
        <ele>248.16</ele>
        <time>2021-03-29T13:30:07Z</time>
      </trkpt>
      <trkpt lat="43.33596" lon="2.56625">
        <ele>248.16</ele>
        <time>2021-03-29T13:30:08Z</time>
      </trkpt>
      <trkpt lat="43.33597" lon="2.56623">
        <ele>248.16</ele>
        <time>2021-03-29T13:30:09Z</time>
      </trkpt>
      <trkpt lat="43.33601" lon="2.56612">
        <ele>249.6</ele>
        <time>2021-03-29T13:30:19Z</time>
      </trkpt>
      <trkpt lat="43.33603" lon="2.56603">
        <ele>250.08</ele>
        <time>2021-03-29T13:30:25Z</time>
      </trkpt>
      <trkpt lat="43.33603" lon="2.56601">
        <ele>250.56</ele>
        <time>2021-03-29T13:30:26Z</time>
      </trkpt>
      <trkpt lat="43.33602" lon="2.56591">
        <ele>250.56</ele>
        <time>2021-03-29T13:30:33Z</time>
      </trkpt>
      <trkpt lat="43.33601" lon="2.56588">
        <ele>251.04</ele>
        <time>2021-03-29T13:30:34Z</time>
      </trkpt>
      <trkpt lat="43.33601" lon="2.56586">
        <ele>250.56</ele>
        <time>2021-03-29T13:30:35Z</time>
      </trkpt>
      <trkpt lat="43.336" lon="2.56584">
        <ele>251.52</ele>
        <time>2021-03-29T13:30:36Z</time>
      </trkpt>
      <trkpt lat="43.33597" lon="2.5657">
        <ele>252.48</ele>
        <time>2021-03-29T13:30:48Z</time>
      </trkpt>
      <trkpt lat="43.33594" lon="2.56561">
        <ele>253.44</ele>
        <time>2021-03-29T13:30:55Z</time>
      </trkpt>
      <trkpt lat="43.33593" lon="2.56559">
        <ele>253.44</ele>
        <time>2021-03-29T13:30:56Z</time>
      </trkpt>
      <trkpt lat="43.33592" lon="2.56558">
        <ele>253.93</ele>
        <time>2021-03-29T13:30:57Z</time>
      </trkpt>
      <trkpt lat="43.3359" lon="2.56553">
        <ele>253.93</ele>
        <time>2021-03-29T13:31:02Z</time>
      </trkpt>
      <trkpt lat="43.33589" lon="2.56551">
        <ele>253.93</ele>
        <time>2021-03-29T13:31:03Z</time>
      </trkpt>
      <trkpt lat="43.33591" lon="2.56535">
        <ele>254.41</ele>
        <time>2021-03-29T13:31:16Z</time>
      </trkpt>
      <trkpt lat="43.33591" lon="2.56533">
        <ele>254.41</ele>
        <time>2021-03-29T13:31:17Z</time>
      </trkpt>
      <trkpt lat="43.33591" lon="2.56532">
        <ele>254.89</ele>
        <time>2021-03-29T13:31:18Z</time>
      </trkpt>
      <trkpt lat="43.33592" lon="2.56528">
        <ele>254.89</ele>
        <time>2021-03-29T13:31:22Z</time>
      </trkpt>
      <trkpt lat="43.33593" lon="2.56526">
        <ele>254.89</ele>
        <time>2021-03-29T13:31:23Z</time>
      </trkpt>
      <trkpt lat="43.33593" lon="2.56524">
        <ele>255.37</ele>
        <time>2021-03-29T13:31:24Z</time>
      </trkpt>
      <trkpt lat="43.33596" lon="2.56507">
        <ele>257.29</ele>
        <time>2021-03-29T13:31:36Z</time>
      </trkpt>
      <trkpt lat="43.33598" lon="2.56498">
        <ele>257.77</ele>
        <time>2021-03-29T13:31:43Z</time>
      </trkpt>
      <trkpt lat="43.33598" lon="2.56497">
        <ele>257.77</ele>
        <time>2021-03-29T13:31:44Z</time>
      </trkpt>
      <trkpt lat="43.33601" lon="2.56469">
        <ele>259.69</ele>
        <time>2021-03-29T13:32:03Z</time>
      </trkpt>
      <trkpt lat="43.336" lon="2.56444">
        <ele>259.69</ele>
        <time>2021-03-29T13:32:18Z</time>
      </trkpt>
      <trkpt lat="43.33603" lon="2.56437">
        <ele>260.17</ele>
        <time>2021-03-29T13:32:25Z</time>
      </trkpt>
      <trkpt lat="43.33603" lon="2.56436">
        <ele>260.17</ele>
        <time>2021-03-29T13:32:26Z</time>
      </trkpt>
      <trkpt lat="43.33605" lon="2.56432">
        <ele>261.14</ele>
        <time>2021-03-29T13:32:30Z</time>
      </trkpt>
      <trkpt lat="43.33612" lon="2.56418">
        <ele>263.06</ele>
        <time>2021-03-29T13:32:44Z</time>
      </trkpt>
      <trkpt lat="43.33613" lon="2.56415">
        <ele>263.06</ele>
        <time>2021-03-29T13:32:47Z</time>
      </trkpt>
      <trkpt lat="43.33619" lon="2.56409">
        <ele>263.06</ele>
        <time>2021-03-29T13:32:57Z</time>
      </trkpt>
      <trkpt lat="43.33619" lon="2.56408">
        <ele>263.06</ele>
        <time>2021-03-29T13:32:58Z</time>
      </trkpt>
      <trkpt lat="43.3362" lon="2.56407">
        <ele>263.06</ele>
        <time>2021-03-29T13:32:59Z</time>
      </trkpt>
      <trkpt lat="43.33622" lon="2.56406">
        <ele>261.62</ele>
        <time>2021-03-29T13:33:00Z</time>
      </trkpt>
      <trkpt lat="43.33625" lon="2.56404">
        <ele>261.62</ele>
        <time>2021-03-29T13:33:05Z</time>
      </trkpt>
      <trkpt lat="43.33626" lon="2.56403">
        <ele>261.62</ele>
        <time>2021-03-29T13:33:06Z</time>
      </trkpt>
      <trkpt lat="43.3363" lon="2.56401">
        <ele>261.62</ele>
        <time>2021-03-29T13:33:11Z</time>
      </trkpt>
      <trkpt lat="43.33632" lon="2.564">
        <ele>261.62</ele>
        <time>2021-03-29T13:33:12Z</time>
      </trkpt>
      <trkpt lat="43.33642" lon="2.56395">
        <ele>261.62</ele>
        <time>2021-03-29T13:33:23Z</time>
      </trkpt>
      <trkpt lat="43.33657" lon="2.56388">
        <ele>260.17</ele>
        <time>2021-03-29T13:33:36Z</time>
      </trkpt>
      <trkpt lat="43.33661" lon="2.56389">
        <ele>260.17</ele>
        <time>2021-03-29T13:33:41Z</time>
      </trkpt>
      <trkpt lat="43.33662" lon="2.56391">
        <ele>260.17</ele>
        <time>2021-03-29T13:33:42Z</time>
      </trkpt>
      <trkpt lat="43.33664" lon="2.56393">
        <ele>260.17</ele>
        <time>2021-03-29T13:33:43Z</time>
      </trkpt>
      <trkpt lat="43.33667" lon="2.56395">
        <ele>260.17</ele>
        <time>2021-03-29T13:33:54Z</time>
      </trkpt>
      <trkpt lat="43.33667" lon="2.56415">
        <ele>261.14</ele>
        <time>2021-03-29T13:34:08Z</time>
      </trkpt>
      <trkpt lat="43.33669" lon="2.56421">
        <ele>261.14</ele>
        <time>2021-03-29T13:34:12Z</time>
      </trkpt>
      <trkpt lat="43.33672" lon="2.56439">
        <ele>261.14</ele>
        <time>2021-03-29T13:34:26Z</time>
      </trkpt>
      <trkpt lat="43.33673" lon="2.5644">
        <ele>261.14</ele>
        <time>2021-03-29T13:34:27Z</time>
      </trkpt>
      <trkpt lat="43.33676" lon="2.56443">
        <ele>262.1</ele>
        <time>2021-03-29T13:34:33Z</time>
      </trkpt>
      <trkpt lat="43.33678" lon="2.56443">
        <ele>262.1</ele>
        <time>2021-03-29T13:34:34Z</time>
      </trkpt>
      <trkpt lat="43.33679" lon="2.56444">
        <ele>262.1</ele>
        <time>2021-03-29T13:34:35Z</time>
      </trkpt>
      <trkpt lat="43.33683" lon="2.56445">
        <ele>262.58</ele>
        <time>2021-03-29T13:34:40Z</time>
      </trkpt>
      <trkpt lat="43.33686" lon="2.56444">
        <ele>263.54</ele>
        <time>2021-03-29T13:34:42Z</time>
      </trkpt>
      <trkpt lat="43.33697" lon="2.56439">
        <ele>264.98</ele>
        <time>2021-03-29T13:34:57Z</time>
      </trkpt>
      <trkpt lat="43.33707" lon="2.56426">
        <ele>265.46</ele>
        <time>2021-03-29T13:35:13Z</time>
      </trkpt>
      <trkpt lat="43.33722" lon="2.5641">
        <ele>267.38</ele>
        <time>2021-03-29T13:35:31Z</time>
      </trkpt>
      <trkpt lat="43.33724" lon="2.56408">
        <ele>267.86</ele>
        <time>2021-03-29T13:35:33Z</time>
      </trkpt>
      <trkpt lat="43.33728" lon="2.56405">
        <ele>267.86</ele>
        <time>2021-03-29T13:35:37Z</time>
      </trkpt>
      <trkpt lat="43.33729" lon="2.56403">
        <ele>267.86</ele>
        <time>2021-03-29T13:35:38Z</time>
      </trkpt>
      <trkpt lat="43.3373" lon="2.56402">
        <ele>267.86</ele>
        <time>2021-03-29T13:35:39Z</time>
      </trkpt>
      <trkpt lat="43.33736" lon="2.56397">
        <ele>268.35</ele>
        <time>2021-03-29T13:35:45Z</time>
      </trkpt>
      <trkpt lat="43.33741" lon="2.56395">
        <ele>268.83</ele>
        <time>2021-03-29T13:35:50Z</time>
      </trkpt>
      <trkpt lat="43.33743" lon="2.56394">
        <ele>269.31</ele>
        <time>2021-03-29T13:35:51Z</time>
      </trkpt>
      <trkpt lat="43.33752" lon="2.56385">
        <ele>269.79</ele>
        <time>2021-03-29T13:36:02Z</time>
      </trkpt>
      <trkpt lat="43.33753" lon="2.56384">
        <ele>269.79</ele>
        <time>2021-03-29T13:36:03Z</time>
      </trkpt>
      <trkpt lat="43.33762" lon="2.56366">
        <ele>271.23</ele>
        <time>2021-03-29T13:36:19Z</time>
      </trkpt>
      <trkpt lat="43.33773" lon="2.56348">
        <ele>272.67</ele>
        <time>2021-03-29T13:36:35Z</time>
      </trkpt>
      <trkpt lat="43.33781" lon="2.56334">
        <ele>274.11</ele>
        <time>2021-03-29T13:36:47Z</time>
      </trkpt>
      <trkpt lat="43.33787" lon="2.56324">
        <ele>274.11</ele>
        <time>2021-03-29T13:36:56Z</time>
      </trkpt>
      <trkpt lat="43.33787" lon="2.56323">
        <ele>274.59</ele>
        <time>2021-03-29T13:36:57Z</time>
      </trkpt>
      <trkpt lat="43.3379" lon="2.5632">
        <ele>274.59</ele>
        <time>2021-03-29T13:37:01Z</time>
      </trkpt>
      <trkpt lat="43.33791" lon="2.56319">
        <ele>275.07</ele>
        <time>2021-03-29T13:37:02Z</time>
      </trkpt>
      <trkpt lat="43.33792" lon="2.56318">
        <ele>274.59</ele>
        <time>2021-03-29T13:37:05Z</time>
      </trkpt>
      <trkpt lat="43.33794" lon="2.56316">
        <ele>276.04</ele>
        <time>2021-03-29T13:37:07Z</time>
      </trkpt>
      <trkpt lat="43.33801" lon="2.56314">
        <ele>277</ele>
        <time>2021-03-29T13:37:18Z</time>
      </trkpt>
      <trkpt lat="43.33804" lon="2.5631">
        <ele>277.48</ele>
        <time>2021-03-29T13:37:23Z</time>
      </trkpt>
      <trkpt lat="43.33806" lon="2.5631">
        <ele>277.48</ele>
        <time>2021-03-29T13:37:24Z</time>
      </trkpt>
      <trkpt lat="43.3381" lon="2.56309">
        <ele>277.48</ele>
        <time>2021-03-29T13:37:29Z</time>
      </trkpt>
      <trkpt lat="43.33814" lon="2.56307">
        <ele>277.48</ele>
        <time>2021-03-29T13:37:33Z</time>
      </trkpt>
      <trkpt lat="43.33819" lon="2.56305">
        <ele>277.48</ele>
        <time>2021-03-29T13:37:38Z</time>
      </trkpt>
      <trkpt lat="43.3382" lon="2.56304">
        <ele>277.48</ele>
        <time>2021-03-29T13:37:39Z</time>
      </trkpt>
      <trkpt lat="43.33834" lon="2.56291">
        <ele>278.92</ele>
        <time>2021-03-29T13:37:51Z</time>
      </trkpt>
      <trkpt lat="43.33841" lon="2.56281">
        <ele>278.92</ele>
        <time>2021-03-29T13:38:01Z</time>
      </trkpt>
      <trkpt lat="43.33842" lon="2.56279">
        <ele>278.92</ele>
        <time>2021-03-29T13:38:03Z</time>
      </trkpt>
      <trkpt lat="43.33843" lon="2.56278">
        <ele>278.92</ele>
        <time>2021-03-29T13:38:04Z</time>
      </trkpt>
      <trkpt lat="43.33844" lon="2.56276">
        <ele>278.92</ele>
        <time>2021-03-29T13:38:05Z</time>
      </trkpt>
      <trkpt lat="43.33846" lon="2.56275">
        <ele>278.92</ele>
        <time>2021-03-29T13:38:06Z</time>
      </trkpt>
      <trkpt lat="43.33848" lon="2.56272">
        <ele>278.92</ele>
        <time>2021-03-29T13:38:10Z</time>
      </trkpt>
      <trkpt lat="43.3385" lon="2.56271">
        <ele>278.92</ele>
        <time>2021-03-29T13:38:11Z</time>
      </trkpt>
      <trkpt lat="43.33861" lon="2.56259">
        <ele>279.88</ele>
        <time>2021-03-29T13:38:22Z</time>
      </trkpt>
      <trkpt lat="43.33872" lon="2.56244">
        <ele>280.84</ele>
        <time>2021-03-29T13:38:37Z</time>
      </trkpt>
      <trkpt lat="43.33883" lon="2.56228">
        <ele>282.28</ele>
        <time>2021-03-29T13:38:52Z</time>
      </trkpt>
      <trkpt lat="43.33891" lon="2.56211">
        <ele>283.73</ele>
        <time>2021-03-29T13:39:07Z</time>
      </trkpt>
      <trkpt lat="43.33899" lon="2.56195">
        <ele>285.65</ele>
        <time>2021-03-29T13:39:22Z</time>
      </trkpt>
      <trkpt lat="43.33911" lon="2.56172">
        <ele>286.13</ele>
        <time>2021-03-29T13:39:38Z</time>
      </trkpt>
      <trkpt lat="43.33914" lon="2.56168">
        <ele>286.61</ele>
        <time>2021-03-29T13:39:44Z</time>
      </trkpt>
      <trkpt lat="43.33917" lon="2.56165">
        <ele>287.09</ele>
        <time>2021-03-29T13:39:49Z</time>
      </trkpt>
      <trkpt lat="43.33919" lon="2.56162">
        <ele>287.09</ele>
        <time>2021-03-29T13:39:51Z</time>
      </trkpt>
      <trkpt lat="43.33923" lon="2.56157">
        <ele>288.05</ele>
        <time>2021-03-29T13:39:56Z</time>
      </trkpt>
      <trkpt lat="43.33924" lon="2.56156">
        <ele>288.05</ele>
        <time>2021-03-29T13:39:57Z</time>
      </trkpt>
      <trkpt lat="43.33925" lon="2.56154">
        <ele>288.53</ele>
        <time>2021-03-29T13:39:58Z</time>
      </trkpt>
      <trkpt lat="43.33926" lon="2.56153">
        <ele>288.53</ele>
        <time>2021-03-29T13:39:59Z</time>
      </trkpt>
      <trkpt lat="43.3393" lon="2.56148">
        <ele>288.53</ele>
        <time>2021-03-29T13:40:04Z</time>
      </trkpt>
      <trkpt lat="43.33931" lon="2.56147">
        <ele>288.53</ele>
        <time>2021-03-29T13:40:05Z</time>
      </trkpt>
      <trkpt lat="43.33932" lon="2.56145">
        <ele>288.53</ele>
        <time>2021-03-29T13:40:06Z</time>
      </trkpt>
      <trkpt lat="43.33938" lon="2.56131">
        <ele>290.46</ele>
        <time>2021-03-29T13:40:17Z</time>
      </trkpt>
      <trkpt lat="43.33938" lon="2.5613">
        <ele>290.46</ele>
        <time>2021-03-29T13:40:18Z</time>
      </trkpt>
      <trkpt lat="43.33939" lon="2.56127">
        <ele>290.46</ele>
        <time>2021-03-29T13:40:19Z</time>
      </trkpt>
      <trkpt lat="43.3394" lon="2.56125">
        <ele>290.94</ele>
        <time>2021-03-29T13:40:20Z</time>
      </trkpt>
      <trkpt lat="43.33941" lon="2.56123">
        <ele>290.94</ele>
        <time>2021-03-29T13:40:21Z</time>
      </trkpt>
      <trkpt lat="43.33942" lon="2.5612">
        <ele>290.94</ele>
        <time>2021-03-29T13:40:22Z</time>
      </trkpt>
      <trkpt lat="43.33946" lon="2.56118">
        <ele>290.94</ele>
        <time>2021-03-29T13:40:27Z</time>
      </trkpt>
      <trkpt lat="43.33947" lon="2.56116">
        <ele>291.42</ele>
        <time>2021-03-29T13:40:28Z</time>
      </trkpt>
      <trkpt lat="43.33948" lon="2.56114">
        <ele>291.42</ele>
        <time>2021-03-29T13:40:29Z</time>
      </trkpt>
      <trkpt lat="43.33951" lon="2.56112">
        <ele>291.9</ele>
        <time>2021-03-29T13:40:34Z</time>
      </trkpt>
      <trkpt lat="43.33952" lon="2.56111">
        <ele>292.38</ele>
        <time>2021-03-29T13:40:35Z</time>
      </trkpt>
      <trkpt lat="43.33959" lon="2.56107">
        <ele>292.86</ele>
        <time>2021-03-29T13:40:42Z</time>
      </trkpt>
      <trkpt lat="43.33963" lon="2.56106">
        <ele>293.34</ele>
        <time>2021-03-29T13:40:48Z</time>
      </trkpt>
      <trkpt lat="43.33965" lon="2.56106">
        <ele>293.34</ele>
        <time>2021-03-29T13:40:49Z</time>
      </trkpt>
      <trkpt lat="43.33967" lon="2.56106">
        <ele>293.34</ele>
        <time>2021-03-29T13:40:50Z</time>
      </trkpt>
      <trkpt lat="43.33973" lon="2.56103">
        <ele>293.34</ele>
        <time>2021-03-29T13:40:56Z</time>
      </trkpt>
      <trkpt lat="43.33974" lon="2.56103">
        <ele>293.34</ele>
        <time>2021-03-29T13:40:57Z</time>
      </trkpt>
      <trkpt lat="43.33976" lon="2.56102">
        <ele>293.34</ele>
        <time>2021-03-29T13:40:58Z</time>
      </trkpt>
      <trkpt lat="43.33978" lon="2.56101">
        <ele>293.34</ele>
        <time>2021-03-29T13:40:59Z</time>
      </trkpt>
      <trkpt lat="43.3398" lon="2.561">
        <ele>293.82</ele>
        <time>2021-03-29T13:41:03Z</time>
      </trkpt>
      <trkpt lat="43.33981" lon="2.56099">
        <ele>294.3</ele>
        <time>2021-03-29T13:41:04Z</time>
      </trkpt>
      <trkpt lat="43.33982" lon="2.56098">
        <ele>294.3</ele>
        <time>2021-03-29T13:41:05Z</time>
      </trkpt>
      <trkpt lat="43.33989" lon="2.56094">
        <ele>295.26</ele>
        <time>2021-03-29T13:41:12Z</time>
      </trkpt>
      <trkpt lat="43.3399" lon="2.56093">
        <ele>295.26</ele>
        <time>2021-03-29T13:41:13Z</time>
      </trkpt>
      <trkpt lat="43.33992" lon="2.56093">
        <ele>295.26</ele>
        <time>2021-03-29T13:41:14Z</time>
      </trkpt>
      <trkpt lat="43.33993" lon="2.56092">
        <ele>295.26</ele>
        <time>2021-03-29T13:41:15Z</time>
      </trkpt>
      <trkpt lat="43.33996" lon="2.56092">
        <ele>295.26</ele>
        <time>2021-03-29T13:41:19Z</time>
      </trkpt>
      <trkpt lat="43.33998" lon="2.56092">
        <ele>295.26</ele>
        <time>2021-03-29T13:41:20Z</time>
      </trkpt>
      <trkpt lat="43.34" lon="2.56091">
        <ele>295.26</ele>
        <time>2021-03-29T13:41:21Z</time>
      </trkpt>
      <trkpt lat="43.34005" lon="2.56091">
        <ele>296.22</ele>
        <time>2021-03-29T13:41:26Z</time>
      </trkpt>
      <trkpt lat="43.34007" lon="2.56091">
        <ele>296.22</ele>
        <time>2021-03-29T13:41:27Z</time>
      </trkpt>
      <trkpt lat="43.34008" lon="2.5609">
        <ele>296.22</ele>
        <time>2021-03-29T13:41:28Z</time>
      </trkpt>
      <trkpt lat="43.34012" lon="2.56087">
        <ele>296.22</ele>
        <time>2021-03-29T13:41:33Z</time>
      </trkpt>
      <trkpt lat="43.34014" lon="2.56087">
        <ele>296.7</ele>
        <time>2021-03-29T13:41:34Z</time>
      </trkpt>
      <trkpt lat="43.34023" lon="2.56084">
        <ele>297.18</ele>
        <time>2021-03-29T13:41:43Z</time>
      </trkpt>
      <trkpt lat="43.34027" lon="2.56082">
        <ele>297.67</ele>
        <time>2021-03-29T13:41:47Z</time>
      </trkpt>
      <trkpt lat="43.34032" lon="2.56082">
        <ele>297.67</ele>
        <time>2021-03-29T13:41:52Z</time>
      </trkpt>
      <trkpt lat="43.34033" lon="2.56082">
        <ele>297.67</ele>
        <time>2021-03-29T13:41:53Z</time>
      </trkpt>
      <trkpt lat="43.34037" lon="2.56082">
        <ele>298.15</ele>
        <time>2021-03-29T13:41:57Z</time>
      </trkpt>
      <trkpt lat="43.34038" lon="2.56083">
        <ele>298.15</ele>
        <time>2021-03-29T13:41:58Z</time>
      </trkpt>
      <trkpt lat="43.34049" lon="2.56082">
        <ele>299.11</ele>
        <time>2021-03-29T13:42:08Z</time>
      </trkpt>
      <trkpt lat="43.34063" lon="2.56084">
        <ele>301.03</ele>
        <time>2021-03-29T13:42:21Z</time>
      </trkpt>
      <trkpt lat="43.34066" lon="2.56085">
        <ele>301.51</ele>
        <time>2021-03-29T13:42:24Z</time>
      </trkpt>
      <trkpt lat="43.34067" lon="2.56085">
        <ele>301.51</ele>
        <time>2021-03-29T13:42:25Z</time>
      </trkpt>
      <trkpt lat="43.34069" lon="2.56085">
        <ele>301.51</ele>
        <time>2021-03-29T13:42:26Z</time>
      </trkpt>
      <trkpt lat="43.34081" lon="2.56082">
        <ele>302.95</ele>
        <time>2021-03-29T13:42:37Z</time>
      </trkpt>
      <trkpt lat="43.34086" lon="2.56076">
        <ele>303.43</ele>
        <time>2021-03-29T13:42:42Z</time>
      </trkpt>
      <trkpt lat="43.34097" lon="2.5607">
        <ele>304.39</ele>
        <time>2021-03-29T13:42:52Z</time>
      </trkpt>
      <trkpt lat="43.34099" lon="2.56069">
        <ele>304.39</ele>
        <time>2021-03-29T13:42:54Z</time>
      </trkpt>
      <trkpt lat="43.341" lon="2.56068">
        <ele>304.88</ele>
        <time>2021-03-29T13:42:55Z</time>
      </trkpt>
      <trkpt lat="43.34101" lon="2.56067">
        <ele>305.36</ele>
        <time>2021-03-29T13:42:56Z</time>
      </trkpt>
      <trkpt lat="43.34103" lon="2.56066">
        <ele>305.36</ele>
        <time>2021-03-29T13:42:57Z</time>
      </trkpt>
      <trkpt lat="43.34106" lon="2.56063">
        <ele>305.84</ele>
        <time>2021-03-29T13:43:02Z</time>
      </trkpt>
      <trkpt lat="43.34108" lon="2.56062">
        <ele>306.32</ele>
        <time>2021-03-29T13:43:03Z</time>
      </trkpt>
      <trkpt lat="43.34118" lon="2.56053">
        <ele>306.8</ele>
        <time>2021-03-29T13:43:13Z</time>
      </trkpt>
      <trkpt lat="43.34119" lon="2.56051">
        <ele>306.8</ele>
        <time>2021-03-29T13:43:15Z</time>
      </trkpt>
      <trkpt lat="43.3412" lon="2.5605">
        <ele>306.8</ele>
        <time>2021-03-29T13:43:16Z</time>
      </trkpt>
      <trkpt lat="43.34122" lon="2.56049">
        <ele>306.8</ele>
        <time>2021-03-29T13:43:17Z</time>
      </trkpt>
      <trkpt lat="43.34131" lon="2.56041">
        <ele>308.24</ele>
        <time>2021-03-29T13:43:28Z</time>
      </trkpt>
      <trkpt lat="43.34135" lon="2.56038">
        <ele>308.72</ele>
        <time>2021-03-29T13:43:40Z</time>
      </trkpt>
      <trkpt lat="43.34134" lon="2.56037">
        <ele>309.2</ele>
        <time>2021-03-29T13:43:59Z</time>
      </trkpt>
      <trkpt lat="43.34134" lon="2.56037">
        <ele>307.76</ele>
        <time>2021-03-29T13:44:06Z</time>
      </trkpt>
      <trkpt lat="43.34133" lon="2.56039">
        <ele>307.76</ele>
        <time>2021-03-29T13:44:38Z</time>
      </trkpt>
      <trkpt lat="43.34132" lon="2.56041">
        <ele>308.72</ele>
        <time>2021-03-29T13:45:03Z</time>
      </trkpt>
      <trkpt lat="43.34131" lon="2.5604">
        <ele>308.72</ele>
        <time>2021-03-29T13:45:30Z</time>
      </trkpt>
      <trkpt lat="43.34132" lon="2.56043">
        <ele>309.2</ele>
        <time>2021-03-29T13:45:52Z</time>
      </trkpt>
      <trkpt lat="43.34133" lon="2.56039">
        <ele>308.72</ele>
        <time>2021-03-29T13:46:01Z</time>
      </trkpt>
      <trkpt lat="43.34134" lon="2.56036">
        <ele>308.72</ele>
        <time>2021-03-29T13:46:39Z</time>
      </trkpt>
      <trkpt lat="43.34131" lon="2.56036">
        <ele>308.72</ele>
        <time>2021-03-29T13:47:09Z</time>
      </trkpt>
      <trkpt lat="43.3413" lon="2.56043">
        <ele>308.72</ele>
        <time>2021-03-29T13:47:14Z</time>
      </trkpt>
      <trkpt lat="43.34129" lon="2.56044">
        <ele>308.72</ele>
        <time>2021-03-29T13:47:15Z</time>
      </trkpt>
      <trkpt lat="43.34129" lon="2.56045">
        <ele>308.72</ele>
        <time>2021-03-29T13:47:16Z</time>
      </trkpt>
      <trkpt lat="43.34128" lon="2.56047">
        <ele>308.72</ele>
        <time>2021-03-29T13:47:17Z</time>
      </trkpt>
      <trkpt lat="43.34128" lon="2.56048">
        <ele>308.72</ele>
        <time>2021-03-29T13:47:18Z</time>
      </trkpt>
      <trkpt lat="43.34127" lon="2.5605">
        <ele>310.16</ele>
        <time>2021-03-29T13:47:20Z</time>
      </trkpt>
      <trkpt lat="43.34116" lon="2.56077">
        <ele>312.57</ele>
        <time>2021-03-29T13:47:38Z</time>
      </trkpt>
      <trkpt lat="43.34116" lon="2.56088">
        <ele>313.05</ele>
        <time>2021-03-29T13:47:47Z</time>
      </trkpt>
      <trkpt lat="43.34116" lon="2.5609">
        <ele>313.05</ele>
        <time>2021-03-29T13:47:48Z</time>
      </trkpt>
      <trkpt lat="43.34122" lon="2.56097">
        <ele>314.01</ele>
        <time>2021-03-29T13:47:56Z</time>
      </trkpt>
      <trkpt lat="43.34123" lon="2.56097">
        <ele>314.01</ele>
        <time>2021-03-29T13:47:57Z</time>
      </trkpt>
      <trkpt lat="43.34124" lon="2.56097">
        <ele>314.01</ele>
        <time>2021-03-29T13:47:58Z</time>
      </trkpt>
      <trkpt lat="43.34125" lon="2.56097">
        <ele>314.01</ele>
        <time>2021-03-29T13:47:59Z</time>
      </trkpt>
      <trkpt lat="43.34147" lon="2.56088">
        <ele>314.97</ele>
        <time>2021-03-29T13:48:13Z</time>
      </trkpt>
      <trkpt lat="43.34157" lon="2.56088">
        <ele>316.41</ele>
        <time>2021-03-29T13:48:25Z</time>
      </trkpt>
      <trkpt lat="43.34167" lon="2.56093">
        <ele>317.85</ele>
        <time>2021-03-29T13:48:34Z</time>
      </trkpt>
      <trkpt lat="43.34178" lon="2.56095">
        <ele>318.33</ele>
        <time>2021-03-29T13:48:44Z</time>
      </trkpt>
      <trkpt lat="43.34189" lon="2.56103">
        <ele>318.33</ele>
        <time>2021-03-29T13:48:55Z</time>
      </trkpt>
      <trkpt lat="43.34193" lon="2.56112">
        <ele>319.3</ele>
        <time>2021-03-29T13:49:06Z</time>
      </trkpt>
      <trkpt lat="43.34196" lon="2.56113">
        <ele>319.3</ele>
        <time>2021-03-29T13:49:13Z</time>
      </trkpt>
      <trkpt lat="43.34197" lon="2.56114">
        <ele>319.3</ele>
        <time>2021-03-29T13:49:14Z</time>
      </trkpt>
      <trkpt lat="43.34201" lon="2.56117">
        <ele>319.3</ele>
        <time>2021-03-29T13:49:20Z</time>
      </trkpt>
      <trkpt lat="43.34202" lon="2.56118">
        <ele>319.3</ele>
        <time>2021-03-29T13:49:21Z</time>
      </trkpt>
      <trkpt lat="43.34215" lon="2.56123">
        <ele>319.3</ele>
        <time>2021-03-29T13:49:30Z</time>
      </trkpt>
      <trkpt lat="43.34224" lon="2.56127">
        <ele>319.3</ele>
        <time>2021-03-29T13:49:37Z</time>
      </trkpt>
      <trkpt lat="43.34225" lon="2.56128">
        <ele>319.3</ele>
        <time>2021-03-29T13:49:38Z</time>
      </trkpt>
      <trkpt lat="43.34228" lon="2.5613">
        <ele>319.3</ele>
        <time>2021-03-29T13:49:41Z</time>
      </trkpt>
      <trkpt lat="43.34229" lon="2.56131">
        <ele>319.3</ele>
        <time>2021-03-29T13:49:42Z</time>
      </trkpt>
      <trkpt lat="43.3423" lon="2.56132">
        <ele>319.3</ele>
        <time>2021-03-29T13:49:43Z</time>
      </trkpt>
      <trkpt lat="43.34233" lon="2.56145">
        <ele>319.78</ele>
        <time>2021-03-29T13:49:55Z</time>
      </trkpt>
      <trkpt lat="43.3423" lon="2.56156">
        <ele>320.26</ele>
        <time>2021-03-29T13:50:03Z</time>
      </trkpt>
      <trkpt lat="43.3423" lon="2.56168">
        <ele>320.74</ele>
        <time>2021-03-29T13:50:13Z</time>
      </trkpt>
      <trkpt lat="43.3423" lon="2.56171">
        <ele>320.74</ele>
        <time>2021-03-29T13:50:14Z</time>
      </trkpt>
      <trkpt lat="43.3423" lon="2.56173">
        <ele>320.74</ele>
        <time>2021-03-29T13:50:15Z</time>
      </trkpt>
      <trkpt lat="43.3423" lon="2.56181">
        <ele>321.7</ele>
        <time>2021-03-29T13:50:22Z</time>
      </trkpt>
      <trkpt lat="43.34231" lon="2.56183">
        <ele>321.7</ele>
        <time>2021-03-29T13:50:23Z</time>
      </trkpt>
      <trkpt lat="43.34231" lon="2.56193">
        <ele>322.66</ele>
        <time>2021-03-29T13:50:30Z</time>
      </trkpt>
      <trkpt lat="43.34231" lon="2.56196">
        <ele>322.66</ele>
        <time>2021-03-29T13:50:31Z</time>
      </trkpt>
      <trkpt lat="43.34236" lon="2.56227">
        <ele>324.1</ele>
        <time>2021-03-29T13:50:50Z</time>
      </trkpt>
      <trkpt lat="43.34238" lon="2.56236">
        <ele>324.1</ele>
        <time>2021-03-29T13:50:58Z</time>
      </trkpt>
      <trkpt lat="43.34239" lon="2.56237">
        <ele>324.1</ele>
        <time>2021-03-29T13:50:59Z</time>
      </trkpt>
      <trkpt lat="43.34241" lon="2.56239">
        <ele>324.1</ele>
        <time>2021-03-29T13:51:00Z</time>
      </trkpt>
      <trkpt lat="43.34242" lon="2.56241">
        <ele>324.1</ele>
        <time>2021-03-29T13:51:01Z</time>
      </trkpt>
      <trkpt lat="43.34243" lon="2.56242">
        <ele>324.1</ele>
        <time>2021-03-29T13:51:02Z</time>
      </trkpt>
      <trkpt lat="43.34244" lon="2.56244">
        <ele>324.1</ele>
        <time>2021-03-29T13:51:03Z</time>
      </trkpt>
      <trkpt lat="43.34255" lon="2.56261">
        <ele>324.1</ele>
        <time>2021-03-29T13:51:19Z</time>
      </trkpt>
      <trkpt lat="43.34265" lon="2.56278">
        <ele>323.14</ele>
        <time>2021-03-29T13:51:36Z</time>
      </trkpt>
      <trkpt lat="43.34267" lon="2.56284">
        <ele>324.58</ele>
        <time>2021-03-29T13:51:40Z</time>
      </trkpt>
      <trkpt lat="43.34266" lon="2.563">
        <ele>324.58</ele>
        <time>2021-03-29T13:51:48Z</time>
      </trkpt>
      <trkpt lat="43.34267" lon="2.56301">
        <ele>324.58</ele>
        <time>2021-03-29T13:51:49Z</time>
      </trkpt>
      <trkpt lat="43.34268" lon="2.56313">
        <ele>325.06</ele>
        <time>2021-03-29T13:51:58Z</time>
      </trkpt>
      <trkpt lat="43.34269" lon="2.56326">
        <ele>326.5</ele>
        <time>2021-03-29T13:52:09Z</time>
      </trkpt>
      <trkpt lat="43.34269" lon="2.56327">
        <ele>326.5</ele>
        <time>2021-03-29T13:52:10Z</time>
      </trkpt>
      <trkpt lat="43.3427" lon="2.56329">
        <ele>326.5</ele>
        <time>2021-03-29T13:52:11Z</time>
      </trkpt>
      <trkpt lat="43.34274" lon="2.56351">
        <ele>327.47</ele>
        <time>2021-03-29T13:52:24Z</time>
      </trkpt>
      <trkpt lat="43.34281" lon="2.56366">
        <ele>327.95</ele>
        <time>2021-03-29T13:52:35Z</time>
      </trkpt>
      <trkpt lat="43.34286" lon="2.56379">
        <ele>328.43</ele>
        <time>2021-03-29T13:52:45Z</time>
      </trkpt>
      <trkpt lat="43.34289" lon="2.56384">
        <ele>328.43</ele>
        <time>2021-03-29T13:52:49Z</time>
      </trkpt>
      <trkpt lat="43.34291" lon="2.56385">
        <ele>328.43</ele>
        <time>2021-03-29T13:52:50Z</time>
      </trkpt>
      <trkpt lat="43.34292" lon="2.56387">
        <ele>328.43</ele>
        <time>2021-03-29T13:52:51Z</time>
      </trkpt>
      <trkpt lat="43.34296" lon="2.56393">
        <ele>328.43</ele>
        <time>2021-03-29T13:52:58Z</time>
      </trkpt>
      <trkpt lat="43.34298" lon="2.56396">
        <ele>328.43</ele>
        <time>2021-03-29T13:53:00Z</time>
      </trkpt>
      <trkpt lat="43.34301" lon="2.56398">
        <ele>328.43</ele>
        <time>2021-03-29T13:53:06Z</time>
      </trkpt>
      <trkpt lat="43.34303" lon="2.56399">
        <ele>328.43</ele>
        <time>2021-03-29T13:53:07Z</time>
      </trkpt>
      <trkpt lat="43.34305" lon="2.56399">
        <ele>328.43</ele>
        <time>2021-03-29T13:53:08Z</time>
      </trkpt>
      <trkpt lat="43.34313" lon="2.56402">
        <ele>328.43</ele>
        <time>2021-03-29T13:53:17Z</time>
      </trkpt>
      <trkpt lat="43.34327" lon="2.56407">
        <ele>328.43</ele>
        <time>2021-03-29T13:53:29Z</time>
      </trkpt>
      <trkpt lat="43.3433" lon="2.56407">
        <ele>327.47</ele>
        <time>2021-03-29T13:53:36Z</time>
      </trkpt>
      <trkpt lat="43.34333" lon="2.56406">
        <ele>327.47</ele>
        <time>2021-03-29T13:53:38Z</time>
      </trkpt>
      <trkpt lat="43.34336" lon="2.56406">
        <ele>327.47</ele>
        <time>2021-03-29T13:53:39Z</time>
      </trkpt>
      <trkpt lat="43.34338" lon="2.56406">
        <ele>327.47</ele>
        <time>2021-03-29T13:53:40Z</time>
      </trkpt>
      <trkpt lat="43.3434" lon="2.56406">
        <ele>327.47</ele>
        <time>2021-03-29T13:53:41Z</time>
      </trkpt>
      <trkpt lat="43.34342" lon="2.56406">
        <ele>327.47</ele>
        <time>2021-03-29T13:53:42Z</time>
      </trkpt>
      <trkpt lat="43.34343" lon="2.56406">
        <ele>327.47</ele>
        <time>2021-03-29T13:53:43Z</time>
      </trkpt>
      <trkpt lat="43.34345" lon="2.56405">
        <ele>327.47</ele>
        <time>2021-03-29T13:53:44Z</time>
      </trkpt>
      <trkpt lat="43.34361" lon="2.56404">
        <ele>326.99</ele>
        <time>2021-03-29T13:53:57Z</time>
      </trkpt>
      <trkpt lat="43.34361" lon="2.56406">
        <ele>326.99</ele>
        <time>2021-03-29T13:53:58Z</time>
      </trkpt>
      <trkpt lat="43.34363" lon="2.56414">
        <ele>326.99</ele>
        <time>2021-03-29T13:54:05Z</time>
      </trkpt>
      <trkpt lat="43.34364" lon="2.56432">
        <ele>326.99</ele>
        <time>2021-03-29T13:54:16Z</time>
      </trkpt>
      <trkpt lat="43.34364" lon="2.56434">
        <ele>326.99</ele>
        <time>2021-03-29T13:54:17Z</time>
      </trkpt>
      <trkpt lat="43.34363" lon="2.56436">
        <ele>326.99</ele>
        <time>2021-03-29T13:54:18Z</time>
      </trkpt>
      <trkpt lat="43.34363" lon="2.56438">
        <ele>326.99</ele>
        <time>2021-03-29T13:54:19Z</time>
      </trkpt>
      <trkpt lat="43.34364" lon="2.56449">
        <ele>328.43</ele>
        <time>2021-03-29T13:54:26Z</time>
      </trkpt>
      <trkpt lat="43.34366" lon="2.56476">
        <ele>328.43</ele>
        <time>2021-03-29T13:54:40Z</time>
      </trkpt>
      <trkpt lat="43.34366" lon="2.56478">
        <ele>328.43</ele>
        <time>2021-03-29T13:54:41Z</time>
      </trkpt>
      <trkpt lat="43.34366" lon="2.56479">
        <ele>328.43</ele>
        <time>2021-03-29T13:54:42Z</time>
      </trkpt>
      <trkpt lat="43.34365" lon="2.56508">
        <ele>328.91</ele>
        <time>2021-03-29T13:55:01Z</time>
      </trkpt>
      <trkpt lat="43.34367" lon="2.56537">
        <ele>328.91</ele>
        <time>2021-03-29T13:55:17Z</time>
      </trkpt>
      <trkpt lat="43.3437" lon="2.56551">
        <ele>329.87</ele>
        <time>2021-03-29T13:55:27Z</time>
      </trkpt>
      <trkpt lat="43.34372" lon="2.56561">
        <ele>328.91</ele>
        <time>2021-03-29T13:55:43Z</time>
      </trkpt>
      <trkpt lat="43.34372" lon="2.56569">
        <ele>328.91</ele>
        <time>2021-03-29T13:55:59Z</time>
      </trkpt>
      <trkpt lat="43.34372" lon="2.56573">
        <ele>328.91</ele>
        <time>2021-03-29T13:56:02Z</time>
      </trkpt>
      <trkpt lat="43.34371" lon="2.56575">
        <ele>328.91</ele>
        <time>2021-03-29T13:56:03Z</time>
      </trkpt>
      <trkpt lat="43.34371" lon="2.56577">
        <ele>327.95</ele>
        <time>2021-03-29T13:56:08Z</time>
      </trkpt>
      <trkpt lat="43.34367" lon="2.56583">
        <ele>326.99</ele>
        <time>2021-03-29T13:56:22Z</time>
      </trkpt>
      <trkpt lat="43.34367" lon="2.56584">
        <ele>326.99</ele>
        <time>2021-03-29T13:56:23Z</time>
      </trkpt>
      <trkpt lat="43.34357" lon="2.56594">
        <ele>326.99</ele>
        <time>2021-03-29T13:56:39Z</time>
      </trkpt>
      <trkpt lat="43.34356" lon="2.56594">
        <ele>326.5</ele>
        <time>2021-03-29T13:56:40Z</time>
      </trkpt>
      <trkpt lat="43.34351" lon="2.56598">
        <ele>326.5</ele>
        <time>2021-03-29T13:56:51Z</time>
      </trkpt>
      <trkpt lat="43.3435" lon="2.566">
        <ele>326.5</ele>
        <time>2021-03-29T13:56:52Z</time>
      </trkpt>
      <trkpt lat="43.34349" lon="2.56602">
        <ele>326.5</ele>
        <time>2021-03-29T13:56:54Z</time>
      </trkpt>
      <trkpt lat="43.34348" lon="2.56603">
        <ele>326.5</ele>
        <time>2021-03-29T13:56:55Z</time>
      </trkpt>
      <trkpt lat="43.34347" lon="2.56604">
        <ele>326.5</ele>
        <time>2021-03-29T13:56:57Z</time>
      </trkpt>
      <trkpt lat="43.34342" lon="2.5661">
        <ele>326.02</ele>
        <time>2021-03-29T13:57:05Z</time>
      </trkpt>
      <trkpt lat="43.34336" lon="2.56623">
        <ele>325.54</ele>
        <time>2021-03-29T13:57:15Z</time>
      </trkpt>
      <trkpt lat="43.34335" lon="2.56625">
        <ele>325.54</ele>
        <time>2021-03-29T13:57:17Z</time>
      </trkpt>
      <trkpt lat="43.34332" lon="2.56627">
        <ele>325.06</ele>
        <time>2021-03-29T13:57:22Z</time>
      </trkpt>
      <trkpt lat="43.34331" lon="2.56629">
        <ele>325.06</ele>
        <time>2021-03-29T13:57:23Z</time>
      </trkpt>
      <trkpt lat="43.34322" lon="2.5664">
        <ele>323.62</ele>
        <time>2021-03-29T13:57:35Z</time>
      </trkpt>
      <trkpt lat="43.34314" lon="2.56651">
        <ele>322.66</ele>
        <time>2021-03-29T13:57:47Z</time>
      </trkpt>
      <trkpt lat="43.34313" lon="2.56652">
        <ele>322.66</ele>
        <time>2021-03-29T13:57:48Z</time>
      </trkpt>
      <trkpt lat="43.34312" lon="2.56654">
        <ele>322.18</ele>
        <time>2021-03-29T13:57:49Z</time>
      </trkpt>
      <trkpt lat="43.34301" lon="2.56667">
        <ele>320.26</ele>
        <time>2021-03-29T13:58:02Z</time>
      </trkpt>
      <trkpt lat="43.3429" lon="2.56675">
        <ele>319.3</ele>
        <time>2021-03-29T13:58:14Z</time>
      </trkpt>
      <trkpt lat="43.34281" lon="2.56682">
        <ele>317.85</ele>
        <time>2021-03-29T13:58:25Z</time>
      </trkpt>
      <trkpt lat="43.34277" lon="2.56692">
        <ele>317.37</ele>
        <time>2021-03-29T13:58:33Z</time>
      </trkpt>
      <trkpt lat="43.34278" lon="2.56692">
        <ele>317.37</ele>
        <time>2021-03-29T13:58:34Z</time>
      </trkpt>
      <trkpt lat="43.34279" lon="2.56692">
        <ele>317.37</ele>
        <time>2021-03-29T13:58:36Z</time>
      </trkpt>
      <trkpt lat="43.34287" lon="2.56687">
        <ele>316.89</ele>
        <time>2021-03-29T13:58:47Z</time>
      </trkpt>
      <trkpt lat="43.34288" lon="2.56687">
        <ele>316.89</ele>
        <time>2021-03-29T13:58:48Z</time>
      </trkpt>
      <trkpt lat="43.34289" lon="2.56687">
        <ele>316.89</ele>
        <time>2021-03-29T13:58:49Z</time>
      </trkpt>
      <trkpt lat="43.34301" lon="2.56686">
        <ele>316.41</ele>
        <time>2021-03-29T13:59:02Z</time>
      </trkpt>
      <trkpt lat="43.34313" lon="2.56689">
        <ele>316.41</ele>
        <time>2021-03-29T13:59:13Z</time>
      </trkpt>
      <trkpt lat="43.34314" lon="2.56688">
        <ele>315.93</ele>
        <time>2021-03-29T13:59:14Z</time>
      </trkpt>
      <trkpt lat="43.34316" lon="2.56687">
        <ele>315.93</ele>
        <time>2021-03-29T13:59:15Z</time>
      </trkpt>
      <trkpt lat="43.34318" lon="2.56687">
        <ele>315.93</ele>
        <time>2021-03-29T13:59:16Z</time>
      </trkpt>
      <trkpt lat="43.34319" lon="2.56687">
        <ele>315.93</ele>
        <time>2021-03-29T13:59:17Z</time>
      </trkpt>
      <trkpt lat="43.34321" lon="2.56687">
        <ele>315.93</ele>
        <time>2021-03-29T13:59:18Z</time>
      </trkpt>
      <trkpt lat="43.34322" lon="2.56687">
        <ele>315.93</ele>
        <time>2021-03-29T13:59:19Z</time>
      </trkpt>
      <trkpt lat="43.34329" lon="2.56674">
        <ele>315.45</ele>
        <time>2021-03-29T13:59:31Z</time>
      </trkpt>
      <trkpt lat="43.34337" lon="2.56666">
        <ele>314.97</ele>
        <time>2021-03-29T13:59:39Z</time>
      </trkpt>
      <trkpt lat="43.34349" lon="2.56656">
        <ele>314.01</ele>
        <time>2021-03-29T13:59:51Z</time>
      </trkpt>
      <trkpt lat="43.34351" lon="2.56655">
        <ele>314.01</ele>
        <time>2021-03-29T13:59:52Z</time>
      </trkpt>
      <trkpt lat="43.34362" lon="2.56647">
        <ele>313.05</ele>
        <time>2021-03-29T14:00:03Z</time>
      </trkpt>
      <trkpt lat="43.34363" lon="2.56647">
        <ele>312.57</ele>
        <time>2021-03-29T14:00:04Z</time>
      </trkpt>
      <trkpt lat="43.34364" lon="2.56647">
        <ele>312.57</ele>
        <time>2021-03-29T14:00:05Z</time>
      </trkpt>
      <trkpt lat="43.34366" lon="2.56646">
        <ele>312.57</ele>
        <time>2021-03-29T14:00:06Z</time>
      </trkpt>
      <trkpt lat="43.34378" lon="2.56635">
        <ele>312.57</ele>
        <time>2021-03-29T14:00:18Z</time>
      </trkpt>
      <trkpt lat="43.34387" lon="2.56628">
        <ele>311.6</ele>
        <time>2021-03-29T14:00:27Z</time>
      </trkpt>
      <trkpt lat="43.34391" lon="2.56625">
        <ele>311.12</ele>
        <time>2021-03-29T14:00:31Z</time>
      </trkpt>
      <trkpt lat="43.34401" lon="2.56618">
        <ele>310.16</ele>
        <time>2021-03-29T14:00:42Z</time>
      </trkpt>
      <trkpt lat="43.34403" lon="2.56617">
        <ele>310.16</ele>
        <time>2021-03-29T14:00:43Z</time>
      </trkpt>
      <trkpt lat="43.34406" lon="2.56616">
        <ele>310.16</ele>
        <time>2021-03-29T14:00:44Z</time>
      </trkpt>
      <trkpt lat="43.34408" lon="2.56616">
        <ele>310.16</ele>
        <time>2021-03-29T14:00:45Z</time>
      </trkpt>
      <trkpt lat="43.34409" lon="2.56615">
        <ele>310.16</ele>
        <time>2021-03-29T14:00:46Z</time>
      </trkpt>
      <trkpt lat="43.34421" lon="2.56607">
        <ele>309.2</ele>
        <time>2021-03-29T14:00:58Z</time>
      </trkpt>
      <trkpt lat="43.34431" lon="2.56608">
        <ele>308.24</ele>
        <time>2021-03-29T14:01:07Z</time>
      </trkpt>
      <trkpt lat="43.34437" lon="2.56621">
        <ele>307.28</ele>
        <time>2021-03-29T14:01:18Z</time>
      </trkpt>
      <trkpt lat="43.34438" lon="2.56623">
        <ele>307.28</ele>
        <time>2021-03-29T14:01:19Z</time>
      </trkpt>
      <trkpt lat="43.34441" lon="2.56642">
        <ele>306.32</ele>
        <time>2021-03-29T14:01:30Z</time>
      </trkpt>
      <trkpt lat="43.34442" lon="2.56644">
        <ele>306.32</ele>
        <time>2021-03-29T14:01:31Z</time>
      </trkpt>
      <trkpt lat="43.34445" lon="2.56657">
        <ele>305.84</ele>
        <time>2021-03-29T14:01:41Z</time>
      </trkpt>
      <trkpt lat="43.3445" lon="2.56671">
        <ele>305.36</ele>
        <time>2021-03-29T14:01:51Z</time>
      </trkpt>
      <trkpt lat="43.34455" lon="2.5669">
        <ele>304.39</ele>
        <time>2021-03-29T14:02:03Z</time>
      </trkpt>
      <trkpt lat="43.34456" lon="2.56704">
        <ele>303.43</ele>
        <time>2021-03-29T14:02:13Z</time>
      </trkpt>
      <trkpt lat="43.34461" lon="2.5672">
        <ele>303.43</ele>
        <time>2021-03-29T14:02:25Z</time>
      </trkpt>
      <trkpt lat="43.34467" lon="2.56727">
        <ele>302.95</ele>
        <time>2021-03-29T14:02:30Z</time>
      </trkpt>
      <trkpt lat="43.34468" lon="2.56729">
        <ele>301.99</ele>
        <time>2021-03-29T14:02:31Z</time>
      </trkpt>
      <trkpt lat="43.34471" lon="2.5674">
        <ele>301.51</ele>
        <time>2021-03-29T14:02:41Z</time>
      </trkpt>
      <trkpt lat="43.34476" lon="2.56762">
        <ele>301.03</ele>
        <time>2021-03-29T14:02:52Z</time>
      </trkpt>
      <trkpt lat="43.34478" lon="2.5678">
        <ele>300.07</ele>
        <time>2021-03-29T14:03:02Z</time>
      </trkpt>
      <trkpt lat="43.3448" lon="2.56789">
        <ele>299.11</ele>
        <time>2021-03-29T14:03:10Z</time>
      </trkpt>
      <trkpt lat="43.3448" lon="2.56791">
        <ele>298.63</ele>
        <time>2021-03-29T14:03:11Z</time>
      </trkpt>
      <trkpt lat="43.34481" lon="2.56793">
        <ele>298.63</ele>
        <time>2021-03-29T14:03:12Z</time>
      </trkpt>
      <trkpt lat="43.34481" lon="2.56796">
        <ele>298.63</ele>
        <time>2021-03-29T14:03:13Z</time>
      </trkpt>
      <trkpt lat="43.34481" lon="2.56799">
        <ele>298.63</ele>
        <time>2021-03-29T14:03:14Z</time>
      </trkpt>
      <trkpt lat="43.34481" lon="2.56801">
        <ele>298.63</ele>
        <time>2021-03-29T14:03:15Z</time>
      </trkpt>
      <trkpt lat="43.34483" lon="2.56819">
        <ele>297.67</ele>
        <time>2021-03-29T14:03:27Z</time>
      </trkpt>
      <trkpt lat="43.34489" lon="2.56841">
        <ele>296.7</ele>
        <time>2021-03-29T14:03:39Z</time>
      </trkpt>
      <trkpt lat="43.34499" lon="2.56855">
        <ele>296.22</ele>
        <time>2021-03-29T14:03:51Z</time>
      </trkpt>
      <trkpt lat="43.34509" lon="2.56863">
        <ele>295.26</ele>
        <time>2021-03-29T14:04:01Z</time>
      </trkpt>
      <trkpt lat="43.34518" lon="2.5687">
        <ele>294.78</ele>
        <time>2021-03-29T14:04:13Z</time>
      </trkpt>
      <trkpt lat="43.34532" lon="2.5689">
        <ele>293.82</ele>
        <time>2021-03-29T14:04:25Z</time>
      </trkpt>
      <trkpt lat="43.34534" lon="2.56902">
        <ele>293.34</ele>
        <time>2021-03-29T14:04:38Z</time>
      </trkpt>
      <trkpt lat="43.34539" lon="2.56918">
        <ele>292.38</ele>
        <time>2021-03-29T14:04:51Z</time>
      </trkpt>
      <trkpt lat="43.3454" lon="2.56921">
        <ele>292.38</ele>
        <time>2021-03-29T14:04:52Z</time>
      </trkpt>
      <trkpt lat="43.34541" lon="2.56923">
        <ele>292.38</ele>
        <time>2021-03-29T14:04:53Z</time>
      </trkpt>
      <trkpt lat="43.34542" lon="2.56925">
        <ele>292.38</ele>
        <time>2021-03-29T14:04:54Z</time>
      </trkpt>
      <trkpt lat="43.34543" lon="2.56926">
        <ele>292.38</ele>
        <time>2021-03-29T14:04:55Z</time>
      </trkpt>
      <trkpt lat="43.34544" lon="2.56928">
        <ele>292.38</ele>
        <time>2021-03-29T14:04:56Z</time>
      </trkpt>
      <trkpt lat="43.34545" lon="2.5693">
        <ele>291.9</ele>
        <time>2021-03-29T14:04:57Z</time>
      </trkpt>
      <trkpt lat="43.34547" lon="2.56931">
        <ele>291.9</ele>
        <time>2021-03-29T14:04:58Z</time>
      </trkpt>
      <trkpt lat="43.34556" lon="2.5694">
        <ele>290.46</ele>
        <time>2021-03-29T14:05:09Z</time>
      </trkpt>
      <trkpt lat="43.34557" lon="2.56941">
        <ele>290.46</ele>
        <time>2021-03-29T14:05:10Z</time>
      </trkpt>
      <trkpt lat="43.34558" lon="2.56942">
        <ele>290.46</ele>
        <time>2021-03-29T14:05:11Z</time>
      </trkpt>
      <trkpt lat="43.3456" lon="2.56944">
        <ele>290.46</ele>
        <time>2021-03-29T14:05:12Z</time>
      </trkpt>
      <trkpt lat="43.34562" lon="2.56946">
        <ele>290.46</ele>
        <time>2021-03-29T14:05:13Z</time>
      </trkpt>
      <trkpt lat="43.34563" lon="2.56947">
        <ele>290.46</ele>
        <time>2021-03-29T14:05:14Z</time>
      </trkpt>
      <trkpt lat="43.34565" lon="2.56949">
        <ele>290.46</ele>
        <time>2021-03-29T14:05:15Z</time>
      </trkpt>
      <trkpt lat="43.34566" lon="2.5695">
        <ele>290.46</ele>
        <time>2021-03-29T14:05:16Z</time>
      </trkpt>
      <trkpt lat="43.34575" lon="2.5695">
        <ele>289.49</ele>
        <time>2021-03-29T14:05:28Z</time>
      </trkpt>
      <trkpt lat="43.34577" lon="2.5695">
        <ele>289.49</ele>
        <time>2021-03-29T14:05:29Z</time>
      </trkpt>
      <trkpt lat="43.34588" lon="2.56949">
        <ele>289.49</ele>
        <time>2021-03-29T14:05:38Z</time>
      </trkpt>
      <trkpt lat="43.34589" lon="2.56948">
        <ele>289.49</ele>
        <time>2021-03-29T14:05:39Z</time>
      </trkpt>
      <trkpt lat="43.34601" lon="2.56944">
        <ele>289.01</ele>
        <time>2021-03-29T14:05:52Z</time>
      </trkpt>
      <trkpt lat="43.34605" lon="2.5694">
        <ele>289.01</ele>
        <time>2021-03-29T14:06:03Z</time>
      </trkpt>
      <trkpt lat="43.34621" lon="2.5693">
        <ele>288.53</ele>
        <time>2021-03-29T14:06:18Z</time>
      </trkpt>
      <trkpt lat="43.34626" lon="2.56927">
        <ele>288.53</ele>
        <time>2021-03-29T14:06:24Z</time>
      </trkpt>
      <trkpt lat="43.34641" lon="2.56915">
        <ele>288.53</ele>
        <time>2021-03-29T14:06:37Z</time>
      </trkpt>
      <trkpt lat="43.34656" lon="2.56896">
        <ele>288.05</ele>
        <time>2021-03-29T14:06:50Z</time>
      </trkpt>
      <trkpt lat="43.34657" lon="2.56884">
        <ele>288.05</ele>
        <time>2021-03-29T14:07:01Z</time>
      </trkpt>
      <trkpt lat="43.34659" lon="2.56882">
        <ele>287.57</ele>
        <time>2021-03-29T14:07:03Z</time>
      </trkpt>
      <trkpt lat="43.34662" lon="2.5688">
        <ele>287.57</ele>
        <time>2021-03-29T14:07:06Z</time>
      </trkpt>
      <trkpt lat="43.34667" lon="2.56879">
        <ele>287.57</ele>
        <time>2021-03-29T14:07:10Z</time>
      </trkpt>
      <trkpt lat="43.34669" lon="2.56881">
        <ele>287.57</ele>
        <time>2021-03-29T14:07:11Z</time>
      </trkpt>
      <trkpt lat="43.3467" lon="2.56882">
        <ele>287.57</ele>
        <time>2021-03-29T14:07:12Z</time>
      </trkpt>
      <trkpt lat="43.34671" lon="2.56884">
        <ele>287.57</ele>
        <time>2021-03-29T14:07:13Z</time>
      </trkpt>
      <trkpt lat="43.34672" lon="2.56886">
        <ele>287.57</ele>
        <time>2021-03-29T14:07:14Z</time>
      </trkpt>
      <trkpt lat="43.34672" lon="2.56887">
        <ele>287.57</ele>
        <time>2021-03-29T14:07:15Z</time>
      </trkpt>
      <trkpt lat="43.34672" lon="2.56888">
        <ele>289.01</ele>
        <time>2021-03-29T14:07:16Z</time>
      </trkpt>
      <trkpt lat="43.34672" lon="2.56889">
        <ele>289.01</ele>
        <time>2021-03-29T14:07:17Z</time>
      </trkpt>
      <trkpt lat="43.34673" lon="2.5689">
        <ele>289.01</ele>
        <time>2021-03-29T14:07:18Z</time>
      </trkpt>
      <trkpt lat="43.34674" lon="2.56901">
        <ele>288.53</ele>
        <time>2021-03-29T14:07:30Z</time>
      </trkpt>
      <trkpt lat="43.34674" lon="2.56921">
        <ele>288.53</ele>
        <time>2021-03-29T14:07:43Z</time>
      </trkpt>
      <trkpt lat="43.34674" lon="2.56943">
        <ele>289.49</ele>
        <time>2021-03-29T14:07:56Z</time>
      </trkpt>
      <trkpt lat="43.34674" lon="2.5696">
        <ele>289.49</ele>
        <time>2021-03-29T14:08:07Z</time>
      </trkpt>
      <trkpt lat="43.34674" lon="2.56962">
        <ele>289.49</ele>
        <time>2021-03-29T14:08:08Z</time>
      </trkpt>
      <trkpt lat="43.34672" lon="2.56983">
        <ele>289.49</ele>
        <time>2021-03-29T14:08:21Z</time>
      </trkpt>
      <trkpt lat="43.3467" lon="2.57004">
        <ele>290.94</ele>
        <time>2021-03-29T14:08:34Z</time>
      </trkpt>
      <trkpt lat="43.34668" lon="2.57024">
        <ele>291.42</ele>
        <time>2021-03-29T14:08:46Z</time>
      </trkpt>
      <trkpt lat="43.34668" lon="2.57037">
        <ele>292.38</ele>
        <time>2021-03-29T14:08:54Z</time>
      </trkpt>
      <trkpt lat="43.34668" lon="2.57039">
        <ele>292.38</ele>
        <time>2021-03-29T14:08:55Z</time>
      </trkpt>
      <trkpt lat="43.34668" lon="2.57041">
        <ele>292.38</ele>
        <time>2021-03-29T14:08:56Z</time>
      </trkpt>
      <trkpt lat="43.34669" lon="2.57063">
        <ele>292.86</ele>
        <time>2021-03-29T14:09:11Z</time>
      </trkpt>
      <trkpt lat="43.3467" lon="2.57094">
        <ele>293.34</ele>
        <time>2021-03-29T14:09:30Z</time>
      </trkpt>
      <trkpt lat="43.3467" lon="2.57101">
        <ele>293.34</ele>
        <time>2021-03-29T14:09:35Z</time>
      </trkpt>
      <trkpt lat="43.34671" lon="2.57114">
        <ele>294.3</ele>
        <time>2021-03-29T14:09:43Z</time>
      </trkpt>
      <trkpt lat="43.34673" lon="2.57131">
        <ele>295.26</ele>
        <time>2021-03-29T14:09:56Z</time>
      </trkpt>
      <trkpt lat="43.34674" lon="2.57133">
        <ele>295.26</ele>
        <time>2021-03-29T14:09:57Z</time>
      </trkpt>
      <trkpt lat="43.3468" lon="2.57154">
        <ele>296.22</ele>
        <time>2021-03-29T14:10:11Z</time>
      </trkpt>
      <trkpt lat="43.34681" lon="2.57157">
        <ele>296.7</ele>
        <time>2021-03-29T14:10:14Z</time>
      </trkpt>
      <trkpt lat="43.34682" lon="2.57158">
        <ele>296.7</ele>
        <time>2021-03-29T14:10:15Z</time>
      </trkpt>
      <trkpt lat="43.34691" lon="2.57169">
        <ele>296.7</ele>
        <time>2021-03-29T14:10:28Z</time>
      </trkpt>
      <trkpt lat="43.34699" lon="2.57175">
        <ele>297.18</ele>
        <time>2021-03-29T14:10:38Z</time>
      </trkpt>
      <trkpt lat="43.34701" lon="2.57176">
        <ele>297.18</ele>
        <time>2021-03-29T14:10:39Z</time>
      </trkpt>
      <trkpt lat="43.34702" lon="2.57176">
        <ele>297.18</ele>
        <time>2021-03-29T14:10:40Z</time>
      </trkpt>
      <trkpt lat="43.34703" lon="2.57177">
        <ele>297.18</ele>
        <time>2021-03-29T14:10:41Z</time>
      </trkpt>
      <trkpt lat="43.34712" lon="2.57183">
        <ele>297.67</ele>
        <time>2021-03-29T14:10:51Z</time>
      </trkpt>
      <trkpt lat="43.34724" lon="2.57193">
        <ele>297.67</ele>
        <time>2021-03-29T14:11:04Z</time>
      </trkpt>
      <trkpt lat="43.34726" lon="2.57196">
        <ele>297.67</ele>
        <time>2021-03-29T14:11:08Z</time>
      </trkpt>
      <trkpt lat="43.34728" lon="2.57198">
        <ele>297.67</ele>
        <time>2021-03-29T14:11:09Z</time>
      </trkpt>
      <trkpt lat="43.34729" lon="2.57199">
        <ele>297.67</ele>
        <time>2021-03-29T14:11:10Z</time>
      </trkpt>
      <trkpt lat="43.3473" lon="2.572">
        <ele>297.67</ele>
        <time>2021-03-29T14:11:11Z</time>
      </trkpt>
      <trkpt lat="43.34731" lon="2.57202">
        <ele>297.67</ele>
        <time>2021-03-29T14:11:12Z</time>
      </trkpt>
      <trkpt lat="43.34732" lon="2.57204">
        <ele>297.67</ele>
        <time>2021-03-29T14:11:13Z</time>
      </trkpt>
      <trkpt lat="43.34733" lon="2.57206">
        <ele>297.67</ele>
        <time>2021-03-29T14:11:14Z</time>
      </trkpt>
      <trkpt lat="43.34737" lon="2.57212">
        <ele>297.67</ele>
        <time>2021-03-29T14:11:21Z</time>
      </trkpt>
      <trkpt lat="43.34738" lon="2.57213">
        <ele>297.67</ele>
        <time>2021-03-29T14:11:22Z</time>
      </trkpt>
      <trkpt lat="43.34739" lon="2.57215">
        <ele>297.67</ele>
        <time>2021-03-29T14:11:23Z</time>
      </trkpt>
      <trkpt lat="43.34741" lon="2.57217">
        <ele>297.67</ele>
        <time>2021-03-29T14:11:24Z</time>
      </trkpt>
      <trkpt lat="43.34742" lon="2.5722">
        <ele>297.67</ele>
        <time>2021-03-29T14:11:25Z</time>
      </trkpt>
      <trkpt lat="43.34743" lon="2.57221">
        <ele>297.67</ele>
        <time>2021-03-29T14:11:26Z</time>
      </trkpt>
      <trkpt lat="43.34746" lon="2.57227">
        <ele>297.67</ele>
        <time>2021-03-29T14:11:34Z</time>
      </trkpt>
      <trkpt lat="43.34746" lon="2.57229">
        <ele>297.67</ele>
        <time>2021-03-29T14:11:35Z</time>
      </trkpt>
      <trkpt lat="43.34748" lon="2.57231">
        <ele>297.67</ele>
        <time>2021-03-29T14:11:36Z</time>
      </trkpt>
      <trkpt lat="43.34749" lon="2.57233">
        <ele>297.67</ele>
        <time>2021-03-29T14:11:37Z</time>
      </trkpt>
      <trkpt lat="43.3475" lon="2.57235">
        <ele>297.67</ele>
        <time>2021-03-29T14:11:38Z</time>
      </trkpt>
      <trkpt lat="43.34751" lon="2.57237">
        <ele>297.67</ele>
        <time>2021-03-29T14:11:39Z</time>
      </trkpt>
      <trkpt lat="43.34752" lon="2.57238">
        <ele>297.67</ele>
        <time>2021-03-29T14:11:40Z</time>
      </trkpt>
      <trkpt lat="43.34756" lon="2.57248">
        <ele>297.67</ele>
        <time>2021-03-29T14:11:48Z</time>
      </trkpt>
      <trkpt lat="43.34757" lon="2.57249">
        <ele>298.15</ele>
        <time>2021-03-29T14:11:49Z</time>
      </trkpt>
      <trkpt lat="43.34759" lon="2.57251">
        <ele>298.15</ele>
        <time>2021-03-29T14:11:50Z</time>
      </trkpt>
      <trkpt lat="43.3476" lon="2.57253">
        <ele>298.15</ele>
        <time>2021-03-29T14:11:51Z</time>
      </trkpt>
      <trkpt lat="43.34761" lon="2.57255">
        <ele>298.15</ele>
        <time>2021-03-29T14:11:52Z</time>
      </trkpt>
      <trkpt lat="43.34762" lon="2.57256">
        <ele>298.15</ele>
        <time>2021-03-29T14:11:53Z</time>
      </trkpt>
      <trkpt lat="43.34763" lon="2.57258">
        <ele>298.15</ele>
        <time>2021-03-29T14:11:54Z</time>
      </trkpt>
      <trkpt lat="43.34774" lon="2.57268">
        <ele>298.15</ele>
        <time>2021-03-29T14:12:06Z</time>
      </trkpt>
      <trkpt lat="43.34779" lon="2.57276">
        <ele>298.15</ele>
        <time>2021-03-29T14:12:11Z</time>
      </trkpt>
      <trkpt lat="43.34779" lon="2.57278">
        <ele>298.15</ele>
        <time>2021-03-29T14:12:12Z</time>
      </trkpt>
      <trkpt lat="43.34777" lon="2.57283">
        <ele>296.7</ele>
        <time>2021-03-29T14:12:18Z</time>
      </trkpt>
      <trkpt lat="43.34776" lon="2.57285">
        <ele>296.7</ele>
        <time>2021-03-29T14:12:19Z</time>
      </trkpt>
      <trkpt lat="43.34775" lon="2.57286">
        <ele>296.7</ele>
        <time>2021-03-29T14:12:20Z</time>
      </trkpt>
      <trkpt lat="43.34773" lon="2.57287">
        <ele>296.7</ele>
        <time>2021-03-29T14:12:21Z</time>
      </trkpt>
      <trkpt lat="43.34771" lon="2.57288">
        <ele>296.7</ele>
        <time>2021-03-29T14:12:22Z</time>
      </trkpt>
      <trkpt lat="43.3477" lon="2.5729">
        <ele>296.7</ele>
        <time>2021-03-29T14:12:23Z</time>
      </trkpt>
      <trkpt lat="43.34768" lon="2.57292">
        <ele>296.22</ele>
        <time>2021-03-29T14:12:24Z</time>
      </trkpt>
      <trkpt lat="43.34761" lon="2.57297">
        <ele>295.74</ele>
        <time>2021-03-29T14:12:34Z</time>
      </trkpt>
      <trkpt lat="43.34759" lon="2.57299">
        <ele>295.74</ele>
        <time>2021-03-29T14:12:35Z</time>
      </trkpt>
      <trkpt lat="43.34758" lon="2.573">
        <ele>295.74</ele>
        <time>2021-03-29T14:12:36Z</time>
      </trkpt>
      <trkpt lat="43.34756" lon="2.573">
        <ele>295.74</ele>
        <time>2021-03-29T14:12:37Z</time>
      </trkpt>
      <trkpt lat="43.34754" lon="2.57301">
        <ele>295.74</ele>
        <time>2021-03-29T14:12:38Z</time>
      </trkpt>
      <trkpt lat="43.34752" lon="2.57301">
        <ele>295.26</ele>
        <time>2021-03-29T14:12:39Z</time>
      </trkpt>
      <trkpt lat="43.34751" lon="2.57302">
        <ele>295.26</ele>
        <time>2021-03-29T14:12:40Z</time>
      </trkpt>
      <trkpt lat="43.34746" lon="2.57305">
        <ele>295.26</ele>
        <time>2021-03-29T14:12:48Z</time>
      </trkpt>
      <trkpt lat="43.34745" lon="2.57306">
        <ele>295.26</ele>
        <time>2021-03-29T14:12:49Z</time>
      </trkpt>
      <trkpt lat="43.34735" lon="2.57313">
        <ele>294.78</ele>
        <time>2021-03-29T14:13:00Z</time>
      </trkpt>
      <trkpt lat="43.34733" lon="2.57315">
        <ele>294.78</ele>
        <time>2021-03-29T14:13:02Z</time>
      </trkpt>
      <trkpt lat="43.34732" lon="2.57317">
        <ele>294.78</ele>
        <time>2021-03-29T14:13:03Z</time>
      </trkpt>
      <trkpt lat="43.3473" lon="2.57318">
        <ele>294.78</ele>
        <time>2021-03-29T14:13:04Z</time>
      </trkpt>
      <trkpt lat="43.34728" lon="2.57319">
        <ele>294.78</ele>
        <time>2021-03-29T14:13:05Z</time>
      </trkpt>
      <trkpt lat="43.34727" lon="2.5732">
        <ele>294.78</ele>
        <time>2021-03-29T14:13:06Z</time>
      </trkpt>
      <trkpt lat="43.34717" lon="2.57328">
        <ele>294.3</ele>
        <time>2021-03-29T14:13:18Z</time>
      </trkpt>
      <trkpt lat="43.34711" lon="2.57338">
        <ele>293.82</ele>
        <time>2021-03-29T14:13:28Z</time>
      </trkpt>
      <trkpt lat="43.34709" lon="2.5734">
        <ele>293.82</ele>
        <time>2021-03-29T14:13:29Z</time>
      </trkpt>
      <trkpt lat="43.34699" lon="2.57355">
        <ele>293.34</ele>
        <time>2021-03-29T14:13:42Z</time>
      </trkpt>
      <trkpt lat="43.34697" lon="2.57381">
        <ele>292.86</ele>
        <time>2021-03-29T14:13:56Z</time>
      </trkpt>
      <trkpt lat="43.34702" lon="2.57395">
        <ele>292.38</ele>
        <time>2021-03-29T14:14:09Z</time>
      </trkpt>
      <trkpt lat="43.34703" lon="2.57397">
        <ele>291.9</ele>
        <time>2021-03-29T14:14:10Z</time>
      </trkpt>
      <trkpt lat="43.34709" lon="2.57413">
        <ele>291.42</ele>
        <time>2021-03-29T14:14:20Z</time>
      </trkpt>
      <trkpt lat="43.3471" lon="2.57416">
        <ele>291.42</ele>
        <time>2021-03-29T14:14:23Z</time>
      </trkpt>
      <trkpt lat="43.34711" lon="2.57418">
        <ele>290.94</ele>
        <time>2021-03-29T14:14:24Z</time>
      </trkpt>
      <trkpt lat="43.34711" lon="2.57419">
        <ele>290.94</ele>
        <time>2021-03-29T14:14:25Z</time>
      </trkpt>
      <trkpt lat="43.34718" lon="2.57437">
        <ele>289.97</ele>
        <time>2021-03-29T14:14:38Z</time>
      </trkpt>
      <trkpt lat="43.34719" lon="2.57439">
        <ele>289.97</ele>
        <time>2021-03-29T14:14:39Z</time>
      </trkpt>
      <trkpt lat="43.34725" lon="2.57451">
        <ele>289.49</ele>
        <time>2021-03-29T14:14:49Z</time>
      </trkpt>
      <trkpt lat="43.34725" lon="2.57453">
        <ele>289.49</ele>
        <time>2021-03-29T14:14:50Z</time>
      </trkpt>
      <trkpt lat="43.34726" lon="2.57455">
        <ele>289.01</ele>
        <time>2021-03-29T14:14:51Z</time>
      </trkpt>
      <trkpt lat="43.34741" lon="2.57475">
        <ele>288.05</ele>
        <time>2021-03-29T14:15:06Z</time>
      </trkpt>
      <trkpt lat="43.34752" lon="2.57487">
        <ele>288.05</ele>
        <time>2021-03-29T14:15:18Z</time>
      </trkpt>
      <trkpt lat="43.34767" lon="2.575">
        <ele>287.09</ele>
        <time>2021-03-29T14:15:35Z</time>
      </trkpt>
      <trkpt lat="43.3477" lon="2.57501">
        <ele>287.09</ele>
        <time>2021-03-29T14:15:38Z</time>
      </trkpt>
      <trkpt lat="43.34772" lon="2.57502">
        <ele>287.09</ele>
        <time>2021-03-29T14:15:39Z</time>
      </trkpt>
      <trkpt lat="43.34774" lon="2.57503">
        <ele>287.09</ele>
        <time>2021-03-29T14:15:40Z</time>
      </trkpt>
      <trkpt lat="43.34776" lon="2.57503">
        <ele>287.09</ele>
        <time>2021-03-29T14:15:41Z</time>
      </trkpt>
      <trkpt lat="43.34778" lon="2.57504">
        <ele>287.09</ele>
        <time>2021-03-29T14:15:42Z</time>
      </trkpt>
      <trkpt lat="43.34779" lon="2.57506">
        <ele>287.09</ele>
        <time>2021-03-29T14:15:43Z</time>
      </trkpt>
      <trkpt lat="43.34789" lon="2.5751">
        <ele>286.13</ele>
        <time>2021-03-29T14:15:53Z</time>
      </trkpt>
      <trkpt lat="43.34791" lon="2.5751">
        <ele>286.13</ele>
        <time>2021-03-29T14:15:54Z</time>
      </trkpt>
      <trkpt lat="43.34806" lon="2.57515">
        <ele>285.65</ele>
        <time>2021-03-29T14:16:07Z</time>
      </trkpt>
      <trkpt lat="43.34816" lon="2.57516">
        <ele>284.69</ele>
        <time>2021-03-29T14:16:19Z</time>
      </trkpt>
      <trkpt lat="43.3483" lon="2.5752">
        <ele>283.73</ele>
        <time>2021-03-29T14:16:31Z</time>
      </trkpt>
      <trkpt lat="43.34845" lon="2.57519">
        <ele>282.77</ele>
        <time>2021-03-29T14:16:44Z</time>
      </trkpt>
      <trkpt lat="43.34851" lon="2.57517">
        <ele>281.8</ele>
        <time>2021-03-29T14:16:50Z</time>
      </trkpt>
      <trkpt lat="43.34853" lon="2.57517">
        <ele>281.8</ele>
        <time>2021-03-29T14:16:51Z</time>
      </trkpt>
      <trkpt lat="43.34855" lon="2.57516">
        <ele>281.32</ele>
        <time>2021-03-29T14:16:52Z</time>
      </trkpt>
      <trkpt lat="43.34867" lon="2.57513">
        <ele>281.32</ele>
        <time>2021-03-29T14:17:05Z</time>
      </trkpt>
      <trkpt lat="43.34886" lon="2.57506">
        <ele>280.84</ele>
        <time>2021-03-29T14:17:18Z</time>
      </trkpt>
      <trkpt lat="43.34888" lon="2.57506">
        <ele>280.36</ele>
        <time>2021-03-29T14:17:20Z</time>
      </trkpt>
      <trkpt lat="43.34891" lon="2.57504">
        <ele>279.88</ele>
        <time>2021-03-29T14:17:22Z</time>
      </trkpt>
      <trkpt lat="43.34904" lon="2.57498">
        <ele>279.88</ele>
        <time>2021-03-29T14:17:34Z</time>
      </trkpt>
      <trkpt lat="43.3492" lon="2.57495">
        <ele>278.44</ele>
        <time>2021-03-29T14:17:44Z</time>
      </trkpt>
      <trkpt lat="43.34922" lon="2.57499">
        <ele>277.96</ele>
        <time>2021-03-29T14:17:47Z</time>
      </trkpt>
      <trkpt lat="43.34922" lon="2.57503">
        <ele>277.96</ele>
        <time>2021-03-29T14:17:53Z</time>
      </trkpt>
      <trkpt lat="43.34921" lon="2.57505">
        <ele>277.96</ele>
        <time>2021-03-29T14:17:54Z</time>
      </trkpt>
      <trkpt lat="43.34921" lon="2.57508">
        <ele>277.96</ele>
        <time>2021-03-29T14:17:55Z</time>
      </trkpt>
      <trkpt lat="43.34921" lon="2.57516">
        <ele>277.48</ele>
        <time>2021-03-29T14:18:05Z</time>
      </trkpt>
      <trkpt lat="43.34916" lon="2.57528">
        <ele>277.48</ele>
        <time>2021-03-29T14:18:17Z</time>
      </trkpt>
      <trkpt lat="43.34916" lon="2.57532">
        <ele>277.48</ele>
        <time>2021-03-29T14:18:21Z</time>
      </trkpt>
      <trkpt lat="43.34916" lon="2.57533">
        <ele>277.48</ele>
        <time>2021-03-29T14:18:22Z</time>
      </trkpt>
      <trkpt lat="43.34917" lon="2.57536">
        <ele>277</ele>
        <time>2021-03-29T14:18:23Z</time>
      </trkpt>
      <trkpt lat="43.34919" lon="2.57538">
        <ele>277</ele>
        <time>2021-03-29T14:18:24Z</time>
      </trkpt>
      <trkpt lat="43.3492" lon="2.5754">
        <ele>277</ele>
        <time>2021-03-29T14:18:25Z</time>
      </trkpt>
      <trkpt lat="43.34921" lon="2.57542">
        <ele>277</ele>
        <time>2021-03-29T14:18:26Z</time>
      </trkpt>
      <trkpt lat="43.34922" lon="2.57544">
        <ele>277</ele>
        <time>2021-03-29T14:18:27Z</time>
      </trkpt>
      <trkpt lat="43.34925" lon="2.57548">
        <ele>277</ele>
        <time>2021-03-29T14:18:34Z</time>
      </trkpt>
      <trkpt lat="43.34926" lon="2.57549">
        <ele>276.52</ele>
        <time>2021-03-29T14:18:35Z</time>
      </trkpt>
      <trkpt lat="43.34928" lon="2.5755">
        <ele>276.52</ele>
        <time>2021-03-29T14:18:36Z</time>
      </trkpt>
      <trkpt lat="43.34929" lon="2.57551">
        <ele>276.52</ele>
        <time>2021-03-29T14:18:37Z</time>
      </trkpt>
      <trkpt lat="43.34931" lon="2.57552">
        <ele>276.52</ele>
        <time>2021-03-29T14:18:38Z</time>
      </trkpt>
      <trkpt lat="43.34933" lon="2.57553">
        <ele>276.52</ele>
        <time>2021-03-29T14:18:39Z</time>
      </trkpt>
      <trkpt lat="43.34935" lon="2.57554">
        <ele>276.52</ele>
        <time>2021-03-29T14:18:40Z</time>
      </trkpt>
      <trkpt lat="43.34944" lon="2.57557">
        <ele>276.04</ele>
        <time>2021-03-29T14:18:53Z</time>
      </trkpt>
      <trkpt lat="43.34951" lon="2.57559">
        <ele>276.04</ele>
        <time>2021-03-29T14:19:02Z</time>
      </trkpt>
      <trkpt lat="43.34953" lon="2.57559">
        <ele>276.04</ele>
        <time>2021-03-29T14:19:04Z</time>
      </trkpt>
      <trkpt lat="43.34954" lon="2.57561">
        <ele>276.04</ele>
        <time>2021-03-29T14:19:05Z</time>
      </trkpt>
      <trkpt lat="43.34958" lon="2.5757">
        <ele>276.04</ele>
        <time>2021-03-29T14:19:10Z</time>
      </trkpt>
      <trkpt lat="43.34956" lon="2.57577">
        <ele>276.04</ele>
        <time>2021-03-29T14:19:14Z</time>
      </trkpt>
      <trkpt lat="43.34949" lon="2.57592">
        <ele>276.04</ele>
        <time>2021-03-29T14:19:27Z</time>
      </trkpt>
      <trkpt lat="43.34947" lon="2.57613">
        <ele>276.04</ele>
        <time>2021-03-29T14:19:40Z</time>
      </trkpt>
      <trkpt lat="43.34946" lon="2.57628">
        <ele>274.11</ele>
        <time>2021-03-29T14:19:55Z</time>
      </trkpt>
      <trkpt lat="43.34945" lon="2.57629">
        <ele>274.11</ele>
        <time>2021-03-29T14:19:57Z</time>
      </trkpt>
      <trkpt lat="43.34945" lon="2.57631">
        <ele>274.11</ele>
        <time>2021-03-29T14:19:58Z</time>
      </trkpt>
      <trkpt lat="43.34948" lon="2.57642">
        <ele>274.11</ele>
        <time>2021-03-29T14:20:08Z</time>
      </trkpt>
      <trkpt lat="43.34948" lon="2.57638">
        <ele>274.11</ele>
        <time>2021-03-29T14:20:13Z</time>
      </trkpt>
      <trkpt lat="43.34948" lon="2.57636">
        <ele>274.11</ele>
        <time>2021-03-29T14:20:14Z</time>
      </trkpt>
      <trkpt lat="43.34948" lon="2.57634">
        <ele>274.11</ele>
        <time>2021-03-29T14:20:15Z</time>
      </trkpt>
      <trkpt lat="43.34949" lon="2.57633">
        <ele>274.11</ele>
        <time>2021-03-29T14:20:16Z</time>
      </trkpt>
      <trkpt lat="43.34949" lon="2.57631">
        <ele>274.11</ele>
        <time>2021-03-29T14:20:17Z</time>
      </trkpt>
      <trkpt lat="43.34949" lon="2.57629">
        <ele>274.11</ele>
        <time>2021-03-29T14:20:18Z</time>
      </trkpt>
      <trkpt lat="43.34949" lon="2.57626">
        <ele>274.11</ele>
        <time>2021-03-29T14:20:20Z</time>
      </trkpt>
      <trkpt lat="43.3495" lon="2.57625">
        <ele>274.11</ele>
        <time>2021-03-29T14:20:21Z</time>
      </trkpt>
      <trkpt lat="43.34951" lon="2.5762">
        <ele>275.56</ele>
        <time>2021-03-29T14:20:24Z</time>
      </trkpt>
      <trkpt lat="43.3495" lon="2.57618">
        <ele>275.56</ele>
        <time>2021-03-29T14:20:25Z</time>
      </trkpt>
      <trkpt lat="43.3495" lon="2.57617">
        <ele>275.56</ele>
        <time>2021-03-29T14:20:27Z</time>
      </trkpt>
      <trkpt lat="43.34948" lon="2.57615">
        <ele>275.56</ele>
        <time>2021-03-29T14:20:29Z</time>
      </trkpt>
      <trkpt lat="43.34947" lon="2.57613">
        <ele>275.56</ele>
        <time>2021-03-29T14:20:30Z</time>
      </trkpt>
      <trkpt lat="43.34946" lon="2.57612">
        <ele>275.56</ele>
        <time>2021-03-29T14:20:31Z</time>
      </trkpt>
      <trkpt lat="43.34944" lon="2.57611">
        <ele>275.56</ele>
        <time>2021-03-29T14:20:32Z</time>
      </trkpt>
      <trkpt lat="43.34943" lon="2.57611">
        <ele>275.56</ele>
        <time>2021-03-29T14:20:33Z</time>
      </trkpt>
      <trkpt lat="43.34941" lon="2.57611">
        <ele>275.56</ele>
        <time>2021-03-29T14:20:34Z</time>
      </trkpt>
      <trkpt lat="43.3494" lon="2.57611">
        <ele>275.56</ele>
        <time>2021-03-29T14:20:35Z</time>
      </trkpt>
      <trkpt lat="43.34937" lon="2.57611">
        <ele>274.11</ele>
        <time>2021-03-29T14:20:38Z</time>
      </trkpt>
      <trkpt lat="43.34929" lon="2.57615">
        <ele>272.19</ele>
        <time>2021-03-29T14:20:49Z</time>
      </trkpt>
      <trkpt lat="43.34928" lon="2.57616">
        <ele>271.71</ele>
        <time>2021-03-29T14:20:55Z</time>
      </trkpt>
      <trkpt lat="43.3493" lon="2.57616">
        <ele>271.71</ele>
        <time>2021-03-29T14:20:57Z</time>
      </trkpt>
      <trkpt lat="43.34933" lon="2.57615">
        <ele>271.71</ele>
        <time>2021-03-29T14:20:59Z</time>
      </trkpt>
      <trkpt lat="43.34939" lon="2.57615">
        <ele>273.15</ele>
        <time>2021-03-29T14:21:02Z</time>
      </trkpt>
      <trkpt lat="43.34941" lon="2.57615">
        <ele>273.63</ele>
        <time>2021-03-29T14:21:03Z</time>
      </trkpt>
      <trkpt lat="43.34943" lon="2.57615">
        <ele>273.63</ele>
        <time>2021-03-29T14:21:04Z</time>
      </trkpt>
      <trkpt lat="43.3495" lon="2.5762">
        <ele>275.56</ele>
        <time>2021-03-29T14:21:14Z</time>
      </trkpt>
      <trkpt lat="43.3495" lon="2.57622">
        <ele>275.56</ele>
        <time>2021-03-29T14:21:15Z</time>
      </trkpt>
      <trkpt lat="43.3495" lon="2.57625">
        <ele>275.56</ele>
        <time>2021-03-29T14:21:18Z</time>
      </trkpt>
      <trkpt lat="43.34948" lon="2.57633">
        <ele>275.56</ele>
        <time>2021-03-29T14:21:27Z</time>
      </trkpt>
      <trkpt lat="43.34948" lon="2.57635">
        <ele>275.56</ele>
        <time>2021-03-29T14:21:28Z</time>
      </trkpt>
      <trkpt lat="43.34948" lon="2.57637">
        <ele>275.56</ele>
        <time>2021-03-29T14:21:29Z</time>
      </trkpt>
      <trkpt lat="43.34947" lon="2.57639">
        <ele>275.56</ele>
        <time>2021-03-29T14:21:30Z</time>
      </trkpt>
      <trkpt lat="43.34941" lon="2.5766">
        <ele>274.59</ele>
        <time>2021-03-29T14:21:43Z</time>
      </trkpt>
      <trkpt lat="43.34931" lon="2.57682">
        <ele>273.15</ele>
        <time>2021-03-29T14:21:57Z</time>
      </trkpt>
      <trkpt lat="43.34926" lon="2.57711">
        <ele>273.15</ele>
        <time>2021-03-29T14:22:14Z</time>
      </trkpt>
      <trkpt lat="43.34928" lon="2.57713">
        <ele>272.67</ele>
        <time>2021-03-29T14:22:27Z</time>
      </trkpt>
      <trkpt lat="43.34928" lon="2.57713">
        <ele>272.67</ele>
        <time>2021-03-29T14:22:28Z</time>
      </trkpt>
      <trkpt lat="43.34929" lon="2.57717">
        <ele>272.67</ele>
        <time>2021-03-29T14:22:32Z</time>
      </trkpt>
      <trkpt lat="43.34933" lon="2.57723">
        <ele>271.71</ele>
        <time>2021-03-29T14:22:42Z</time>
      </trkpt>
      <trkpt lat="43.34944" lon="2.57731">
        <ele>271.23</ele>
        <time>2021-03-29T14:22:53Z</time>
      </trkpt>
      <trkpt lat="43.34944" lon="2.57734">
        <ele>270.75</ele>
        <time>2021-03-29T14:22:55Z</time>
      </trkpt>
      <trkpt lat="43.34944" lon="2.57735">
        <ele>270.75</ele>
        <time>2021-03-29T14:22:56Z</time>
      </trkpt>
      <trkpt lat="43.34941" lon="2.57743">
        <ele>269.79</ele>
        <time>2021-03-29T14:23:08Z</time>
      </trkpt>
      <trkpt lat="43.34935" lon="2.57749">
        <ele>269.79</ele>
        <time>2021-03-29T14:23:28Z</time>
      </trkpt>
      <trkpt lat="43.34931" lon="2.57759">
        <ele>269.79</ele>
        <time>2021-03-29T14:23:55Z</time>
      </trkpt>
      <trkpt lat="43.34912" lon="2.57771">
        <ele>268.35</ele>
        <time>2021-03-29T14:24:16Z</time>
      </trkpt>
      <trkpt lat="43.3489" lon="2.5779">
        <ele>265.46</ele>
        <time>2021-03-29T14:24:38Z</time>
      </trkpt>
      <trkpt lat="43.34889" lon="2.57791">
        <ele>266.9</ele>
        <time>2021-03-29T14:24:40Z</time>
      </trkpt>
      <trkpt lat="43.34891" lon="2.57791">
        <ele>267.38</ele>
        <time>2021-03-29T14:25:10Z</time>
      </trkpt>
      <trkpt lat="43.34887" lon="2.57784">
        <ele>265.46</ele>
        <time>2021-03-29T14:25:22Z</time>
      </trkpt>
      <trkpt lat="43.34872" lon="2.57803">
        <ele>263.54</ele>
        <time>2021-03-29T14:25:43Z</time>
      </trkpt>
      <trkpt lat="43.34863" lon="2.57807">
        <ele>264.5</ele>
        <time>2021-03-29T14:25:49Z</time>
      </trkpt>
      <trkpt lat="43.34859" lon="2.5781">
        <ele>263.06</ele>
        <time>2021-03-29T14:25:52Z</time>
      </trkpt>
      <trkpt lat="43.34836" lon="2.57814">
        <ele>262.58</ele>
        <time>2021-03-29T14:26:11Z</time>
      </trkpt>
      <trkpt lat="43.34832" lon="2.57814">
        <ele>261.62</ele>
        <time>2021-03-29T14:26:14Z</time>
      </trkpt>
      <trkpt lat="43.3483" lon="2.57816">
        <ele>261.62</ele>
        <time>2021-03-29T14:26:15Z</time>
      </trkpt>
      <trkpt lat="43.34817" lon="2.5782">
        <ele>261.14</ele>
        <time>2021-03-29T14:26:29Z</time>
      </trkpt>
      <trkpt lat="43.34814" lon="2.57821">
        <ele>260.65</ele>
        <time>2021-03-29T14:26:32Z</time>
      </trkpt>
      <trkpt lat="43.34812" lon="2.57822">
        <ele>260.65</ele>
        <time>2021-03-29T14:26:33Z</time>
      </trkpt>
      <trkpt lat="43.34797" lon="2.57825">
        <ele>260.65</ele>
        <time>2021-03-29T14:26:45Z</time>
      </trkpt>
      <trkpt lat="43.34796" lon="2.57827">
        <ele>260.65</ele>
        <time>2021-03-29T14:26:46Z</time>
      </trkpt>
      <trkpt lat="43.34795" lon="2.57827">
        <ele>260.65</ele>
        <time>2021-03-29T14:26:47Z</time>
      </trkpt>
      <trkpt lat="43.3479" lon="2.57832">
        <ele>259.21</ele>
        <time>2021-03-29T14:26:51Z</time>
      </trkpt>
      <trkpt lat="43.34772" lon="2.57847">
        <ele>258.73</ele>
        <time>2021-03-29T14:27:08Z</time>
      </trkpt>
      <trkpt lat="43.34765" lon="2.57856">
        <ele>258.73</ele>
        <time>2021-03-29T14:27:19Z</time>
      </trkpt>
      <trkpt lat="43.34764" lon="2.57858">
        <ele>258.73</ele>
        <time>2021-03-29T14:27:20Z</time>
      </trkpt>
      <trkpt lat="43.34757" lon="2.5788">
        <ele>257.77</ele>
        <time>2021-03-29T14:27:32Z</time>
      </trkpt>
      <trkpt lat="43.34754" lon="2.57902">
        <ele>257.29</ele>
        <time>2021-03-29T14:27:45Z</time>
      </trkpt>
      <trkpt lat="43.34754" lon="2.57906">
        <ele>257.29</ele>
        <time>2021-03-29T14:27:47Z</time>
      </trkpt>
      <trkpt lat="43.34751" lon="2.57926">
        <ele>256.81</ele>
        <time>2021-03-29T14:28:00Z</time>
      </trkpt>
      <trkpt lat="43.34749" lon="2.57934">
        <ele>256.33</ele>
        <time>2021-03-29T14:28:06Z</time>
      </trkpt>
      <trkpt lat="43.34749" lon="2.57936">
        <ele>256.33</ele>
        <time>2021-03-29T14:28:07Z</time>
      </trkpt>
      <trkpt lat="43.34749" lon="2.57938">
        <ele>255.85</ele>
        <time>2021-03-29T14:28:08Z</time>
      </trkpt>
      <trkpt lat="43.34749" lon="2.5794">
        <ele>255.85</ele>
        <time>2021-03-29T14:28:09Z</time>
      </trkpt>
      <trkpt lat="43.34749" lon="2.57943">
        <ele>255.85</ele>
        <time>2021-03-29T14:28:10Z</time>
      </trkpt>
      <trkpt lat="43.34749" lon="2.57945">
        <ele>255.85</ele>
        <time>2021-03-29T14:28:11Z</time>
      </trkpt>
      <trkpt lat="43.34749" lon="2.57947">
        <ele>255.85</ele>
        <time>2021-03-29T14:28:12Z</time>
      </trkpt>
      <trkpt lat="43.34748" lon="2.57948">
        <ele>255.85</ele>
        <time>2021-03-29T14:28:13Z</time>
      </trkpt>
      <trkpt lat="43.34754" lon="2.57963">
        <ele>255.37</ele>
        <time>2021-03-29T14:28:24Z</time>
      </trkpt>
      <trkpt lat="43.3476" lon="2.57976">
        <ele>254.41</ele>
        <time>2021-03-29T14:28:36Z</time>
      </trkpt>
      <trkpt lat="43.34762" lon="2.57977">
        <ele>254.41</ele>
        <time>2021-03-29T14:28:37Z</time>
      </trkpt>
      <trkpt lat="43.34773" lon="2.57989">
        <ele>252.96</ele>
        <time>2021-03-29T14:28:49Z</time>
      </trkpt>
      <trkpt lat="43.34787" lon="2.5799">
        <ele>252.96</ele>
        <time>2021-03-29T14:28:59Z</time>
      </trkpt>
      <trkpt lat="43.34798" lon="2.57997">
        <ele>252</ele>
        <time>2021-03-29T14:29:10Z</time>
      </trkpt>
      <trkpt lat="43.34809" lon="2.58002">
        <ele>251.52</ele>
        <time>2021-03-29T14:29:20Z</time>
      </trkpt>
      <trkpt lat="43.3481" lon="2.58002">
        <ele>251.52</ele>
        <time>2021-03-29T14:29:21Z</time>
      </trkpt>
      <trkpt lat="43.34812" lon="2.58003">
        <ele>251.52</ele>
        <time>2021-03-29T14:29:22Z</time>
      </trkpt>
      <trkpt lat="43.34813" lon="2.58002">
        <ele>251.52</ele>
        <time>2021-03-29T14:29:23Z</time>
      </trkpt>
      <trkpt lat="43.34814" lon="2.58002">
        <ele>251.52</ele>
        <time>2021-03-29T14:29:24Z</time>
      </trkpt>
      <trkpt lat="43.34816" lon="2.58001">
        <ele>251.52</ele>
        <time>2021-03-29T14:29:25Z</time>
      </trkpt>
      <trkpt lat="43.34817" lon="2.58001">
        <ele>251.52</ele>
        <time>2021-03-29T14:29:26Z</time>
      </trkpt>
      <trkpt lat="43.34818" lon="2.58001">
        <ele>251.52</ele>
        <time>2021-03-29T14:29:27Z</time>
      </trkpt>
      <trkpt lat="43.3482" lon="2.58001">
        <ele>251.52</ele>
        <time>2021-03-29T14:29:28Z</time>
      </trkpt>
      <trkpt lat="43.34825" lon="2.58">
        <ele>251.04</ele>
        <time>2021-03-29T14:29:36Z</time>
      </trkpt>
      <trkpt lat="43.34827" lon="2.57999">
        <ele>251.04</ele>
        <time>2021-03-29T14:29:37Z</time>
      </trkpt>
      <trkpt lat="43.34829" lon="2.57998">
        <ele>251.04</ele>
        <time>2021-03-29T14:29:38Z</time>
      </trkpt>
      <trkpt lat="43.34831" lon="2.57998">
        <ele>251.04</ele>
        <time>2021-03-29T14:29:39Z</time>
      </trkpt>
      <trkpt lat="43.34832" lon="2.57998">
        <ele>251.04</ele>
        <time>2021-03-29T14:29:40Z</time>
      </trkpt>
      <trkpt lat="43.34836" lon="2.57995">
        <ele>251.52</ele>
        <time>2021-03-29T14:29:46Z</time>
      </trkpt>
      <trkpt lat="43.34838" lon="2.57994">
        <ele>251.52</ele>
        <time>2021-03-29T14:29:47Z</time>
      </trkpt>
      <trkpt lat="43.3484" lon="2.57993">
        <ele>251.04</ele>
        <time>2021-03-29T14:29:48Z</time>
      </trkpt>
      <trkpt lat="43.34841" lon="2.57992">
        <ele>251.04</ele>
        <time>2021-03-29T14:29:49Z</time>
      </trkpt>
      <trkpt lat="43.34843" lon="2.5799">
        <ele>251.52</ele>
        <time>2021-03-29T14:29:50Z</time>
      </trkpt>
      <trkpt lat="43.34844" lon="2.57989">
        <ele>251.04</ele>
        <time>2021-03-29T14:29:51Z</time>
      </trkpt>
      <trkpt lat="43.34845" lon="2.57988">
        <ele>251.04</ele>
        <time>2021-03-29T14:29:52Z</time>
      </trkpt>
      <trkpt lat="43.34848" lon="2.57986">
        <ele>251.04</ele>
        <time>2021-03-29T14:29:57Z</time>
      </trkpt>
      <trkpt lat="43.34849" lon="2.57986">
        <ele>251.04</ele>
        <time>2021-03-29T14:29:58Z</time>
      </trkpt>
      <trkpt lat="43.3485" lon="2.57985">
        <ele>251.04</ele>
        <time>2021-03-29T14:29:59Z</time>
      </trkpt>
      <trkpt lat="43.34852" lon="2.57985">
        <ele>251.04</ele>
        <time>2021-03-29T14:30:00Z</time>
      </trkpt>
      <trkpt lat="43.34854" lon="2.57985">
        <ele>251.04</ele>
        <time>2021-03-29T14:30:01Z</time>
      </trkpt>
      <trkpt lat="43.34863" lon="2.57992">
        <ele>251.04</ele>
        <time>2021-03-29T14:30:07Z</time>
      </trkpt>
      <trkpt lat="43.34864" lon="2.57997">
        <ele>251.04</ele>
        <time>2021-03-29T14:30:10Z</time>
      </trkpt>
      <trkpt lat="43.34864" lon="2.57998">
        <ele>251.04</ele>
        <time>2021-03-29T14:30:11Z</time>
      </trkpt>
      <trkpt lat="43.34855" lon="2.58012">
        <ele>251.04</ele>
        <time>2021-03-29T14:30:24Z</time>
      </trkpt>
      <trkpt lat="43.34845" lon="2.58032">
        <ele>250.56</ele>
        <time>2021-03-29T14:30:39Z</time>
      </trkpt>
      <trkpt lat="43.34839" lon="2.58044">
        <ele>250.56</ele>
        <time>2021-03-29T14:30:48Z</time>
      </trkpt>
      <trkpt lat="43.34838" lon="2.58045">
        <ele>250.56</ele>
        <time>2021-03-29T14:30:49Z</time>
      </trkpt>
      <trkpt lat="43.34837" lon="2.58047">
        <ele>250.56</ele>
        <time>2021-03-29T14:30:50Z</time>
      </trkpt>
      <trkpt lat="43.34837" lon="2.5805">
        <ele>250.56</ele>
        <time>2021-03-29T14:30:51Z</time>
      </trkpt>
      <trkpt lat="43.34836" lon="2.58053">
        <ele>250.56</ele>
        <time>2021-03-29T14:30:52Z</time>
      </trkpt>
      <trkpt lat="43.34835" lon="2.58055">
        <ele>250.56</ele>
        <time>2021-03-29T14:30:53Z</time>
      </trkpt>
      <trkpt lat="43.34834" lon="2.58063">
        <ele>250.56</ele>
        <time>2021-03-29T14:31:02Z</time>
      </trkpt>
      <trkpt lat="43.34834" lon="2.58065">
        <ele>250.56</ele>
        <time>2021-03-29T14:31:03Z</time>
      </trkpt>
      <trkpt lat="43.34834" lon="2.58067">
        <ele>250.56</ele>
        <time>2021-03-29T14:31:04Z</time>
      </trkpt>
      <trkpt lat="43.34834" lon="2.58068">
        <ele>250.56</ele>
        <time>2021-03-29T14:31:05Z</time>
      </trkpt>
      <trkpt lat="43.34833" lon="2.58071">
        <ele>250.08</ele>
        <time>2021-03-29T14:31:06Z</time>
      </trkpt>
      <trkpt lat="43.34833" lon="2.58073">
        <ele>249.6</ele>
        <time>2021-03-29T14:31:07Z</time>
      </trkpt>
      <trkpt lat="43.34833" lon="2.58076">
        <ele>249.6</ele>
        <time>2021-03-29T14:31:08Z</time>
      </trkpt>
      <trkpt lat="43.34832" lon="2.58078">
        <ele>249.6</ele>
        <time>2021-03-29T14:31:09Z</time>
      </trkpt>
      <trkpt lat="43.34832" lon="2.5808">
        <ele>249.6</ele>
        <time>2021-03-29T14:31:10Z</time>
      </trkpt>
      <trkpt lat="43.34831" lon="2.58082">
        <ele>249.6</ele>
        <time>2021-03-29T14:31:14Z</time>
      </trkpt>
      <trkpt lat="43.3483" lon="2.58083">
        <ele>249.6</ele>
        <time>2021-03-29T14:31:15Z</time>
      </trkpt>
      <trkpt lat="43.34828" lon="2.58083">
        <ele>249.6</ele>
        <time>2021-03-29T14:31:16Z</time>
      </trkpt>
      <trkpt lat="43.34827" lon="2.58083">
        <ele>249.6</ele>
        <time>2021-03-29T14:31:17Z</time>
      </trkpt>
      <trkpt lat="43.34825" lon="2.58084">
        <ele>249.6</ele>
        <time>2021-03-29T14:31:18Z</time>
      </trkpt>
      <trkpt lat="43.34823" lon="2.58084">
        <ele>249.6</ele>
        <time>2021-03-29T14:31:19Z</time>
      </trkpt>
      <trkpt lat="43.34822" lon="2.58084">
        <ele>249.6</ele>
        <time>2021-03-29T14:31:20Z</time>
      </trkpt>
      <trkpt lat="43.34798" lon="2.58084">
        <ele>249.12</ele>
        <time>2021-03-29T14:31:36Z</time>
      </trkpt>
      <trkpt lat="43.34792" lon="2.58085">
        <ele>248.16</ele>
        <time>2021-03-29T14:31:46Z</time>
      </trkpt>
      <trkpt lat="43.34791" lon="2.58085">
        <ele>247.68</ele>
        <time>2021-03-29T14:31:47Z</time>
      </trkpt>
      <trkpt lat="43.34789" lon="2.58085">
        <ele>247.68</ele>
        <time>2021-03-29T14:31:48Z</time>
      </trkpt>
      <trkpt lat="43.34776" lon="2.58092">
        <ele>247.68</ele>
        <time>2021-03-29T14:31:59Z</time>
      </trkpt>
      <trkpt lat="43.34773" lon="2.58092">
        <ele>247.2</ele>
        <time>2021-03-29T14:32:05Z</time>
      </trkpt>
      <trkpt lat="43.34766" lon="2.58097">
        <ele>246.72</ele>
        <time>2021-03-29T14:32:10Z</time>
      </trkpt>
      <trkpt lat="43.34765" lon="2.58098">
        <ele>246.23</ele>
        <time>2021-03-29T14:32:11Z</time>
      </trkpt>
      <trkpt lat="43.34764" lon="2.58098">
        <ele>246.23</ele>
        <time>2021-03-29T14:32:12Z</time>
      </trkpt>
      <trkpt lat="43.34757" lon="2.58096">
        <ele>245.75</ele>
        <time>2021-03-29T14:32:21Z</time>
      </trkpt>
      <trkpt lat="43.34747" lon="2.58104">
        <ele>245.27</ele>
        <time>2021-03-29T14:32:29Z</time>
      </trkpt>
      <trkpt lat="43.3474" lon="2.58105">
        <ele>244.31</ele>
        <time>2021-03-29T14:32:38Z</time>
      </trkpt>
      <trkpt lat="43.34738" lon="2.58105">
        <ele>244.31</ele>
        <time>2021-03-29T14:32:39Z</time>
      </trkpt>
      <trkpt lat="43.34729" lon="2.5811">
        <ele>243.83</ele>
        <time>2021-03-29T14:32:48Z</time>
      </trkpt>
      <trkpt lat="43.34713" lon="2.58116">
        <ele>243.35</ele>
        <time>2021-03-29T14:33:00Z</time>
      </trkpt>
      <trkpt lat="43.34698" lon="2.58119">
        <ele>242.39</ele>
        <time>2021-03-29T14:33:11Z</time>
      </trkpt>
      <trkpt lat="43.34691" lon="2.58118">
        <ele>241.91</ele>
        <time>2021-03-29T14:33:22Z</time>
      </trkpt>
      <trkpt lat="43.3469" lon="2.58119">
        <ele>241.91</ele>
        <time>2021-03-29T14:33:23Z</time>
      </trkpt>
      <trkpt lat="43.34686" lon="2.58122">
        <ele>241.43</ele>
        <time>2021-03-29T14:33:26Z</time>
      </trkpt>
      <trkpt lat="43.34675" lon="2.58123">
        <ele>240.95</ele>
        <time>2021-03-29T14:33:36Z</time>
      </trkpt>
      <trkpt lat="43.34677" lon="2.58122">
        <ele>240.47</ele>
        <time>2021-03-29T14:33:40Z</time>
      </trkpt>
      <trkpt lat="43.34679" lon="2.58121">
        <ele>240.47</ele>
        <time>2021-03-29T14:33:41Z</time>
      </trkpt>
      <trkpt lat="43.3468" lon="2.5812">
        <ele>240.47</ele>
        <time>2021-03-29T14:33:42Z</time>
      </trkpt>
      <trkpt lat="43.34681" lon="2.5812">
        <ele>240.47</ele>
        <time>2021-03-29T14:33:46Z</time>
      </trkpt>
      <trkpt lat="43.34679" lon="2.58121">
        <ele>240.47</ele>
        <time>2021-03-29T14:33:47Z</time>
      </trkpt>
      <trkpt lat="43.34678" lon="2.58122">
        <ele>240.47</ele>
        <time>2021-03-29T14:33:48Z</time>
      </trkpt>
      <trkpt lat="43.3467" lon="2.58129">
        <ele>240.47</ele>
        <time>2021-03-29T14:33:55Z</time>
      </trkpt>
      <trkpt lat="43.34667" lon="2.58134">
        <ele>240.47</ele>
        <time>2021-03-29T14:34:01Z</time>
      </trkpt>
      <trkpt lat="43.34667" lon="2.58142">
        <ele>240.47</ele>
        <time>2021-03-29T14:34:08Z</time>
      </trkpt>
      <trkpt lat="43.34672" lon="2.58155">
        <ele>239.02</ele>
        <time>2021-03-29T14:34:19Z</time>
      </trkpt>
      <trkpt lat="43.34674" lon="2.58157">
        <ele>239.02</ele>
        <time>2021-03-29T14:34:20Z</time>
      </trkpt>
      <trkpt lat="43.34681" lon="2.58169">
        <ele>238.06</ele>
        <time>2021-03-29T14:34:26Z</time>
      </trkpt>
      <trkpt lat="43.34682" lon="2.58175">
        <ele>238.06</ele>
        <time>2021-03-29T14:34:29Z</time>
      </trkpt>
      <trkpt lat="43.34682" lon="2.58177">
        <ele>238.06</ele>
        <time>2021-03-29T14:34:30Z</time>
      </trkpt>
      <trkpt lat="43.34682" lon="2.58179">
        <ele>237.58</ele>
        <time>2021-03-29T14:34:31Z</time>
      </trkpt>
      <trkpt lat="43.34682" lon="2.58183">
        <ele>237.58</ele>
        <time>2021-03-29T14:34:34Z</time>
      </trkpt>
      <trkpt lat="43.34682" lon="2.58185">
        <ele>237.58</ele>
        <time>2021-03-29T14:34:35Z</time>
      </trkpt>
      <trkpt lat="43.34681" lon="2.58187">
        <ele>237.58</ele>
        <time>2021-03-29T14:34:36Z</time>
      </trkpt>
      <trkpt lat="43.3468" lon="2.58189">
        <ele>237.58</ele>
        <time>2021-03-29T14:34:37Z</time>
      </trkpt>
      <trkpt lat="43.3468" lon="2.58192">
        <ele>237.58</ele>
        <time>2021-03-29T14:34:38Z</time>
      </trkpt>
      <trkpt lat="43.34668" lon="2.58211">
        <ele>236.62</ele>
        <time>2021-03-29T14:34:51Z</time>
      </trkpt>
      <trkpt lat="43.34663" lon="2.5821">
        <ele>236.14</ele>
        <time>2021-03-29T14:34:58Z</time>
      </trkpt>
      <trkpt lat="43.34647" lon="2.58203">
        <ele>235.66</ele>
        <time>2021-03-29T14:35:09Z</time>
      </trkpt>
      <trkpt lat="43.34633" lon="2.58204">
        <ele>235.66</ele>
        <time>2021-03-29T14:35:20Z</time>
      </trkpt>
      <trkpt lat="43.34622" lon="2.58208">
        <ele>235.66</ele>
        <time>2021-03-29T14:35:34Z</time>
      </trkpt>
      <trkpt lat="43.34603" lon="2.58213">
        <ele>234.7</ele>
        <time>2021-03-29T14:35:47Z</time>
      </trkpt>
      <trkpt lat="43.34586" lon="2.58221">
        <ele>233.74</ele>
        <time>2021-03-29T14:36:01Z</time>
      </trkpt>
      <trkpt lat="43.34578" lon="2.58223">
        <ele>232.78</ele>
        <time>2021-03-29T14:36:10Z</time>
      </trkpt>
      <trkpt lat="43.34576" lon="2.58224">
        <ele>232.78</ele>
        <time>2021-03-29T14:36:11Z</time>
      </trkpt>
      <trkpt lat="43.34556" lon="2.58238">
        <ele>231.33</ele>
        <time>2021-03-29T14:36:26Z</time>
      </trkpt>
      <trkpt lat="43.34543" lon="2.58247">
        <ele>230.37</ele>
        <time>2021-03-29T14:36:38Z</time>
      </trkpt>
      <trkpt lat="43.34537" lon="2.58251">
        <ele>229.41</ele>
        <time>2021-03-29T14:36:49Z</time>
      </trkpt>
      <trkpt lat="43.34526" lon="2.58259">
        <ele>229.41</ele>
        <time>2021-03-29T14:37:00Z</time>
      </trkpt>
      <trkpt lat="43.34525" lon="2.5826">
        <ele>228.93</ele>
        <time>2021-03-29T14:37:01Z</time>
      </trkpt>
      <trkpt lat="43.34511" lon="2.58272">
        <ele>228.93</ele>
        <time>2021-03-29T14:37:12Z</time>
      </trkpt>
      <trkpt lat="43.34498" lon="2.58282">
        <ele>228.45</ele>
        <time>2021-03-29T14:37:25Z</time>
      </trkpt>
      <trkpt lat="43.34488" lon="2.5829">
        <ele>227.01</ele>
        <time>2021-03-29T14:37:39Z</time>
      </trkpt>
      <trkpt lat="43.34487" lon="2.5829">
        <ele>227.01</ele>
        <time>2021-03-29T14:37:40Z</time>
      </trkpt>
      <trkpt lat="43.34485" lon="2.58292">
        <ele>227.01</ele>
        <time>2021-03-29T14:37:41Z</time>
      </trkpt>
      <trkpt lat="43.34467" lon="2.58301">
        <ele>225.09</ele>
        <time>2021-03-29T14:37:53Z</time>
      </trkpt>
      <trkpt lat="43.3445" lon="2.58318">
        <ele>222.2</ele>
        <time>2021-03-29T14:38:10Z</time>
      </trkpt>
      <trkpt lat="43.34435" lon="2.58326">
        <ele>221.24</ele>
        <time>2021-03-29T14:38:23Z</time>
      </trkpt>
      <trkpt lat="43.34423" lon="2.58333">
        <ele>217.88</ele>
        <time>2021-03-29T14:38:34Z</time>
      </trkpt>
      <trkpt lat="43.34419" lon="2.58336">
        <ele>219.8</ele>
        <time>2021-03-29T14:38:39Z</time>
      </trkpt>
      <trkpt lat="43.34418" lon="2.58337">
        <ele>218.36</ele>
        <time>2021-03-29T14:38:40Z</time>
      </trkpt>
      <trkpt lat="43.34406" lon="2.5836">
        <ele>215.95</ele>
        <time>2021-03-29T14:38:52Z</time>
      </trkpt>
      <trkpt lat="43.34402" lon="2.58368">
        <ele>214.99</ele>
        <time>2021-03-29T14:39:00Z</time>
      </trkpt>
      <trkpt lat="43.34401" lon="2.5837">
        <ele>214.99</ele>
        <time>2021-03-29T14:39:01Z</time>
      </trkpt>
      <trkpt lat="43.34401" lon="2.58371">
        <ele>214.99</ele>
        <time>2021-03-29T14:39:02Z</time>
      </trkpt>
      <trkpt lat="43.34401" lon="2.58381">
        <ele>214.03</ele>
        <time>2021-03-29T14:39:16Z</time>
      </trkpt>
      <trkpt lat="43.344" lon="2.58383">
        <ele>215.47</ele>
        <time>2021-03-29T14:39:28Z</time>
      </trkpt>
      <trkpt lat="43.344" lon="2.58382">
        <ele>214.03</ele>
        <time>2021-03-29T14:39:37Z</time>
      </trkpt>
      <trkpt lat="43.34401" lon="2.58382">
        <ele>214.03</ele>
        <time>2021-03-29T14:39:50Z</time>
      </trkpt>
      <trkpt lat="43.34401" lon="2.58381">
        <ele>214.99</ele>
        <time>2021-03-29T14:39:53Z</time>
      </trkpt>
      <trkpt lat="43.34397" lon="2.5838">
        <ele>214.99</ele>
        <time>2021-03-29T14:40:07Z</time>
      </trkpt>
      <trkpt lat="43.34398" lon="2.58381">
        <ele>214.99</ele>
        <time>2021-03-29T14:40:20Z</time>
      </trkpt>
      <trkpt lat="43.34399" lon="2.58385">
        <ele>214.99</ele>
        <time>2021-03-29T14:40:25Z</time>
      </trkpt>
      <trkpt lat="43.34399" lon="2.58387">
        <ele>214.99</ele>
        <time>2021-03-29T14:40:26Z</time>
      </trkpt>
      <trkpt lat="43.34399" lon="2.58389">
        <ele>213.55</ele>
        <time>2021-03-29T14:40:27Z</time>
      </trkpt>
      <trkpt lat="43.344" lon="2.58392">
        <ele>213.55</ele>
        <time>2021-03-29T14:40:28Z</time>
      </trkpt>
      <trkpt lat="43.344" lon="2.58393">
        <ele>213.07</ele>
        <time>2021-03-29T14:40:29Z</time>
      </trkpt>
      <trkpt lat="43.34401" lon="2.58396">
        <ele>213.07</ele>
        <time>2021-03-29T14:40:30Z</time>
      </trkpt>
      <trkpt lat="43.34402" lon="2.58398">
        <ele>213.07</ele>
        <time>2021-03-29T14:40:31Z</time>
      </trkpt>
      <trkpt lat="43.34403" lon="2.584">
        <ele>213.07</ele>
        <time>2021-03-29T14:40:32Z</time>
      </trkpt>
      <trkpt lat="43.34404" lon="2.58401">
        <ele>213.07</ele>
        <time>2021-03-29T14:40:33Z</time>
      </trkpt>
      <trkpt lat="43.34405" lon="2.58403">
        <ele>213.07</ele>
        <time>2021-03-29T14:40:34Z</time>
      </trkpt>
      <trkpt lat="43.34405" lon="2.58406">
        <ele>213.07</ele>
        <time>2021-03-29T14:40:35Z</time>
      </trkpt>
      <trkpt lat="43.34405" lon="2.58407">
        <ele>213.07</ele>
        <time>2021-03-29T14:40:36Z</time>
      </trkpt>
      <trkpt lat="43.34404" lon="2.58413">
        <ele>212.59</ele>
        <time>2021-03-29T14:40:43Z</time>
      </trkpt>
      <trkpt lat="43.34404" lon="2.58415">
        <ele>212.59</ele>
        <time>2021-03-29T14:40:44Z</time>
      </trkpt>
      <trkpt lat="43.34397" lon="2.58429">
        <ele>212.59</ele>
        <time>2021-03-29T14:40:55Z</time>
      </trkpt>
      <trkpt lat="43.34394" lon="2.58433">
        <ele>214.51</ele>
        <time>2021-03-29T14:40:59Z</time>
      </trkpt>
      <trkpt lat="43.34383" lon="2.58451">
        <ele>211.63</ele>
        <time>2021-03-29T14:41:12Z</time>
      </trkpt>
      <trkpt lat="43.34381" lon="2.58456">
        <ele>211.63</ele>
        <time>2021-03-29T14:41:16Z</time>
      </trkpt>
      <trkpt lat="43.34378" lon="2.58462">
        <ele>213.07</ele>
        <time>2021-03-29T14:41:20Z</time>
      </trkpt>
      <trkpt lat="43.34372" lon="2.58486">
        <ele>211.15</ele>
        <time>2021-03-29T14:41:35Z</time>
      </trkpt>
      <trkpt lat="43.34366" lon="2.5851">
        <ele>209.7</ele>
        <time>2021-03-29T14:41:46Z</time>
      </trkpt>
      <trkpt lat="43.34366" lon="2.58514">
        <ele>209.7</ele>
        <time>2021-03-29T14:41:50Z</time>
      </trkpt>
      <trkpt lat="43.34366" lon="2.58515">
        <ele>209.7</ele>
        <time>2021-03-29T14:41:51Z</time>
      </trkpt>
      <trkpt lat="43.34366" lon="2.58517">
        <ele>209.22</ele>
        <time>2021-03-29T14:41:52Z</time>
      </trkpt>
      <trkpt lat="43.34364" lon="2.58531">
        <ele>208.74</ele>
        <time>2021-03-29T14:41:59Z</time>
      </trkpt>
      <trkpt lat="43.34358" lon="2.58549">
        <ele>208.26</ele>
        <time>2021-03-29T14:42:12Z</time>
      </trkpt>
      <trkpt lat="43.34355" lon="2.58558">
        <ele>207.78</ele>
        <time>2021-03-29T14:42:22Z</time>
      </trkpt>
      <trkpt lat="43.34354" lon="2.58559">
        <ele>207.78</ele>
        <time>2021-03-29T14:42:23Z</time>
      </trkpt>
      <trkpt lat="43.34353" lon="2.58559">
        <ele>207.78</ele>
        <time>2021-03-29T14:42:24Z</time>
      </trkpt>
      <trkpt lat="43.3435" lon="2.58561">
        <ele>207.3</ele>
        <time>2021-03-29T14:42:37Z</time>
      </trkpt>
      <trkpt lat="43.34348" lon="2.58565">
        <ele>206.82</ele>
        <time>2021-03-29T14:42:56Z</time>
      </trkpt>
      <trkpt lat="43.34347" lon="2.5857">
        <ele>206.82</ele>
        <time>2021-03-29T14:42:58Z</time>
      </trkpt>
      <trkpt lat="43.34347" lon="2.58571">
        <ele>206.82</ele>
        <time>2021-03-29T14:42:59Z</time>
      </trkpt>
      <trkpt lat="43.34346" lon="2.58572">
        <ele>206.82</ele>
        <time>2021-03-29T14:43:00Z</time>
      </trkpt>
      <trkpt lat="43.34346" lon="2.58574">
        <ele>206.82</ele>
        <time>2021-03-29T14:43:01Z</time>
      </trkpt>
      <trkpt lat="43.34346" lon="2.58575">
        <ele>206.82</ele>
        <time>2021-03-29T14:43:02Z</time>
      </trkpt>
      <trkpt lat="43.34337" lon="2.586">
        <ele>205.38</ele>
        <time>2021-03-29T14:43:19Z</time>
      </trkpt>
      <trkpt lat="43.34333" lon="2.5861">
        <ele>204.42</ele>
        <time>2021-03-29T14:43:28Z</time>
      </trkpt>
      <trkpt lat="43.34332" lon="2.58612">
        <ele>204.42</ele>
        <time>2021-03-29T14:43:29Z</time>
      </trkpt>
      <trkpt lat="43.34324" lon="2.58632">
        <ele>202.98</ele>
        <time>2021-03-29T14:43:42Z</time>
      </trkpt>
      <trkpt lat="43.34319" lon="2.58648">
        <ele>202.01</ele>
        <time>2021-03-29T14:43:51Z</time>
      </trkpt>
      <trkpt lat="43.3432" lon="2.5865">
        <ele>202.01</ele>
        <time>2021-03-29T14:43:56Z</time>
      </trkpt>
      <trkpt lat="43.34319" lon="2.58654">
        <ele>201.53</ele>
        <time>2021-03-29T14:44:01Z</time>
      </trkpt>
      <trkpt lat="43.34318" lon="2.58656">
        <ele>201.53</ele>
        <time>2021-03-29T14:44:02Z</time>
      </trkpt>
      <trkpt lat="43.3431" lon="2.58673">
        <ele>199.61</ele>
        <time>2021-03-29T14:44:12Z</time>
      </trkpt>
      <trkpt lat="43.34309" lon="2.58676">
        <ele>198.65</ele>
        <time>2021-03-29T14:44:14Z</time>
      </trkpt>
      <trkpt lat="43.34305" lon="2.58691">
        <ele>198.17</ele>
        <time>2021-03-29T14:44:26Z</time>
      </trkpt>
      <trkpt lat="43.34298" lon="2.58709">
        <ele>197.21</ele>
        <time>2021-03-29T14:44:38Z</time>
      </trkpt>
      <trkpt lat="43.34294" lon="2.58721">
        <ele>195.28</ele>
        <time>2021-03-29T14:44:45Z</time>
      </trkpt>
      <trkpt lat="43.34293" lon="2.58722">
        <ele>195.28</ele>
        <time>2021-03-29T14:44:46Z</time>
      </trkpt>
      <trkpt lat="43.34293" lon="2.58723">
        <ele>195.28</ele>
        <time>2021-03-29T14:44:47Z</time>
      </trkpt>
      <trkpt lat="43.34292" lon="2.58732">
        <ele>195.28</ele>
        <time>2021-03-29T14:44:56Z</time>
      </trkpt>
      <trkpt lat="43.34292" lon="2.58734">
        <ele>195.28</ele>
        <time>2021-03-29T14:44:57Z</time>
      </trkpt>
      <trkpt lat="43.34291" lon="2.58737">
        <ele>195.28</ele>
        <time>2021-03-29T14:44:58Z</time>
      </trkpt>
      <trkpt lat="43.3429" lon="2.58739">
        <ele>195.28</ele>
        <time>2021-03-29T14:44:59Z</time>
      </trkpt>
      <trkpt lat="43.34289" lon="2.58742">
        <ele>196.73</ele>
        <time>2021-03-29T14:45:00Z</time>
      </trkpt>
      <trkpt lat="43.34289" lon="2.58745">
        <ele>196.73</ele>
        <time>2021-03-29T14:45:01Z</time>
      </trkpt>
      <trkpt lat="43.34288" lon="2.58747">
        <ele>196.73</ele>
        <time>2021-03-29T14:45:02Z</time>
      </trkpt>
      <trkpt lat="43.34288" lon="2.58749">
        <ele>196.73</ele>
        <time>2021-03-29T14:45:03Z</time>
      </trkpt>
      <trkpt lat="43.34288" lon="2.58751">
        <ele>196.73</ele>
        <time>2021-03-29T14:45:04Z</time>
      </trkpt>
      <trkpt lat="43.34288" lon="2.58753">
        <ele>195.28</ele>
        <time>2021-03-29T14:45:06Z</time>
      </trkpt>
      <trkpt lat="43.34284" lon="2.58771">
        <ele>194.8</ele>
        <time>2021-03-29T14:45:18Z</time>
      </trkpt>
      <trkpt lat="43.34278" lon="2.58793">
        <ele>194.32</ele>
        <time>2021-03-29T14:45:29Z</time>
      </trkpt>
      <trkpt lat="43.34271" lon="2.58805">
        <ele>195.28</ele>
        <time>2021-03-29T14:45:40Z</time>
      </trkpt>
      <trkpt lat="43.34267" lon="2.58808">
        <ele>195.28</ele>
        <time>2021-03-29T14:45:44Z</time>
      </trkpt>
      <trkpt lat="43.34264" lon="2.5881">
        <ele>195.28</ele>
        <time>2021-03-29T14:45:47Z</time>
      </trkpt>
      <trkpt lat="43.34263" lon="2.58811">
        <ele>195.28</ele>
        <time>2021-03-29T14:45:48Z</time>
      </trkpt>
      <trkpt lat="43.34261" lon="2.58813">
        <ele>195.28</ele>
        <time>2021-03-29T14:45:49Z</time>
      </trkpt>
      <trkpt lat="43.34249" lon="2.58823">
        <ele>196.25</ele>
        <time>2021-03-29T14:46:01Z</time>
      </trkpt>
      <trkpt lat="43.3424" lon="2.58836">
        <ele>196.25</ele>
        <time>2021-03-29T14:46:12Z</time>
      </trkpt>
      <trkpt lat="43.3423" lon="2.58849">
        <ele>195.28</ele>
        <time>2021-03-29T14:46:24Z</time>
      </trkpt>
      <trkpt lat="43.34227" lon="2.58854">
        <ele>196.73</ele>
        <time>2021-03-29T14:46:29Z</time>
      </trkpt>
      <trkpt lat="43.34218" lon="2.58869">
        <ele>196.73</ele>
        <time>2021-03-29T14:46:40Z</time>
      </trkpt>
      <trkpt lat="43.34216" lon="2.5887">
        <ele>195.77</ele>
        <time>2021-03-29T14:46:42Z</time>
      </trkpt>
      <trkpt lat="43.34215" lon="2.58872">
        <ele>195.77</ele>
        <time>2021-03-29T14:46:44Z</time>
      </trkpt>
      <trkpt lat="43.34214" lon="2.58874">
        <ele>195.77</ele>
        <time>2021-03-29T14:46:45Z</time>
      </trkpt>
      <trkpt lat="43.34213" lon="2.58876">
        <ele>195.77</ele>
        <time>2021-03-29T14:46:46Z</time>
      </trkpt>
      <trkpt lat="43.34212" lon="2.58878">
        <ele>195.77</ele>
        <time>2021-03-29T14:46:47Z</time>
      </trkpt>
      <trkpt lat="43.34211" lon="2.5888">
        <ele>197.21</ele>
        <time>2021-03-29T14:46:48Z</time>
      </trkpt>
      <trkpt lat="43.3421" lon="2.58881">
        <ele>196.73</ele>
        <time>2021-03-29T14:46:49Z</time>
      </trkpt>
      <trkpt lat="43.34199" lon="2.58901">
        <ele>195.28</ele>
        <time>2021-03-29T14:47:03Z</time>
      </trkpt>
      <trkpt lat="43.34198" lon="2.58904">
        <ele>195.28</ele>
        <time>2021-03-29T14:47:04Z</time>
      </trkpt>
      <trkpt lat="43.34194" lon="2.58908">
        <ele>192.4</ele>
        <time>2021-03-29T14:47:07Z</time>
      </trkpt>
      <trkpt lat="43.34192" lon="2.58909">
        <ele>195.77</ele>
        <time>2021-03-29T14:47:09Z</time>
      </trkpt>
      <trkpt lat="43.34192" lon="2.5891">
        <ele>195.77</ele>
        <time>2021-03-29T14:47:10Z</time>
      </trkpt>
      <trkpt lat="43.34189" lon="2.58913">
        <ele>194.32</ele>
        <time>2021-03-29T14:47:13Z</time>
      </trkpt>
      <trkpt lat="43.34177" lon="2.58928">
        <ele>193.84</ele>
        <time>2021-03-29T14:47:25Z</time>
      </trkpt>
      <trkpt lat="43.34164" lon="2.58938">
        <ele>192.88</ele>
        <time>2021-03-29T14:47:38Z</time>
      </trkpt>
      <trkpt lat="43.34149" lon="2.58955">
        <ele>191.44</ele>
        <time>2021-03-29T14:47:52Z</time>
      </trkpt>
      <trkpt lat="43.34148" lon="2.58958">
        <ele>191.44</ele>
        <time>2021-03-29T14:47:55Z</time>
      </trkpt>
      <trkpt lat="43.34146" lon="2.58959">
        <ele>191.44</ele>
        <time>2021-03-29T14:47:56Z</time>
      </trkpt>
      <trkpt lat="43.34145" lon="2.58961">
        <ele>191.44</ele>
        <time>2021-03-29T14:47:57Z</time>
      </trkpt>
      <trkpt lat="43.34131" lon="2.58978">
        <ele>190.48</ele>
        <time>2021-03-29T14:48:11Z</time>
      </trkpt>
      <trkpt lat="43.34118" lon="2.58994">
        <ele>188.56</ele>
        <time>2021-03-29T14:48:23Z</time>
      </trkpt>
      <trkpt lat="43.34115" lon="2.58996">
        <ele>190</ele>
        <time>2021-03-29T14:48:25Z</time>
      </trkpt>
      <trkpt lat="43.34113" lon="2.58997">
        <ele>190</ele>
        <time>2021-03-29T14:48:26Z</time>
      </trkpt>
      <trkpt lat="43.34112" lon="2.58998">
        <ele>190</ele>
        <time>2021-03-29T14:48:27Z</time>
      </trkpt>
      <trkpt lat="43.34111" lon="2.58999">
        <ele>190</ele>
        <time>2021-03-29T14:48:28Z</time>
      </trkpt>
      <trkpt lat="43.341" lon="2.59012">
        <ele>187.59</ele>
        <time>2021-03-29T14:48:40Z</time>
      </trkpt>
      <trkpt lat="43.34089" lon="2.59021">
        <ele>187.11</ele>
        <time>2021-03-29T14:48:52Z</time>
      </trkpt>
      <trkpt lat="43.34075" lon="2.59032">
        <ele>185.67</ele>
        <time>2021-03-29T14:49:06Z</time>
      </trkpt>
      <trkpt lat="43.34054" lon="2.5904">
        <ele>185.19</ele>
        <time>2021-03-29T14:49:18Z</time>
      </trkpt>
      <trkpt lat="43.34047" lon="2.59044">
        <ele>186.15</ele>
        <time>2021-03-29T14:49:25Z</time>
      </trkpt>
      <trkpt lat="43.34045" lon="2.59044">
        <ele>186.15</ele>
        <time>2021-03-29T14:49:26Z</time>
      </trkpt>
      <trkpt lat="43.34032" lon="2.59036">
        <ele>187.11</ele>
        <time>2021-03-29T14:49:38Z</time>
      </trkpt>
      <trkpt lat="43.34016" lon="2.59022">
        <ele>189.52</ele>
        <time>2021-03-29T14:49:53Z</time>
      </trkpt>
      <trkpt lat="43.34005" lon="2.59018">
        <ele>189.52</ele>
        <time>2021-03-29T14:50:04Z</time>
      </trkpt>
      <trkpt lat="43.34" lon="2.59017">
        <ele>190</ele>
        <time>2021-03-29T14:50:10Z</time>
      </trkpt>
      <trkpt lat="43.33998" lon="2.59016">
        <ele>190</ele>
        <time>2021-03-29T14:50:11Z</time>
      </trkpt>
      <trkpt lat="43.33993" lon="2.59017">
        <ele>190</ele>
        <time>2021-03-29T14:50:24Z</time>
      </trkpt>
      <trkpt lat="43.33991" lon="2.59022">
        <ele>190</ele>
        <time>2021-03-29T14:50:32Z</time>
      </trkpt>
      <trkpt lat="43.3399" lon="2.59023">
        <ele>190.48</ele>
        <time>2021-03-29T14:50:33Z</time>
      </trkpt>
      <trkpt lat="43.33987" lon="2.59027">
        <ele>189.04</ele>
        <time>2021-03-29T14:50:37Z</time>
      </trkpt>
      <trkpt lat="43.33985" lon="2.59029">
        <ele>190.48</ele>
        <time>2021-03-29T14:50:40Z</time>
      </trkpt>
      <trkpt lat="43.33982" lon="2.59032">
        <ele>189.52</ele>
        <time>2021-03-29T14:50:44Z</time>
      </trkpt>
      <trkpt lat="43.3397" lon="2.59045">
        <ele>191.92</ele>
        <time>2021-03-29T14:50:57Z</time>
      </trkpt>
      <trkpt lat="43.33961" lon="2.59056">
        <ele>191.92</ele>
        <time>2021-03-29T14:51:09Z</time>
      </trkpt>
      <trkpt lat="43.3396" lon="2.59058">
        <ele>191.92</ele>
        <time>2021-03-29T14:51:10Z</time>
      </trkpt>
      <trkpt lat="43.33958" lon="2.5906">
        <ele>191.92</ele>
        <time>2021-03-29T14:51:11Z</time>
      </trkpt>
      <trkpt lat="43.33957" lon="2.59062">
        <ele>191.92</ele>
        <time>2021-03-29T14:51:12Z</time>
      </trkpt>
      <trkpt lat="43.33955" lon="2.59063">
        <ele>191.92</ele>
        <time>2021-03-29T14:51:13Z</time>
      </trkpt>
      <trkpt lat="43.33954" lon="2.59067">
        <ele>191.92</ele>
        <time>2021-03-29T14:51:16Z</time>
      </trkpt>
      <trkpt lat="43.33952" lon="2.59069">
        <ele>191.44</ele>
        <time>2021-03-29T14:51:27Z</time>
      </trkpt>
      <trkpt lat="43.33944" lon="2.59084">
        <ele>191.92</ele>
        <time>2021-03-29T14:51:37Z</time>
      </trkpt>
      <trkpt lat="43.3394" lon="2.59092">
        <ele>191.92</ele>
        <time>2021-03-29T14:51:41Z</time>
      </trkpt>
      <trkpt lat="43.3394" lon="2.59094">
        <ele>191.92</ele>
        <time>2021-03-29T14:51:42Z</time>
      </trkpt>
      <trkpt lat="43.3394" lon="2.59095">
        <ele>191.92</ele>
        <time>2021-03-29T14:51:43Z</time>
      </trkpt>
      <trkpt lat="43.33934" lon="2.59109">
        <ele>191.44</ele>
        <time>2021-03-29T14:51:56Z</time>
      </trkpt>
      <trkpt lat="43.33933" lon="2.59111">
        <ele>191.44</ele>
        <time>2021-03-29T14:51:57Z</time>
      </trkpt>
      <trkpt lat="43.33928" lon="2.59122">
        <ele>190.48</ele>
        <time>2021-03-29T14:52:12Z</time>
      </trkpt>
      <trkpt lat="43.33921" lon="2.59143">
        <ele>190</ele>
        <time>2021-03-29T14:52:28Z</time>
      </trkpt>
      <trkpt lat="43.3392" lon="2.59145">
        <ele>190</ele>
        <time>2021-03-29T14:52:29Z</time>
      </trkpt>
      <trkpt lat="43.33912" lon="2.59173">
        <ele>188.56</ele>
        <time>2021-03-29T14:52:47Z</time>
      </trkpt>
      <trkpt lat="43.33906" lon="2.59185">
        <ele>190</ele>
        <time>2021-03-29T14:52:53Z</time>
      </trkpt>
      <trkpt lat="43.33906" lon="2.59187">
        <ele>190</ele>
        <time>2021-03-29T14:52:54Z</time>
      </trkpt>
      <trkpt lat="43.33905" lon="2.59189">
        <ele>190</ele>
        <time>2021-03-29T14:52:55Z</time>
      </trkpt>
      <trkpt lat="43.33904" lon="2.59194">
        <ele>190</ele>
        <time>2021-03-29T14:53:01Z</time>
      </trkpt>
      <trkpt lat="43.33903" lon="2.59196">
        <ele>188.56</ele>
        <time>2021-03-29T14:53:02Z</time>
      </trkpt>
      <trkpt lat="43.33902" lon="2.59198">
        <ele>188.56</ele>
        <time>2021-03-29T14:53:03Z</time>
      </trkpt>
      <trkpt lat="43.33891" lon="2.59218">
        <ele>188.56</ele>
        <time>2021-03-29T14:53:17Z</time>
      </trkpt>
      <trkpt lat="43.33891" lon="2.59219">
        <ele>188.56</ele>
        <time>2021-03-29T14:53:18Z</time>
      </trkpt>
      <trkpt lat="43.3389" lon="2.5922">
        <ele>188.56</ele>
        <time>2021-03-29T14:53:19Z</time>
      </trkpt>
      <trkpt lat="43.33889" lon="2.59222">
        <ele>188.56</ele>
        <time>2021-03-29T14:53:20Z</time>
      </trkpt>
      <trkpt lat="43.33888" lon="2.59224">
        <ele>188.56</ele>
        <time>2021-03-29T14:53:21Z</time>
      </trkpt>
      <trkpt lat="43.33887" lon="2.59226">
        <ele>188.56</ele>
        <time>2021-03-29T14:53:22Z</time>
      </trkpt>
      <trkpt lat="43.3388" lon="2.59232">
        <ele>188.08</ele>
        <time>2021-03-29T14:53:30Z</time>
      </trkpt>
      <trkpt lat="43.33879" lon="2.59233">
        <ele>188.08</ele>
        <time>2021-03-29T14:53:31Z</time>
      </trkpt>
      <trkpt lat="43.33865" lon="2.59244">
        <ele>187.59</ele>
        <time>2021-03-29T14:53:42Z</time>
      </trkpt>
      <trkpt lat="43.33862" lon="2.59249">
        <ele>187.59</ele>
        <time>2021-03-29T14:53:49Z</time>
      </trkpt>
      <trkpt lat="43.3386" lon="2.5925">
        <ele>187.59</ele>
        <time>2021-03-29T14:53:50Z</time>
      </trkpt>
      <trkpt lat="43.33859" lon="2.59251">
        <ele>187.59</ele>
        <time>2021-03-29T14:53:51Z</time>
      </trkpt>
      <trkpt lat="43.33855" lon="2.59255">
        <ele>187.59</ele>
        <time>2021-03-29T14:53:54Z</time>
      </trkpt>
      <trkpt lat="43.33854" lon="2.59256">
        <ele>187.59</ele>
        <time>2021-03-29T14:53:55Z</time>
      </trkpt>
      <trkpt lat="43.33852" lon="2.59257">
        <ele>187.59</ele>
        <time>2021-03-29T14:53:56Z</time>
      </trkpt>
      <trkpt lat="43.33851" lon="2.59259">
        <ele>187.59</ele>
        <time>2021-03-29T14:53:57Z</time>
      </trkpt>
      <trkpt lat="43.3385" lon="2.5926">
        <ele>187.59</ele>
        <time>2021-03-29T14:53:58Z</time>
      </trkpt>
      <trkpt lat="43.33849" lon="2.59262">
        <ele>187.59</ele>
        <time>2021-03-29T14:53:59Z</time>
      </trkpt>
      <trkpt lat="43.33839" lon="2.59277">
        <ele>187.59</ele>
        <time>2021-03-29T14:54:11Z</time>
      </trkpt>
      <trkpt lat="43.33828" lon="2.59297">
        <ele>187.11</ele>
        <time>2021-03-29T14:54:25Z</time>
      </trkpt>
      <trkpt lat="43.33827" lon="2.59298">
        <ele>187.11</ele>
        <time>2021-03-29T14:54:26Z</time>
      </trkpt>
      <trkpt lat="43.33826" lon="2.593">
        <ele>187.11</ele>
        <time>2021-03-29T14:54:27Z</time>
      </trkpt>
      <trkpt lat="43.33825" lon="2.59302">
        <ele>187.11</ele>
        <time>2021-03-29T14:54:28Z</time>
      </trkpt>
      <trkpt lat="43.33824" lon="2.59304">
        <ele>187.11</ele>
        <time>2021-03-29T14:54:29Z</time>
      </trkpt>
      <trkpt lat="43.33818" lon="2.59314">
        <ele>186.63</ele>
        <time>2021-03-29T14:54:41Z</time>
      </trkpt>
      <trkpt lat="43.33817" lon="2.59316">
        <ele>186.63</ele>
        <time>2021-03-29T14:54:42Z</time>
      </trkpt>
      <trkpt lat="43.33816" lon="2.59318">
        <ele>186.63</ele>
        <time>2021-03-29T14:54:43Z</time>
      </trkpt>
      <trkpt lat="43.33814" lon="2.5932">
        <ele>186.63</ele>
        <time>2021-03-29T14:54:44Z</time>
      </trkpt>
      <trkpt lat="43.33813" lon="2.59322">
        <ele>186.63</ele>
        <time>2021-03-29T14:54:45Z</time>
      </trkpt>
      <trkpt lat="43.33805" lon="2.59332">
        <ele>186.15</ele>
        <time>2021-03-29T14:54:52Z</time>
      </trkpt>
      <trkpt lat="43.33804" lon="2.59336">
        <ele>186.15</ele>
        <time>2021-03-29T14:54:56Z</time>
      </trkpt>
      <trkpt lat="43.33801" lon="2.59339">
        <ele>185.19</ele>
        <time>2021-03-29T14:54:59Z</time>
      </trkpt>
      <trkpt lat="43.338" lon="2.59341">
        <ele>185.19</ele>
        <time>2021-03-29T14:55:00Z</time>
      </trkpt>
      <trkpt lat="43.33783" lon="2.59374">
        <ele>184.23</ele>
        <time>2021-03-29T14:55:16Z</time>
      </trkpt>
      <trkpt lat="43.33781" lon="2.5938">
        <ele>183.75</ele>
        <time>2021-03-29T14:55:21Z</time>
      </trkpt>
      <trkpt lat="43.33781" lon="2.59381">
        <ele>183.75</ele>
        <time>2021-03-29T14:55:22Z</time>
      </trkpt>
      <trkpt lat="43.33781" lon="2.59383">
        <ele>183.75</ele>
        <time>2021-03-29T14:55:23Z</time>
      </trkpt>
      <trkpt lat="43.33778" lon="2.59394">
        <ele>182.79</ele>
        <time>2021-03-29T14:55:35Z</time>
      </trkpt>
      <trkpt lat="43.3377" lon="2.59421">
        <ele>181.35</ele>
        <time>2021-03-29T14:55:45Z</time>
      </trkpt>
      <trkpt lat="43.33767" lon="2.59427">
        <ele>182.79</ele>
        <time>2021-03-29T14:55:51Z</time>
      </trkpt>
      <trkpt lat="43.33767" lon="2.59428">
        <ele>181.83</ele>
        <time>2021-03-29T14:55:54Z</time>
      </trkpt>
      <trkpt lat="43.33757" lon="2.59445">
        <ele>180.38</ele>
        <time>2021-03-29T14:56:07Z</time>
      </trkpt>
      <trkpt lat="43.33743" lon="2.5946">
        <ele>179.9</ele>
        <time>2021-03-29T14:56:20Z</time>
      </trkpt>
      <trkpt lat="43.33741" lon="2.59464">
        <ele>179.9</ele>
        <time>2021-03-29T14:56:23Z</time>
      </trkpt>
      <trkpt lat="43.3374" lon="2.59466">
        <ele>179.9</ele>
        <time>2021-03-29T14:56:24Z</time>
      </trkpt>
      <trkpt lat="43.33727" lon="2.59486">
        <ele>178.94</ele>
        <time>2021-03-29T14:56:36Z</time>
      </trkpt>
      <trkpt lat="43.33726" lon="2.59486">
        <ele>178.94</ele>
        <time>2021-03-29T14:56:39Z</time>
      </trkpt>
      <trkpt lat="43.33729" lon="2.5947">
        <ele>180.87</ele>
        <time>2021-03-29T14:56:50Z</time>
      </trkpt>
      <trkpt lat="43.33736" lon="2.59455">
        <ele>181.35</ele>
        <time>2021-03-29T14:57:01Z</time>
      </trkpt>
      <trkpt lat="43.33738" lon="2.59442">
        <ele>182.31</ele>
        <time>2021-03-29T14:57:10Z</time>
      </trkpt>
      <trkpt lat="43.3374" lon="2.59437">
        <ele>182.31</ele>
        <time>2021-03-29T14:57:19Z</time>
      </trkpt>
      <trkpt lat="43.3374" lon="2.59437">
        <ele>180.87</ele>
        <time>2021-03-29T14:57:32Z</time>
      </trkpt>
      <trkpt lat="43.33739" lon="2.59437">
        <ele>182.31</ele>
        <time>2021-03-29T14:57:43Z</time>
      </trkpt>
      <trkpt lat="43.33739" lon="2.59439">
        <ele>180.87</ele>
        <time>2021-03-29T14:57:55Z</time>
      </trkpt>
    </trkseg>
  </trk>
</gpx>